GFSSGP_sfc_rhum_000.txt.gz
RH
72 59 56 39 36 48 52 41 39 31 31 30 28 31 32 36 34 46 70 74 87 95 91 84 83 80 79 78 72 71 69 62 59 57 55 57 55 59 60 59 55 56 57 55 57 57 55 58 61
80 54 44 48 44 45 41 35 36 30 27 26 29 29 32 49 58 64 71 84 86 91 90 87 85 83 81 78 73 71 68 65 60 57 54 53 57 57 55 58 54 56 59 57 57 58 55 57 61
49 50 47 52 61 49 40 34 28 25 23 30 32 31 42 50 62 62 67 80 84 90 88 87 87 86 83 78 74 71 69 65 60 60 59 64 63 66 60 59 54 62 63 60 60 61 62 63 61
50 48 44 51 52 44 39 32 24 26 23 27 32 39 47 49 51 56 60 76 85 90 92 92 89 87 86 82 75 72 70 66 63 60 63 63 71 71 68 63 70 69 67 64 60 62 64 67 69
51 56 64 64 53 43 39 26 24 28 29 28 28 36 50 51 61 57 58 72 83 86 89 92 89 89 86 82 79 74 70 69 64 64 63 67 69 71 72 70 71 69 66 62 62 63 62 64 67
63 58 73 70 56 43 39 30 24 26 30 29 32 42 49 57 59 57 55 69 82 87 90 90 91 89 86 85 84 80 74 70 67 66 65 68 68 69 72 71 71 68 66 64 66 67 69 68 66
71 73 73 68 58 53 40 28 25 22 32 32 32 44 48 59 54 54 55 72 94 91 96 97 94 92 92 90 88 85 81 77 73 70 68 73 73 68 69 76 73 70 69 69 71 72 68 69 71
66 70 78 70 61 55 39 32 25 26 27 30 28 40 45 39 51 59 58 79 95 96 96 97 97 96 96 97 91 89 86 85 83 82 84 87 84 81 76 84 80 74 75 76 73 71 72 73 74
67 88 86 69 59 47 38 39 29 28 33 33 31 29 27 36 59 70 78 72 87 92 96 97 97 97 97 96 93 90 88 89 88 86 87 87 93 87 86 87 84 84 77 75 75 75 77 84 87
85 94 78 58 51 48 41 37 32 37 40 40 39 35 34 52 66 68 73 74 77 83 91 95 96 96 97 82 94 96 91 96 95 94 92 95 92 88 76 87 87 82 82 84 79 79 85 89 97
85 86 64 55 45 44 44 42 33 36 41 36 35 38 35 49 54 62 67 73 68 70 76 83 92 92 96 87 97 99 98 98 97 94 93 94 84 85 86 90 90 91 88 93 90 90 91 91 92
86 70 62 61 53 55 56 40 41 39 35 31 33 35 36 34 36 38 42 58 69 75 72 76 83 91 93 93 93 96 97 97 98 95 92 93 91 93 92 93 90 91 95 91 82 80 68 70 74
82 68 62 59 56 52 48 52 45 42 35 35 34 33 35 36 38 35 33 30 44 73 74 77 83 85 87 92 94 92 92 91 86 86 81 86 92 94 94 95 92 83 74 68 59 65 65 64 64
65 65 64 57 53 52 53 50 48 41 37 38 36 36 37 37 36 39 40 47 60 68 74 78 83 88 89 92 94 94 90 75 85 86 84 84 90 93 83 48 51 58 65 61 59 59 62 59 62
64 71 63 61 64 56 48 57 54 39 38 39 38 38 38 37 36 36 44 52 58 70 78 79 86 89 92 94 91 89 71 72 73 70 58 60 60 47 46 46 56 65 63 56 54 52 50 56 52
83 83 89 65 60 61 55 71 50 39 43 42 42 43 43 37 41 50 54 56 62 64 68 76 75 90 93 94 85 83 70 60 44 39 40 41 44 49 51 54 57 61 56 52 51 53 49 57 58
90 96 86 76 61 63 62 63 48 39 45 44 45 45 41 45 49 52 53 57 66 68 67 71 90 88 91 83 56 45 42 43 42 46 44 43 45 48 51 51 54 54 52 50 50 45 54 58 54
73 88 75 72 73 66 66 65 56 44 45 46 43 46 45 49 50 50 49 60 69 72 73 78 88 78 53 45 41 42 42 50 47 47 44 42 42 42 47 45 48 50 48 50 49 46 50 57 59
82 84 79 74 58 68 66 65 55 51 50 48 48 44 50 53 51 48 54 70 78 86 85 92 74 52 49 46 43 41 54 51 47 41 38 38 38 40 43 46 46 51 48 50 48 52 55 58 62
84 84 86 69 55 65 74 76 62 49 46 44 43 45 56 59 55 56 71 80 82 88 91 83 63 54 52 50 59 51 50 56 50 43 36 34 35 38 38 45 48 49 50 46 50 55 57 62 64
82 83 78 81 64 54 54 62 68 57 48 41 45 40 50 52 55 64 80 85 89 89 85 76 64 60 57 53 49 57 54 59 54 48 40 36 35 38 41 42 45 49 51 51 50 53 54 59 62
87 66 68 69 83 93 73 91 70 57 55 47 46 47 54 57 57 66 78 81 82 80 74 67 60 58 52 46 47 43 49 56 61 54 44 38 35 38 39 41 42 44 48 44 46 41 52 53 55
75 57 61 68 77 88 75 90 75 54 59 50 45 48 53 52 54 66 73 71 73 73 73 69 62 57 62 59 55 59 61 62 61 51 41 37 37 38 37 38 39 41 46 43 42 44 43 52 52
64 68 68 73 85 93 71 82 80 71 52 48 49 48 55 54 63 70 73 70 72 68 66 65 61 62 62 57 58 58 58 54 51 50 48 45 43 42 36 34 37 37 39 41 44 42 40 43 48
64 77 96 98 97 85 64 84 65 59 51 37 44 54 55 53 65 72 70 67 66 65 65 62 59 62 60 58 57 54 49 41 38 42 44 39 37 38 35 35 34 36 36 38 39 40 41 43 47
76 72 88 93 97 82 76 81 75 54 42 40 42 46 52 58 63 68 67 63 60 62 62 60 55 56 51 49 46 41 39 42 38 36 37 36 35 35 33 32 31 30 31 34 35 42 45 38 48
82 86 61 80 80 94 90 88 72 62 51 47 52 54 56 60 66 69 69 64 63 64 64 57 52 49 44 41 38 37 36 35 35 33 33 34 32 26 29 29 30 31 31 33 34 42 40 42 46
74 63 84 84 100 94 85 86 69 61 44 56 55 55 56 62 70 72 66 66 65 67 65 57 49 44 41 37 33 32 32 31 30 30 28 28 28 27 28 29 30 32 34 34 36 42 42 42 46
87 84 73 64 79 97 93 79 56 48 43 53 52 52 58 65 70 70 69 67 70 68 62 56 49 42 38 33 30 30 30 29 28 27 27 27 27 28 29 30 33 34 36 36 39 40 41 41 44
66 68 64 71 71 75 98 75 44 44 40 46 52 50 56 60 65 69 71 73 67 64 61 55 48 41 36 32 30 30 29 28 28 28 28 28 29 30 31 33 36 36 38 40 42 44 44 46 47

GFSSGP_sfc_rhum_003.txt.gz
RH
82 69 49 40 40 52 58 44 38 30 33 32 31 34 31 40 34 45 70 80 90 90 96 88 86 82 77 76 72 70 66 63 61 56 55 57 55 59 59 61 58 59 57 54 55 58 57 59 61
77 54 46 51 54 50 46 39 34 28 25 27 33 34 36 54 62 71 78 82 89 94 95 90 87 81 79 78 74 72 68 62 60 58 57 59 59 61 56 56 51 52 58 56 55 58 58 57 60
56 46 48 54 64 60 46 35 34 25 22 30 33 40 47 56 66 66 66 91 94 95 96 89 86 84 82 78 74 72 69 65 60 59 60 62 60 62 62 51 56 58 61 60 60 62 64 66 66
53 51 49 56 57 50 40 41 34 26 23 28 33 40 48 50 58 58 80 91 96 98 96 93 88 87 86 82 76 72 69 66 60 60 62 62 67 68 65 63 71 70 67 63 62 64 66 66 70
56 61 68 69 60 50 43 36 32 28 26 29 33 39 51 47 62 67 89 89 95 98 96 96 90 88 87 83 78 73 70 66 62 59 63 64 68 67 70 71 70 69 67 62 62 64 66 66 66
69 63 80 72 58 49 46 37 37 29 27 33 34 45 47 55 66 66 82 92 86 93 96 97 91 90 88 85 82 79 71 68 62 64 64 67 67 69 70 72 72 70 67 66 67 69 70 70 69
77 75 78 75 64 55 45 37 28 28 34 35 30 42 46 49 55 60 72 91 92 91 97 98 96 93 89 87 85 82 77 75 70 70 69 71 73 68 71 76 73 71 72 71 73 75 71 69 71
73 76 83 77 65 57 44 39 29 26 28 33 29 40 47 39 46 62 68 93 98 98 97 98 98 97 96 96 91 89 85 82 80 80 80 86 85 82 74 85 81 76 76 77 76 73 74 76 77
69 89 90 70 65 52 45 44 36 33 35 36 35 33 33 37 59 65 80 96 100 95 98 98 98 98 98 98 94 91 90 88 88 87 88 88 93 90 89 90 86 84 80 77 76 77 79 85 88
88 95 78 66 59 53 47 44 40 37 38 42 40 35 46 62 72 68 74 85 98 98 98 94 98 98 98 88 96 96 94 97 96 94 93 95 93 91 80 90 90 85 85 86 82 82 84 88 97
88 86 67 63 52 48 51 46 39 43 43 36 35 35 48 63 74 70 71 75 87 93 96 98 98 98 98 96 98 99 99 99 98 95 94 95 91 92 94 95 95 95 90 90 93 94 89 80 84
89 77 67 65 57 60 62 50 45 41 37 33 34 38 38 51 60 65 67 70 80 85 85 90 96 97 97 98 98 98 99 98 98 97 94 96 95 95 95 97 92 89 96 89 70 64 62 58 60
86 80 65 65 64 60 57 60 59 49 40 34 34 37 38 38 40 43 49 47 62 80 81 85 93 96 97 96 98 98 98 98 96 96 94 92 96 97 97 81 66 63 60 62 59 58 53 56 55
73 70 68 65 61 61 62 59 58 50 42 40 38 38 37 38 39 45 40 38 39 49 79 85 87 94 94 96 95 96 96 94 91 92 88 88 96 88 58 56 55 54 62 59 54 52 53 54 54
71 80 68 65 64 67 58 63 60 50 44 42 41 42 38 40 41 38 36 40 46 67 82 86 90 89 91 95 92 88 85 76 78 73 66 62 46 44 46 50 56 61 54 50 45 44 50 51 44
81 86 92 66 63 62 60 72 58 47 48 45 43 45 43 42 38 41 44 52 64 76 89 90 80 91 93 92 77 74 66 48 43 43 43 42 43 43 47 56 60 54 48 49 45 50 49 55 53
88 89 88 78 61 65 69 68 56 46 45 48 46 46 42 44 43 45 55 65 72 76 88 92 94 94 94 78 52 48 42 42 42 41 42 46 41 42 48 55 56 49 50 51 48 45 53 58 49
89 96 81 86 71 71 66 60 61 55 51 47 46 44 50 45 43 47 56 67 74 74 74 94 94 90 59 47 45 43 42 41 40 41 40 43 44 43 47 50 50 47 49 52 49 47 50 60 60
89 88 81 67 62 72 65 64 55 59 59 56 55 46 50 45 53 54 58 69 80 83 80 96 84 58 52 48 44 42 45 40 38 36 39 40 42 43 45 51 50 50 49 52 47 53 55 56 62
84 85 82 66 57 59 65 69 64 57 54 54 53 47 49 54 54 52 63 86 89 88 91 88 63 55 52 49 51 44 39 45 45 42 39 39 41 41 41 48 50 47 47 45 47 54 54 56 62
89 92 73 70 67 60 64 62 52 46 50 52 49 46 44 48 53 59 77 89 91 94 94 67 58 58 55 49 44 44 42 50 45 43 42 40 40 42 43 44 46 47 49 50 48 51 49 52 52
92 74 73 72 80 86 79 76 65 63 55 52 48 56 47 55 54 65 84 90 94 94 90 64 61 61 50 40 39 34 39 45 53 49 43 41 39 41 41 41 42 44 48 44 44 41 49 53 52
75 65 68 78 89 92 79 89 74 51 51 54 58 56 50 54 53 62 75 81 91 88 80 67 66 58 51 49 43 48 54 62 60 47 40 38 40 38 39 39 39 40 46 43 42 43 41 50 51
64 74 74 78 85 96 71 80 62 54 67 56 53 54 50 56 58 72 84 82 85 85 79 69 63 65 61 54 57 51 61 56 47 48 46 43 43 42 36 35 37 37 39 41 44 41 40 44 46
65 80 97 98 97 83 65 72 58 57 57 52 47 50 59 60 67 80 80 80 78 78 76 70 63 68 62 59 60 60 59 49 45 46 49 42 38 39 36 35 33 35 35 38 40 41 42 43 46
80 75 87 86 96 82 50 68 61 53 38 35 42 48 64 62 63 74 75 74 72 72 70 66 65 66 63 62 61 56 47 49 47 45 43 38 36 36 34 32 31 31 32 35 38 45 46 41 49
96 97 67 69 64 96 86 82 76 68 65 59 55 55 63 61 67 72 74 69 68 68 66 63 62 61 59 55 49 44 42 40 39 36 35 36 35 29 30 30 30 32 34 36 38 45 43 45 48
72 65 94 96 96 94 78 89 76 70 51 43 55 50 57 60 69 72 68 66 67 67 66 59 53 51 48 42 39 36 35 34 34 34 32 31 29 28 29 30 33 35 37 38 40 45 46 46 48
82 88 77 70 82 95 94 63 70 63 52 54 57 60 61 66 72 72 66 66 70 68 61 55 47 42 40 36 35 34 33 31 29 28 29 28 29 29 30 33 36 38 39 40 44 45 43 46 48
63 70 74 91 87 66 93 76 66 63 48 53 56 57 65 71 73 69 69 72 67 65 60 54 46 39 36 33 32 32 31 29 29 29 29 30 30 32 34 36 38 40 42 45 46 47 48 50 52

GFSSGP_sfc_rhum_006.txt.gz
RH
76 64 46 40 43 52 62 47 55 35 38 33 33 30 32 42 39 44 73 86 88 86 90 94 84 81 78 73 71 70 65 66 59 58 61 56 56 59 58 59 58 58 56 56 55 57 56 59 63
77 53 46 52 52 58 50 44 40 33 30 26 31 32 35 43 62 68 77 80 90 90 95 95 86 81 78 75 74 71 67 63 61 57 57 59 55 61 56 60 51 52 57 56 56 60 61 58 58
54 43 48 55 66 62 51 38 39 32 27 33 35 41 47 54 66 66 70 84 95 98 97 94 88 83 80 77 75 73 69 62 60 60 57 58 59 61 59 52 54 57 60 60 60 62 65 68 68
56 52 53 57 60 54 43 40 41 32 26 33 36 37 47 52 63 64 79 95 98 99 97 92 88 85 86 81 76 74 70 66 61 62 62 62 64 64 64 64 68 71 67 62 61 64 65 64 67
59 64 70 73 64 55 48 41 40 36 33 31 36 38 47 48 66 80 95 95 97 99 98 95 89 86 86 82 78 74 70 67 62 61 60 62 67 66 69 69 70 68 67 63 62 64 66 68 69
71 66 82 74 60 54 48 43 42 38 34 29 38 55 45 52 70 82 94 96 95 98 98 96 90 89 88 85 81 77 71 67 63 60 63 63 67 69 73 73 73 70 66 67 67 70 72 70 69
78 79 81 77 64 58 48 43 36 32 33 36 36 50 46 46 60 69 91 93 93 96 98 98 97 94 91 88 84 82 76 72 67 70 68 71 73 69 72 76 74 71 72 72 74 74 72 72 74
79 76 86 81 65 61 45 41 36 27 27 34 36 43 54 43 55 65 78 94 95 97 98 99 99 98 97 95 89 86 83 81 78 79 79 84 85 82 76 86 81 75 74 76 76 76 76 77 79
74 91 94 80 70 59 48 48 39 35 35 39 37 38 37 39 68 73 85 97 95 95 98 98 94 98 98 97 94 91 88 85 84 83 87 89 92 90 90 88 86 81 80 77 77 80 82 85 88
90 97 82 68 62 57 51 51 49 40 42 42 40 36 48 66 78 74 77 92 92 88 86 90 87 89 99 94 97 96 96 96 96 94 94 95 92 91 82 90 89 84 83 81 82 82 76 74 88
87 87 74 70 60 56 57 53 46 50 53 41 37 36 41 75 78 73 76 80 94 94 86 88 89 94 98 97 99 99 99 99 98 95 95 95 92 94 96 97 96 95 92 87 87 66 64 62 62
94 83 77 71 64 67 70 60 55 48 45 36 38 37 41 51 71 74 75 77 82 93 97 97 91 99 99 99 99 99 99 99 99 97 95 97 97 95 96 98 92 94 87 63 64 60 52 51 48
89 86 72 68 67 70 66 68 72 63 49 42 42 39 39 40 51 58 68 69 80 81 89 96 98 98 98 98 99 99 98 99 97 97 96 96 96 97 97 63 55 55 59 57 52 49 51 47 45
78 77 74 68 71 68 67 65 68 56 52 49 46 43 41 42 40 47 43 42 47 53 78 90 96 96 97 97 97 98 98 97 97 98 95 88 89 72 55 55 55 51 56 49 45 49 52 46 46
79 87 76 72 67 70 67 70 67 52 53 53 50 47 43 41 43 41 39 41 39 43 53 91 91 96 96 96 97 92 94 87 82 82 81 78 48 46 49 52 51 53 49 44 43 44 51 46 41
81 86 96 71 68 66 66 78 58 49 46 49 48 52 48 43 41 44 41 41 43 62 83 92 80 94 96 97 90 92 83 78 58 55 51 43 43 43 47 54 53 48 49 47 44 50 48 52 50
87 95 92 75 65 67 72 72 61 52 49 52 55 54 49 47 44 46 43 49 59 70 91 95 95 95 95 80 75 77 54 66 47 45 46 41 43 41 48 53 50 48 50 49 46 47 53 58 47
90 93 84 73 68 72 79 76 62 57 61 63 61 58 54 51 45 41 45 62 72 82 94 97 96 96 69 58 57 60 52 45 42 41 40 37 40 45 51 50 47 46 50 48 46 47 50 64 60
93 95 93 80 62 71 76 71 61 57 62 67 58 63 56 55 45 46 54 68 82 86 96 98 97 74 62 62 58 56 58 42 38 36 36 37 43 45 48 51 48 48 48 48 46 51 52 51 61
85 89 87 78 62 67 67 63 54 54 56 64 64 58 60 57 54 52 61 78 87 87 96 98 83 65 66 58 51 45 40 41 38 40 38 42 43 44 44 48 48 45 46 45 47 51 50 51 60
92 93 89 84 64 57 64 61 48 40 40 41 43 43 48 50 54 54 62 79 90 90 97 90 70 61 56 46 46 41 35 36 38 38 45 45 43 44 44 44 45 46 49 50 50 49 48 52 50
92 79 78 80 88 95 68 78 55 49 53 42 40 43 56 55 54 54 63 86 92 94 94 74 65 58 46 45 41 38 38 33 41 45 47 45 43 43 42 42 43 45 48 44 44 41 50 52 53
74 71 80 82 93 95 86 91 72 52 50 47 55 62 60 53 52 56 62 66 93 96 83 73 67 56 46 45 38 35 34 49 52 47 43 40 41 40 40 39 40 42 48 43 41 43 43 51 52
67 79 78 82 81 94 75 87 65 52 45 57 49 54 58 57 59 58 71 93 96 96 83 75 66 53 48 44 37 36 42 44 43 47 46 44 44 44 38 37 38 38 41 41 44 43 41 46 47
74 90 98 98 98 90 67 78 56 49 44 49 49 50 48 59 67 84 92 90 95 94 83 75 61 57 51 49 53 44 45 38 39 43 46 42 40 41 37 35 34 36 37 40 41 43 44 45 48
81 79 92 90 92 88 61 79 66 50 38 34 32 49 56 66 73 81 81 84 92 91 82 73 65 60 58 58 62 61 49 46 47 49 45 40 38 39 35 34 32 33 35 38 40 48 48 45 52
97 97 71 76 64 90 84 75 58 59 61 56 52 43 57 68 76 82 88 88 88 86 81 74 71 67 64 65 60 56 53 48 47 43 38 40 38 30 32 32 33 35 37 39 41 48 46 49 50
88 76 98 97 96 95 82 72 71 53 63 56 51 38 63 69 75 86 89 85 83 80 77 73 65 63 63 57 51 46 43 41 38 37 36 34 31 31 31 33 35 37 39 41 44 48 49 48 52
92 96 97 80 88 93 90 62 60 59 66 58 53 51 59 67 73 84 80 75 74 70 67 63 57 53 49 43 39 36 36 35 33 32 32 31 31 31 34 36 38 40 42 45 47 47 45 51 53
65 73 77 87 88 86 91 59 53 84 71 57 61 63 74 75 85 79 77 73 69 65 59 55 50 45 41 37 34 33 31 30 31 32 32 32 33 36 37 39 40 43 46 48 47 47 51 55 57

GFSSGP_sfc_rhum_009.txt.gz
RH
64 52 37 39 38 40 43 36 31 28 27 24 22 25 26 26 32 35 61 65 67 64 72 70 82 81 77 72 71 70 68 64 60 62 60 57 57 57 58 58 56 58 56 57 56 58 57 59 64
58 40 42 43 40 42 38 32 30 27 24 23 26 27 27 31 43 47 56 66 71 67 70 72 85 82 78 74 73 70 66 66 59 59 58 57 55 61 54 58 55 52 57 59 58 61 64 60 58
42 36 42 44 49 43 40 31 28 29 26 23 26 30 29 35 48 48 52 65 73 70 72 75 86 84 80 76 74 71 67 63 61 60 58 58 57 60 56 55 54 54 61 61 61 63 66 68 68
46 43 42 44 46 44 37 27 31 30 25 23 25 28 33 36 44 47 64 74 76 76 77 83 87 85 84 81 76 74 68 63 61 60 61 60 62 62 62 62 68 70 66 62 62 64 65 66 67
50 50 52 56 48 42 37 34 31 30 30 25 26 26 33 38 53 60 74 80 78 84 80 75 88 86 86 82 78 75 70 66 62 62 61 60 66 68 69 68 70 69 66 63 64 67 68 70 70
58 52 60 59 48 44 37 33 32 31 28 25 26 29 31 38 52 74 78 79 81 88 83 78 86 88 88 84 82 78 71 68 63 61 60 60 68 69 72 72 71 70 66 69 68 71 71 70 70
65 62 63 60 52 48 40 34 33 30 26 23 26 28 27 31 50 73 75 78 81 82 84 80 75 80 90 88 84 81 75 71 67 68 67 70 73 71 77 75 72 71 72 72 74 75 74 75 76
65 60 72 64 52 48 37 36 30 26 24 23 26 28 26 30 53 67 73 78 80 84 82 84 83 78 78 75 88 86 82 80 76 78 79 82 83 80 78 86 81 75 75 76 76 78 81 83 85
63 77 78 64 60 47 39 38 34 29 27 29 27 26 28 42 59 64 72 83 83 83 84 84 82 84 84 79 78 86 86 84 82 80 85 80 69 70 70 82 84 81 79 78 79 80 76 75 69
75 87 75 62 53 49 42 42 40 36 36 34 31 28 31 48 61 61 64 71 83 81 80 85 81 85 86 81 79 77 74 72 73 72 76 71 70 64 64 81 88 82 81 83 74 62 56 49 37
77 75 67 60 52 49 54 50 42 40 46 38 35 30 30 43 55 61 59 60 69 74 74 79 82 84 90 83 86 84 81 82 80 77 75 72 70 69 68 66 67 69 83 59 45 39 35 34 31
83 76 73 64 58 61 62 56 58 48 44 36 32 34 33 31 37 55 59 58 65 82 76 76 82 89 90 83 83 82 82 81 81 78 75 75 68 73 71 71 70 62 52 42 37 33 30 27 25
83 78 69 64 65 65 63 66 62 63 47 42 44 45 40 35 33 38 53 56 59 66 78 82 82 90 91 86 84 82 79 79 76 76 75 72 70 77 68 52 50 45 37 32 31 30 25 22 22
69 73 69 64 62 64 65 60 63 50 50 52 48 42 37 37 34 33 35 38 47 54 61 74 88 86 89 87 85 80 81 79 76 75 74 75 79 72 56 48 45 38 31 28 28 28 27 23 22
71 80 69 67 64 62 62 72 73 50 47 48 48 44 42 39 36 36 31 32 30 34 36 62 77 85 86 84 80 81 86 76 76 79 76 78 58 49 47 40 36 34 31 26 26 26 29 24 21
76 75 84 62 64 61 57 62 54 46 48 51 48 48 45 41 37 34 34 34 32 34 40 47 66 83 83 80 85 87 84 90 80 77 66 48 46 46 42 41 35 32 30 28 28 27 28 27 25
82 83 86 70 58 58 67 69 52 47 51 51 48 46 47 43 39 37 36 34 34 34 47 66 74 83 84 82 84 87 75 75 61 54 49 43 43 37 36 35 36 30 29 29 26 28 31 29 28
83 93 80 74 59 63 67 69 57 53 51 48 49 48 49 46 41 36 37 36 37 47 59 73 82 86 80 74 62 67 57 50 50 46 42 38 39 36 35 34 32 29 30 27 27 27 30 33 34
83 87 88 76 60 69 65 61 52 48 51 49 48 43 44 48 42 40 40 38 50 63 73 85 90 80 73 74 62 60 62 49 42 39 36 37 39 36 37 34 31 31 30 30 26 30 30 32 36
82 86 81 63 63 65 64 63 51 46 46 44 43 47 48 50 47 43 42 49 57 64 81 88 86 72 72 67 61 56 48 44 41 42 38 38 37 35 34 34 33 32 31 30 31 34 30 32 38
71 77 69 66 65 60 61 56 37 28 29 36 39 38 38 38 40 40 44 49 66 72 86 88 75 71 68 59 51 42 38 38 41 40 42 39 33 33 33 33 31 34 34 35 35 35 34 32 35
82 72 75 78 83 82 60 70 39 38 36 34 37 35 37 40 42 40 46 51 66 73 86 81 69 68 58 52 49 47 46 40 35 38 40 35 34 34 32 33 32 32 32 32 31 30 35 36 35
75 68 73 79 89 93 74 86 54 47 45 41 38 43 40 40 44 43 46 49 57 80 85 75 65 60 52 52 48 47 40 36 38 39 36 33 32 33 32 31 33 32 32 32 32 34 33 35 34
65 79 76 78 86 96 69 76 58 42 37 37 37 35 44 43 48 49 47 58 77 86 80 74 64 57 53 51 46 42 39 36 39 38 35 31 31 32 32 31 31 31 31 32 34 37 37 36 36
73 98 93 96 98 84 61 78 54 40 35 34 33 37 42 43 50 53 64 74 82 87 80 74 65 57 50 45 42 40 36 33 36 35 34 32 30 31 30 29 27 28 33 35 35 36 36 35 36
84 84 89 90 82 74 66 79 58 45 37 35 34 33 34 46 47 60 65 73 78 86 78 71 64 57 51 47 46 37 34 35 33 35 32 29 28 29 28 28 26 27 29 31 33 36 37 36 38
97 96 67 94 85 95 72 63 49 43 42 52 50 47 46 42 52 59 72 74 83 84 76 70 63 56 56 56 49 40 37 37 39 35 32 31 30 26 27 27 28 29 30 31 33 34 33 36 38
85 78 95 97 96 90 68 67 64 43 43 57 56 52 48 48 54 63 74 82 83 81 74 67 59 59 60 55 44 40 38 37 36 31 31 29 26 26 27 28 29 30 31 32 33 34 35 35 38
90 98 99 97 96 86 71 46 43 38 53 60 58 53 56 58 56 63 77 81 83 77 72 66 61 59 55 46 42 39 37 34 29 28 26 25 25 26 27 29 30 31 32 32 31 32 35 40 41
64 72 74 90 88 87 81 61 33 50 69 57 58 59 71 76 65 78 80 78 76 73 66 62 55 53 45 39 36 34 31 29 27 26 26 25 26 28 30 30 32 32 34 33 31 36 41 43 45

GFSSGP_sfc_rhum_012.txt.gz
RH
41 27 23 23 26 24 26 22 17 21 21 18 16 18 20 20 24 27 45 44 44 44 48 62 82 80 76 72 71 71 68 62 62 61 58 57 60 58 61 59 57 56 57 57 58 58 59 60 63
31 24 23 23 28 28 22 20 20 20 19 16 17 20 20 21 24 32 37 48 44 43 48 49 84 82 76 73 73 70 69 61 63 63 58 55 58 58 55 58 58 56 59 60 60 63 66 63 62
31 23 25 27 27 28 24 21 17 21 19 17 20 21 21 24 34 31 38 45 44 45 48 52 85 83 78 75 74 69 67 63 60 60 58 57 59 55 60 55 55 59 63 61 63 65 66 66 67
28 25 24 29 28 24 24 19 21 21 18 18 18 20 21 26 31 33 40 47 44 44 47 78 87 84 82 79 75 71 66 63 62 62 61 60 63 62 56 54 64 67 65 63 64 64 67 68 69
28 27 30 34 28 21 21 21 22 22 21 18 17 20 20 28 35 35 43 45 42 45 48 62 87 86 84 80 77 75 68 64 62 61 61 62 67 70 68 65 68 69 66 64 65 68 70 70 69
33 28 32 31 26 23 24 20 21 20 19 18 19 17 19 26 35 43 45 45 43 47 51 53 84 87 86 84 81 77 72 68 63 63 60 61 69 70 69 70 70 69 67 70 70 73 73 72 73
34 33 29 27 25 25 25 20 22 20 18 18 17 19 18 21 36 46 43 43 48 47 50 50 58 70 90 87 85 81 74 71 66 64 62 69 75 73 78 76 72 70 74 73 75 76 77 79 81
38 33 32 33 28 29 23 25 21 21 19 16 18 19 19 25 39 44 45 46 47 49 50 50 49 53 65 66 88 86 82 79 76 77 80 83 82 78 84 83 80 75 75 76 78 82 80 80 76
46 40 36 34 34 27 26 28 23 21 21 21 19 20 22 29 41 46 49 51 50 52 52 52 48 51 58 55 69 84 85 82 81 78 84 77 46 50 54 81 82 79 80 79 80 70 64 58 61
44 43 34 27 28 30 26 29 25 28 24 24 23 20 22 28 36 42 44 45 49 50 51 56 54 56 56 56 59 56 52 55 53 53 56 48 50 43 49 72 85 82 81 75 63 54 43 48 30
45 46 31 41 36 33 32 34 30 30 30 25 24 22 24 25 27 34 34 33 41 44 48 55 66 66 66 58 58 54 50 54 55 54 55 48 48 50 50 49 52 55 73 45 40 35 29 29 24
52 42 40 40 42 46 44 37 40 32 27 21 25 25 29 27 25 23 30 33 37 45 49 53 62 74 75 59 62 53 50 55 54 56 55 51 50 55 51 50 57 51 42 39 33 29 24 21 18
56 42 44 42 48 45 41 42 41 36 30 29 30 31 32 29 26 22 23 28 34 43 48 53 62 72 76 72 64 57 51 53 52 58 53 47 51 56 54 44 40 37 32 29 27 22 18 16 16
48 53 49 46 44 41 46 40 37 35 30 29 30 29 28 27 26 23 24 24 29 34 39 49 58 68 72 81 66 57 51 51 55 54 51 52 51 57 47 44 41 31 26 21 19 18 19 16 15
52 58 43 40 39 43 43 48 43 30 28 28 28 25 25 24 24 25 24 23 20 23 27 36 49 58 75 79 65 56 53 54 57 53 53 55 58 51 42 39 33 25 21 19 19 18 19 18 15
55 54 54 39 45 39 41 43 29 34 32 34 29 25 24 24 22 21 21 22 23 21 23 24 35 50 68 71 64 57 55 55 56 54 59 64 50 46 39 33 26 22 22 21 20 19 20 20 18
51 45 53 46 40 43 45 44 35 30 35 34 28 27 27 26 23 21 20 21 23 21 21 27 32 39 51 57 67 63 57 66 70 70 59 50 44 38 32 27 25 22 22 21 18 20 21 22 21
46 58 48 45 40 47 47 44 36 33 34 33 30 29 30 31 29 24 22 21 23 24 24 27 36 41 50 65 71 71 64 61 60 56 48 43 37 31 26 24 23 22 23 20 20 20 22 23 22
54 54 52 45 46 50 46 41 35 32 31 31 30 29 27 28 27 28 27 27 28 27 30 34 43 51 58 74 71 78 65 58 51 44 40 37 32 29 27 25 23 22 22 21 20 22 23 24 22
57 59 54 43 40 47 43 43 35 32 31 28 27 26 26 25 24 26 27 26 27 28 35 40 48 56 60 68 67 68 64 51 44 43 39 38 34 31 27 26 25 24 24 24 24 27 24 24 24
58 60 54 52 45 44 49 46 27 21 20 21 22 22 21 21 23 24 24 25 31 32 38 46 57 58 61 67 59 54 46 43 40 42 43 39 31 26 26 26 24 26 26 28 27 27 25 25 25
62 45 50 58 64 63 44 50 28 23 23 22 22 22 22 23 22 22 24 23 27 35 42 56 64 58 62 61 53 51 54 53 40 38 42 35 29 25 24 24 24 25 25 26 24 22 25 26 27
60 52 53 55 62 64 53 86 33 28 29 26 22 21 19 20 21 24 24 25 26 34 53 67 62 61 62 58 54 57 53 49 36 39 35 32 26 25 24 24 25 24 24 25 25 27 25 26 26
52 58 59 59 67 90 51 50 41 27 23 22 22 20 19 20 24 25 28 26 27 39 59 68 63 63 60 62 55 56 49 38 40 37 36 29 25 25 24 24 24 24 24 26 28 30 30 29 28
59 73 78 83 93 66 29 41 38 26 24 23 20 19 20 21 23 25 29 33 35 51 64 67 64 63 58 56 53 47 41 37 36 33 32 26 25 25 25 24 22 23 26 28 28 29 29 28 28
66 62 66 66 46 41 31 54 32 21 22 22 21 25 30 31 29 25 28 35 40 53 59 63 62 59 58 52 47 42 39 40 31 29 26 24 24 23 24 22 20 21 22 24 26 27 28 29 29
72 92 54 74 55 80 47 38 28 24 27 24 24 34 34 33 36 34 29 38 42 51 57 58 58 56 55 49 43 39 36 37 32 30 26 24 24 22 22 22 21 22 22 23 25 25 25 27 30
64 54 87 93 83 68 37 41 38 22 23 26 35 34 31 32 33 36 32 40 45 50 54 52 52 53 49 45 39 40 36 31 32 27 26 25 21 20 22 21 22 22 23 23 25 25 26 26 28
79 88 94 73 74 72 61 34 18 22 23 21 32 32 32 39 40 42 37 39 48 54 56 54 52 52 50 45 44 38 36 32 28 25 24 22 20 20 20 21 21 22 22 23 23 24 26 30 32
43 52 60 92 80 87 73 54 22 23 28 43 34 29 36 46 47 50 45 50 56 58 57 56 53 53 50 45 42 37 33 28 25 23 21 20 20 20 20 21 22 23 24 23 22 25 28 32 35

GFSSGP_sfc_rhum_015.txt.gz
RH
47 20 18 21 27 24 24 20 14 16 15 13 15 16 17 18 20 30 37 36 33 42 52 63 81 78 74 72 71 70 66 62 66 63 62 66 63 63 62 59 58 59 59 59 60 62 61 61 62
28 19 20 22 30 26 22 15 18 13 15 15 14 15 17 19 18 31 37 39 32 39 48 53 84 81 76 74 72 71 64 64 65 62 57 57 59 58 58 58 58 61 60 61 62 66 67 67 67
31 19 24 27 27 27 21 17 16 14 15 15 17 16 16 21 25 26 32 35 32 38 43 54 84 83 78 75 72 71 65 61 65 59 59 57 59 54 59 56 58 65 62 63 65 67 67 68 68
25 23 21 29 28 20 18 15 14 17 14 15 16 18 17 20 25 26 32 33 32 37 38 78 85 83 82 78 73 70 67 62 61 60 63 62 60 59 58 57 64 68 65 65 66 68 68 69 70
26 22 29 29 25 17 14 15 16 17 16 15 16 18 18 23 27 30 34 32 33 36 45 59 86 84 83 79 75 72 67 64 63 62 61 67 68 70 67 64 69 68 66 66 67 70 71 71 70
28 22 30 27 22 18 14 15 16 16 15 14 16 17 17 23 26 32 34 32 30 36 42 60 82 86 85 82 79 75 69 65 63 63 61 66 68 74 69 70 70 69 71 70 72 74 73 74 77
34 29 28 24 21 17 15 16 18 17 15 15 13 18 16 18 32 34 33 31 33 36 40 53 62 75 89 86 85 80 74 71 67 67 62 74 73 77 74 74 73 72 73 74 76 80 81 81 81
30 28 30 26 21 21 14 16 17 16 17 13 14 17 17 26 32 33 32 34 35 37 39 41 49 58 62 68 88 84 81 79 74 75 82 84 80 82 82 83 80 76 76 78 82 78 78 73 65
35 40 36 30 23 20 15 18 18 15 16 15 14 15 20 24 31 35 37 39 38 40 40 39 39 44 56 57 70 84 85 81 81 80 83 76 48 52 61 83 84 80 80 81 72 62 54 56 60
41 40 31 19 17 20 19 22 19 22 20 17 18 16 19 23 27 34 36 38 39 42 41 40 40 43 56 56 62 56 55 56 52 52 57 45 43 43 48 72 86 80 82 72 60 48 44 52 32
37 40 24 21 28 27 26 22 20 24 27 18 18 17 18 20 23 27 28 28 34 36 40 42 45 44 51 53 62 49 48 50 48 48 49 42 42 47 51 56 59 67 81 50 50 41 33 30 25
39 30 28 27 28 35 34 25 24 25 24 17 17 17 19 22 21 20 24 24 26 34 38 43 46 53 52 53 56 51 44 46 49 49 47 45 46 53 47 46 56 57 47 44 39 34 28 22 18
42 36 25 28 33 34 33 35 32 31 26 21 21 22 25 23 21 20 19 20 24 31 36 41 47 64 60 55 55 50 43 47 46 48 49 44 45 52 46 48 45 41 36 33 31 26 20 17 17
35 38 36 34 35 34 39 35 31 28 24 24 24 24 24 24 23 21 20 20 22 27 34 37 44 52 62 62 60 53 45 44 45 58 50 42 44 53 50 46 41 36 31 25 20 20 20 19 17
44 50 40 35 33 36 33 41 38 28 24 24 22 21 22 21 20 21 20 20 19 20 26 32 41 46 56 72 67 56 52 44 53 61 48 46 52 51 47 41 37 31 24 20 21 20 20 20 17
49 43 47 30 33 30 34 42 24 22 24 26 23 20 20 18 18 18 18 19 19 19 19 24 32 43 52 71 70 67 52 47 63 57 54 55 51 48 43 38 32 25 24 24 23 21 23 23 22
42 43 39 35 28 33 38 40 25 26 25 25 25 22 22 21 18 17 17 18 18 18 20 21 24 34 46 65 65 66 60 64 62 56 57 56 49 42 36 35 29 24 25 24 20 23 24 26 26
40 46 38 35 27 36 38 36 27 24 26 28 26 23 23 22 21 19 17 16 17 18 20 20 25 28 36 50 61 74 72 73 67 61 60 51 42 36 35 29 26 25 26 24 24 24 25 26 26
41 41 38 31 28 38 37 33 27 23 23 25 24 23 23 22 19 20 22 20 18 19 22 23 24 31 33 45 69 82 83 78 64 57 52 44 37 36 35 28 26 25 26 25 23 25 27 29 26
45 47 45 35 30 36 37 36 29 25 24 22 23 22 22 20 19 20 20 24 23 23 25 25 27 32 38 52 68 78 72 66 57 49 44 35 35 36 35 30 29 27 29 28 28 32 29 30 28
47 50 45 42 36 37 41 40 27 20 20 19 19 20 20 20 19 18 19 21 27 26 27 26 30 37 44 61 66 73 65 55 54 46 42 39 35 35 34 30 28 31 33 35 34 32 31 34 31
53 36 39 45 51 51 38 45 24 16 16 17 18 17 17 17 17 18 17 19 23 28 32 30 34 40 46 57 65 68 62 60 54 45 38 36 33 35 30 28 29 29 30 32 30 25 29 33 33
50 46 47 49 54 56 43 57 31 16 16 15 15 18 18 18 17 16 18 21 20 25 37 40 39 46 50 58 60 60 56 56 46 38 35 33 33 34 31 26 30 29 29 29 30 30 28 28 29
46 50 52 53 64 85 45 39 33 20 13 15 14 16 17 16 16 19 19 19 22 29 39 47 47 51 53 60 57 55 58 48 44 39 38 35 34 33 27 27 29 28 29 31 32 33 32 30 29
54 67 76 83 92 66 24 31 29 18 15 15 17 16 15 16 19 20 20 22 27 31 38 51 54 54 55 59 54 54 57 52 45 38 37 34 32 32 29 28 26 27 30 31 30 32 31 29 32
61 60 62 57 41 35 26 36 25 17 14 16 15 17 17 19 25 30 30 22 28 36 41 49 55 55 58 58 57 54 48 48 41 36 33 31 30 28 28 26 24 24 25 26 27 30 32 30 33
62 83 49 69 49 63 38 28 20 17 17 16 18 19 18 23 28 29 31 28 24 32 37 50 53 56 57 60 56 48 47 40 38 33 30 29 28 26 25 24 24 23 24 24 25 27 26 28 31
53 45 82 89 83 57 32 28 28 20 19 17 18 19 19 25 26 29 32 32 27 33 39 47 50 54 57 55 46 43 42 36 34 31 30 29 26 24 25 24 24 24 23 23 24 26 25 26 30
67 75 84 60 71 75 61 37 20 21 21 22 18 19 25 26 32 34 36 34 30 36 42 46 49 54 57 48 42 43 44 39 32 32 28 27 23 23 23 23 23 22 22 22 23 23 25 28 30
41 55 54 88 70 76 74 61 24 22 21 21 22 28 23 22 32 36 40 38 36 43 47 48 51 53 50 43 40 42 38 33 33 28 25 22 22 21 22 22 22 22 23 22 21 23 24 28 32

GFSSGP_sfc_rhum_018.txt.gz
RH
59 34 28 40 53 45 43 31 24 25 23 18 19 21 22 22 32 64 53 45 54 68 74 75 80 78 75 72 71 70 65 67 71 71 72 72 69 68 61 60 60 59 59 61 63 64 64 65 66
49 32 36 44 52 50 36 24 24 22 19 19 19 19 20 25 37 46 54 44 51 64 70 73 82 80 75 74 72 68 64 67 64 60 62 60 59 60 60 61 62 60 61 62 65 66 66 66 67
48 31 46 48 47 44 38 23 22 19 18 21 21 18 20 35 33 44 49 42 47 60 60 72 84 81 78 75 74 67 65 67 67 63 62 62 59 59 58 60 66 64 64 65 68 69 70 70 69
35 39 36 42 39 31 27 20 19 20 20 19 20 24 24 30 36 41 41 40 46 54 62 85 85 82 82 78 74 72 63 65 63 67 66 64 60 60 60 63 70 68 67 67 70 70 71 72 71
38 42 46 43 36 27 21 17 19 26 21 22 21 23 34 37 37 39 43 38 46 60 76 82 85 84 84 78 75 72 66 63 64 66 69 70 69 68 59 69 72 70 69 69 71 73 74 73 74
47 40 47 45 35 25 20 16 20 22 20 18 22 22 36 36 39 43 42 43 43 70 66 76 84 86 85 82 80 76 69 66 66 66 65 71 68 71 69 72 72 72 72 72 75 75 76 80 80
50 46 45 37 32 25 19 16 24 25 22 20 19 24 35 43 44 43 43 39 43 54 68 74 78 83 87 85 84 79 74 72 71 72 71 76 79 78 74 74 74 76 73 76 82 80 79 78 76
43 46 47 37 34 30 20 17 20 25 23 18 20 26 38 49 45 43 43 44 45 51 67 70 75 80 85 89 88 85 82 79 77 77 86 84 84 86 82 84 82 76 78 81 79 77 73 67 60
39 57 53 43 34 29 19 21 22 21 23 19 21 22 31 38 41 47 50 52 50 50 54 64 72 75 72 80 85 87 86 83 81 86 86 85 78 83 84 86 85 83 81 78 69 59 54 61 67
52 65 54 33 27 27 27 22 25 28 24 24 22 20 26 30 42 51 53 55 54 55 54 52 60 69 64 64 85 85 79 82 81 81 88 81 68 76 69 86 89 84 82 75 61 50 56 59 48
48 55 36 28 23 28 36 34 26 28 34 28 23 22 25 26 34 39 44 48 50 52 54 53 56 56 64 64 75 71 71 73 67 67 74 67 66 74 79 91 91 95 85 74 63 58 44 38 32
46 37 35 34 29 34 40 34 34 31 30 25 24 24 26 29 29 33 35 35 45 50 53 54 57 60 64 62 68 65 64 66 65 68 64 61 72 71 72 77 76 80 80 58 52 48 35 28 24
42 37 30 29 32 34 35 41 42 38 31 27 26 26 29 33 31 29 28 29 33 48 52 55 59 68 64 74 68 65 56 65 68 67 63 62 72 76 70 72 67 61 52 49 43 33 30 29 26
41 40 39 37 34 36 39 40 40 36 30 30 30 30 30 31 32 31 30 29 30 38 47 54 58 70 77 70 71 64 62 62 65 66 61 60 67 73 67 63 61 51 44 35 32 30 33 32 28
45 58 49 44 40 42 40 47 45 35 32 31 29 29 28 28 29 30 29 30 28 30 42 48 55 69 74 65 76 64 70 55 69 64 60 58 64 55 64 59 56 45 34 32 34 31 34 34 30
59 57 69 37 37 37 41 55 36 29 33 34 31 28 26 26 26 24 24 26 28 29 35 42 44 58 71 67 70 73 66 71 69 70 63 61 56 55 57 54 50 39 38 38 36 36 39 40 39
56 64 56 45 37 37 41 52 36 30 31 34 34 31 28 26 24 23 23 24 25 28 28 39 47 54 62 73 74 72 81 74 84 68 71 65 58 58 56 53 43 38 40 38 33 39 40 41 40
58 58 48 47 40 42 46 47 36 31 30 34 35 36 34 31 28 26 22 22 24 25 28 30 39 53 60 77 79 88 82 81 75 67 69 61 54 46 46 40 39 40 41 39 38 39 40 41 40
47 52 53 41 32 40 41 38 34 30 30 29 30 30 30 29 25 26 28 28 30 24 28 32 37 40 52 78 83 85 85 87 85 77 63 55 45 45 45 39 40 42 41 37 34 39 40 44 43
52 58 57 43 35 40 44 45 38 33 30 28 27 26 26 27 27 26 26 31 31 33 29 34 36 38 40 60 71 85 89 82 72 66 58 54 47 47 36 36 43 41 44 42 41 43 46 45 42
57 59 56 51 43 42 45 48 40 30 30 28 27 24 24 25 26 24 25 27 36 31 37 39 37 41 42 56 87 80 77 63 63 54 57 53 44 41 35 36 42 47 52 52 46 44 42 49 44
63 44 45 47 61 73 48 77 42 29 24 26 26 28 25 24 24 24 23 24 29 34 32 40 40 43 49 80 85 80 81 77 65 60 71 51 42 42 34 36 39 47 51 46 42 38 42 47 46
55 51 52 56 67 76 64 80 51 29 28 21 23 24 26 27 26 25 25 23 23 27 40 37 42 48 60 79 83 83 79 68 58 57 57 46 37 36 34 35 38 45 48 39 41 42 40 42 46
48 52 60 64 74 98 70 57 43 32 26 22 23 21 22 23 25 28 29 30 32 30 40 55 44 56 67 77 79 78 73 65 56 56 53 42 37 37 40 35 39 44 45 44 46 44 42 42 42
56 70 96 97 97 90 42 50 37 25 23 22 25 24 21 21 28 32 42 43 37 36 41 61 50 62 71 75 76 70 68 57 58 55 49 37 36 38 37 39 42 46 47 46 46 46 44 42 45
65 67 92 82 87 73 44 63 40 24 22 20 20 21 22 23 26 41 44 45 46 41 46 60 62 73 72 76 75 66 58 56 57 55 47 37 34 34 33 34 41 40 39 40 42 46 46 41 46
70 86 62 82 68 91 61 41 28 23 22 21 21 20 24 26 33 41 46 45 47 46 50 63 68 71 72 77 66 64 57 57 55 59 37 33 33 31 30 32 37 36 36 36 36 43 40 39 42
60 52 87 92 97 84 55 44 42 31 27 24 28 24 26 26 35 39 44 47 47 45 48 63 68 69 73 69 62 54 53 53 48 38 33 32 30 30 30 33 36 35 33 32 34 38 34 35 43
72 76 78 76 87 95 83 55 40 33 32 30 31 30 35 40 43 46 47 51 50 46 51 62 70 78 69 53 52 50 49 40 34 32 30 29 27 28 29 34 34 33 32 30 32 32 32 36 40
55 65 64 88 84 83 90 70 32 32 33 31 28 27 29 38 37 43 49 54 54 52 57 66 59 73 53 48 47 43 41 36 34 31 29 27 27 27 28 33 32 31 30 29 28 30 32 35 41

GFSSGP_sfc_rhum_021.txt.gz
RH
67 55 51 43 53 58 58 44 39 23 24 29 25 23 27 28 34 61 66 73 84 86 79 77 80 79 75 73 71 69 67 68 68 71 76 73 70 64 62 61 59 59 61 63 65 66 67 67 66
71 53 45 49 61 66 57 38 33 24 25 23 20 22 24 51 52 60 64 78 78 80 79 77 82 80 75 73 71 67 72 67 69 71 70 67 66 62 61 62 60 61 62 64 65 65 66 66 66
66 51 50 57 62 61 55 35 27 28 22 22 25 24 26 50 55 56 59 70 77 80 77 77 83 81 76 74 70 68 70 65 67 68 67 63 61 62 63 66 63 64 66 68 70 70 70 70 68
56 50 49 52 55 46 37 32 24 25 22 20 25 26 38 45 46 53 53 70 77 77 80 85 84 82 81 79 72 69 69 65 66 67 68 65 62 61 64 70 69 69 70 70 71 72 72 72 72
56 58 64 60 47 39 33 28 22 29 25 25 27 29 50 49 53 51 51 64 72 75 83 84 85 84 82 81 78 71 70 66 69 70 68 66 64 64 66 72 71 70 71 71 74 74 74 76 76
58 56 69 66 55 39 32 25 23 25 28 25 27 27 47 49 54 52 48 65 72 81 81 82 85 86 84 82 80 75 72 71 69 71 72 70 71 68 71 73 73 74 71 75 76 76 79 80 79
62 64 64 59 47 40 31 24 28 26 25 26 24 28 66 68 54 50 49 74 73 76 81 84 84 86 86 84 81 78 75 74 74 74 76 75 82 77 74 74 75 74 74 79 81 80 78 76 72
57 64 70 60 47 44 28 26 23 26 26 23 23 30 74 60 52 51 52 67 75 79 80 89 91 87 88 87 86 82 79 80 79 80 86 83 87 83 81 84 83 76 79 81 79 77 72 66 57
52 74 76 61 51 41 28 32 24 26 26 24 26 30 45 49 51 55 62 60 79 80 82 84 92 93 95 95 88 87 85 83 83 87 88 86 95 92 90 89 86 84 82 78 72 65 61 64 67
59 78 68 48 42 37 34 42 39 30 29 31 29 35 41 45 54 56 63 64 64 83 81 81 86 87 88 78 94 95 88 93 93 93 92 91 86 93 85 90 90 86 85 78 65 56 56 55 51
58 72 54 47 36 36 42 41 38 39 39 30 27 27 38 43 49 58 60 61 62 61 75 77 81 82 81 80 92 95 95 93 91 90 92 88 79 88 91 98 96 97 88 85 68 58 44 37 33
62 50 44 42 39 39 44 42 47 46 38 35 32 31 29 34 45 49 56 58 62 60 58 65 75 78 75 81 77 82 82 82 84 83 82 77 83 88 94 98 97 97 94 82 69 53 32 29 26
52 48 40 39 40 39 37 46 48 46 39 37 34 34 39 32 34 35 39 39 53 59 58 60 65 68 72 78 70 73 75 75 70 73 74 65 76 79 84 89 91 82 62 53 39 35 33 32 27
46 48 48 45 46 45 44 46 47 45 37 37 34 34 38 36 34 35 36 34 38 53 58 58 64 68 71 75 74 67 68 70 71 71 68 64 72 80 79 73 66 53 41 36 34 33 36 35 32
54 63 59 55 51 51 43 54 54 43 42 42 42 38 33 35 34 35 35 36 34 41 56 59 62 72 75 79 72 61 73 60 64 64 59 63 72 72 67 63 54 43 37 35 32 37 37 38 34
64 68 87 56 48 49 48 64 46 40 44 43 39 37 36 32 33 33 32 32 34 34 53 58 56 69 79 76 77 69 73 72 70 60 59 58 66 63 62 59 47 42 42 38 37 40 42 42 40
75 86 77 62 41 46 52 61 43 38 38 41 41 39 36 32 30 32 31 28 25 34 35 56 62 74 74 78 78 70 78 76 75 74 66 59 55 54 56 54 47 41 41 40 36 43 42 42 41
75 81 61 59 46 45 50 55 46 40 38 41 40 44 43 38 33 27 26 29 29 27 35 46 60 72 75 74 73 79 88 88 80 68 70 63 56 54 54 47 43 42 42 42 43 42 46 43 43
68 66 68 57 42 47 47 49 42 36 38 36 34 38 34 36 34 32 31 32 30 30 32 37 58 67 78 86 90 86 84 92 89 76 65 62 53 48 43 44 42 44 43 41 37 43 41 45 46
64 67 72 55 43 47 50 48 41 38 36 34 33 35 38 37 34 31 30 33 34 35 34 35 47 62 72 83 84 85 93 96 82 74 61 53 46 47 41 40 43 42 44 44 43 46 49 48 46
70 72 69 64 53 52 54 58 46 39 36 32 32 29 32 31 32 31 31 30 32 38 39 38 42 46 74 82 90 97 91 87 82 68 62 57 48 44 42 42 40 39 51 52 45 46 46 50 47
76 54 56 59 69 81 59 88 64 41 34 31 37 34 31 30 27 26 28 31 30 34 43 42 44 48 47 83 89 91 89 91 88 76 77 54 44 42 41 41 42 42 52 48 46 42 47 52 47
65 56 59 64 75 82 78 85 68 50 39 30 27 31 34 34 32 30 30 30 27 30 37 44 46 49 53 87 87 90 89 88 82 80 64 44 40 40 41 42 45 41 44 44 43 43 43 46 50
51 61 64 71 82 97 77 68 62 43 33 29 24 25 26 28 29 30 32 38 39 39 37 49 48 51 80 89 87 89 90 74 78 76 63 44 41 41 40 38 42 40 38 45 50 47 43 46 46
64 76 97 94 96 91 61 73 54 32 26 24 24 23 22 26 26 32 49 45 49 50 48 46 58 53 88 92 89 87 82 69 78 73 64 46 45 50 40 38 39 44 43 51 51 50 45 45 48
78 72 93 93 96 85 54 71 48 31 26 25 23 24 23 23 26 37 42 48 53 53 51 52 56 61 89 91 90 83 72 79 77 68 52 47 41 40 42 39 38 40 41 48 48 52 52 46 51
77 88 67 86 84 95 74 53 35 28 27 26 27 30 30 27 28 42 47 50 52 53 54 54 60 69 89 90 89 82 68 75 71 66 49 40 39 42 37 35 38 36 38 44 45 48 40 42 48
65 61 89 94 100 96 74 62 47 36 35 36 34 34 42 39 37 48 50 52 55 57 58 56 58 73 87 92 83 72 70 70 63 51 42 43 40 34 37 35 34 35 35 40 43 42 40 39 46
78 89 81 80 93 98 99 72 41 40 41 41 39 36 39 41 42 51 51 56 56 57 62 60 80 82 94 84 69 74 66 57 48 45 43 44 36 35 35 36 37 36 35 37 40 40 39 38 41
66 74 72 89 83 93 96 71 34 34 40 38 34 34 33 41 45 45 49 58 61 60 63 66 73 94 82 69 64 64 54 48 45 40 37 34 36 36 35 35 33 31 36 33 34 33 36 38 41

GFSSGP_sfc_rhum_024.txt.gz
RH
67 62 59 44 49 61 65 52 49 33 26 28 26 23 28 39 34 50 77 89 88 90 82 79 81 79 76 73 71 72 72 76 78 76 73 71 69 66 62 59 59 61 63 65 68 69 69 68 66
75 51 46 54 62 69 60 48 38 32 25 26 24 25 28 62 59 81 90 88 84 84 82 79 82 78 74 72 70 70 71 70 72 77 75 71 65 62 59 59 60 62 63 64 66 67 67 67 67
65 54 51 58 67 66 58 44 36 25 24 26 27 26 36 53 63 73 88 85 82 85 80 80 83 80 74 73 69 74 71 73 75 73 72 68 65 62 64 60 63 65 67 68 68 68 68 68 68
56 54 56 62 66 54 45 39 33 27 22 25 29 30 45 52 60 62 84 83 88 89 85 85 84 82 80 76 74 72 66 66 68 70 69 66 64 64 68 65 67 69 71 70 71 72 72 72 72
61 62 68 71 59 48 42 35 32 29 25 27 29 32 63 56 60 77 85 83 88 91 88 85 84 81 79 77 77 75 69 67 68 67 64 64 63 65 70 70 70 71 71 72 74 74 75 77 77
65 63 79 72 61 45 38 33 32 27 26 27 29 30 63 63 60 77 82 85 80 88 87 84 85 84 84 80 77 78 74 70 70 71 68 66 66 67 72 72 72 72 71 75 74 76 79 79 78
67 67 73 68 59 50 38 32 32 28 27 24 22 34 71 71 59 61 81 78 80 83 85 86 86 86 86 85 79 77 77 76 78 78 77 77 78 73 74 74 75 71 75 78 79 79 78 75 68
60 66 74 58 48 49 36 31 25 28 27 26 23 58 75 61 56 61 86 87 87 88 86 90 90 88 89 89 86 82 79 80 79 83 84 83 88 83 80 82 82 75 80 80 79 77 72 64 54
57 80 83 64 55 48 38 42 34 27 30 29 29 42 54 54 58 64 93 93 89 87 92 95 96 95 96 95 88 86 85 86 85 88 86 91 95 91 90 91 87 84 83 79 75 68 61 64 64
67 85 72 54 49 50 37 46 42 33 31 32 34 50 55 58 63 65 84 96 96 94 95 93 96 96 96 83 94 95 89 94 94 95 93 92 96 96 90 94 89 87 86 81 67 57 58 52 48
66 77 56 52 48 43 45 42 46 45 39 36 35 53 52 59 67 64 66 86 94 91 88 88 93 94 93 86 97 98 98 98 96 95 96 94 89 97 98 98 98 98 91 91 70 60 47 36 34
73 55 48 50 44 48 48 44 53 46 40 38 46 36 34 43 41 63 62 65 77 90 86 85 88 91 91 89 93 93 94 95 96 94 95 96 94 98 98 99 98 98 96 87 78 53 32 29 28
64 58 47 45 47 46 42 46 47 50 42 40 40 37 36 37 37 45 54 62 65 74 84 84 86 88 86 94 89 88 88 88 87 90 90 84 91 92 97 98 98 98 95 65 44 36 34 32 28
54 48 49 52 51 51 50 50 49 46 42 41 39 39 41 38 36 42 39 39 46 63 67 78 83 83 81 87 84 82 81 82 80 80 84 74 77 85 91 96 96 73 58 41 37 36 36 36 35
57 64 61 56 54 55 49 52 58 43 42 45 46 46 41 39 36 37 36 37 39 50 57 69 79 77 77 83 81 81 80 76 77 74 79 67 71 79 84 84 71 51 40 36 37 39 40 39 35
65 70 82 56 52 49 51 60 51 45 52 50 47 47 46 38 37 34 34 34 38 39 60 62 66 73 77 80 84 76 75 73 75 73 71 63 74 73 72 62 52 44 41 38 40 43 43 43 39
75 86 83 68 51 50 59 68 46 39 44 48 47 44 42 40 39 38 33 34 30 38 39 66 70 77 76 82 86 77 80 74 74 71 66 60 72 65 61 51 48 44 42 41 38 45 42 41 40
78 88 75 67 49 48 52 64 51 46 46 46 44 43 46 44 38 34 35 36 31 32 39 55 67 71 80 85 89 96 90 84 76 69 64 64 66 62 55 49 44 42 44 44 44 43 46 44 44
60 62 74 63 48 52 51 52 46 41 42 41 36 38 38 36 34 39 37 37 35 35 37 45 65 67 84 94 95 94 84 87 94 72 70 63 60 55 47 45 42 43 41 44 41 47 41 46 47
75 82 80 62 52 52 54 53 43 40 38 37 34 31 33 34 37 36 36 36 36 35 36 39 56 64 82 84 83 89 88 93 90 93 72 64 58 53 42 38 42 42 45 43 44 46 51 48 48
76 76 77 71 59 58 59 43 43 40 38 33 31 32 31 31 31 32 34 33 36 37 38 40 43 63 78 82 91 99 96 97 94 89 71 62 54 47 41 38 42 44 49 50 48 49 48 51 47
80 60 60 63 70 84 63 81 68 49 39 34 35 43 40 36 36 31 33 34 34 34 36 40 44 54 76 88 93 89 87 94 96 86 93 81 51 43 40 39 37 43 54 44 48 47 52 53 48
69 57 60 67 79 82 81 89 68 57 46 37 33 29 38 41 39 37 36 33 32 34 37 42 45 53 64 92 90 90 81 84 96 96 90 82 72 46 40 38 39 45 52 43 40 46 50 50 54
56 61 70 80 82 94 75 79 64 47 38 32 27 25 26 28 33 34 32 35 37 46 46 44 46 51 62 91 93 90 88 93 93 91 86 80 68 58 49 40 41 44 42 40 43 44 44 49 50
61 72 90 88 98 85 70 82 70 44 35 33 29 25 28 26 28 29 37 47 50 52 54 52 51 52 64 91 94 91 94 86 88 85 79 70 64 60 55 46 46 48 48 51 50 46 44 47 50
74 69 84 76 96 89 67 80 50 39 35 30 30 32 32 32 29 30 40 49 52 50 49 47 51 56 64 94 94 94 90 86 87 82 76 66 57 65 62 51 45 46 45 43 45 49 50 49 54
79 89 70 86 87 96 81 62 38 34 34 38 37 36 45 47 44 36 34 54 55 54 50 53 55 56 66 93 95 96 85 90 88 83 73 66 62 56 50 45 48 50 49 45 42 47 44 48 53
67 64 89 94 97 94 80 72 50 39 42 40 38 38 38 41 43 44 52 56 57 56 57 62 62 63 67 92 95 93 86 88 87 81 72 64 54 48 43 47 49 49 47 42 42 41 40 45 52
82 91 85 83 91 98 94 74 47 40 45 43 45 42 49 53 54 45 50 54 61 57 56 56 65 72 85 97 96 90 91 86 84 76 67 56 47 41 44 45 48 48 44 40 38 39 38 42 46
71 77 78 93 82 96 95 82 43 47 46 43 38 41 52 60 58 53 45 56 61 63 62 64 70 79 95 94 87 87 86 82 78 69 59 46 42 42 44 43 44 48 44 41 40 38 36 42 45

GFSSGP_sfc_rhum_027.txt.gz
RH
70 63 60 47 52 64 69 54 62 39 32 31 28 27 29 36 36 47 83 91 90 92 84 77 76 74 76 76 77 80 81 80 79 76 74 71 68 65 62 60 61 62 62 65 68 69 68 68 66
77 53 47 57 61 70 58 55 43 36 30 27 28 29 44 63 65 93 95 93 87 87 84 82 77 75 76 74 73 75 78 80 79 75 73 71 67 62 60 59 62 63 65 68 68 69 69 68 68
64 52 50 58 72 66 53 48 36 31 28 29 28 30 38 51 68 88 87 90 86 88 84 83 83 79 74 72 71 70 71 72 79 76 75 68 65 61 60 61 63 65 66 66 66 67 67 68 69
56 58 56 64 70 57 48 42 40 33 27 26 30 36 52 65 64 72 93 88 91 94 90 86 84 79 78 73 73 74 74 74 78 78 73 68 65 64 62 64 67 69 70 69 69 70 71 71 72
62 65 74 78 60 57 50 39 37 34 32 27 27 34 60 63 76 95 94 88 95 96 94 87 84 79 76 75 79 73 70 72 71 69 68 67 65 67 66 67 70 72 72 72 72 72 75 77 77
70 67 82 76 56 52 46 38 35 34 31 26 30 43 65 71 95 96 91 94 89 94 91 87 84 83 80 78 80 77 73 70 70 72 68 66 66 69 70 71 71 71 72 74 74 76 78 78 75
72 76 81 68 53 52 44 39 40 34 32 28 29 42 70 75 83 94 95 94 91 90 93 92 89 87 85 82 82 78 76 75 75 75 74 74 74 74 74 74 73 71 74 75 76 79 78 73 59
65 64 74 67 58 46 42 32 31 30 29 26 30 66 74 64 75 91 91 95 96 95 94 96 96 93 95 92 84 84 81 81 81 82 83 83 84 81 79 82 81 73 78 81 80 77 72 61 52
62 82 86 61 53 46 44 46 39 35 32 29 31 57 55 61 81 94 97 98 97 94 96 96 97 96 96 96 89 86 85 85 86 89 87 88 95 92 89 91 87 83 83 80 78 72 63 62 65
69 88 75 56 53 54 46 49 48 40 39 34 37 55 66 65 80 96 98 93 91 90 95 87 89 97 97 86 94 95 90 95 95 95 92 97 97 96 91 94 90 88 87 83 71 61 58 48 40
69 78 60 56 52 50 50 46 49 50 45 40 40 46 54 77 76 90 94 94 91 92 86 84 88 96 96 90 98 99 99 98 97 95 95 95 96 98 98 99 98 98 93 94 70 56 45 34 34
72 60 54 53 48 50 52 45 54 48 43 40 45 42 38 53 66 74 87 95 96 96 93 89 90 95 96 92 96 96 96 98 99 98 96 97 99 99 99 99 98 98 98 89 77 51 33 30 28
67 63 52 49 48 53 48 49 50 53 44 45 44 40 41 40 40 45 68 77 94 96 93 93 95 95 95 96 96 95 94 96 95 98 97 97 97 99 99 98 99 98 97 81 60 37 35 31 30
56 54 50 51 49 53 52 54 53 52 45 44 44 43 42 42 39 43 50 62 76 89 92 89 92 93 92 94 96 93 91 92 94 95 94 94 91 97 98 98 98 98 94 53 42 38 36 37 35
60 66 66 59 55 56 54 55 63 46 44 45 45 47 45 42 40 39 38 40 47 63 72 89 90 90 92 92 95 89 88 84 85 85 90 87 85 95 95 97 98 84 57 39 40 39 40 40 36
69 72 82 60 53 52 51 60 48 47 55 51 50 48 50 47 43 39 36 38 41 43 62 74 81 88 90 88 93 85 87 86 80 76 80 81 78 85 94 95 90 52 43 42 43 43 43 42 38
80 90 85 68 54 55 61 74 50 44 45 49 47 47 47 44 43 44 38 36 38 42 43 74 76 87 88 88 93 88 90 87 82 75 78 79 76 80 82 80 65 46 44 43 41 46 41 40 40
85 84 82 74 55 58 58 64 51 47 52 54 54 50 46 42 39 39 42 40 35 39 42 65 73 78 87 89 94 94 93 86 89 79 77 76 75 74 69 61 48 44 46 44 43 42 47 43 43
66 77 79 65 53 56 57 58 48 42 46 47 46 42 40 36 31 36 39 40 40 40 44 46 79 74 87 95 98 97 96 91 92 83 76 72 70 66 60 50 39 38 37 43 40 44 39 45 49
70 81 85 67 58 58 59 58 46 40 38 36 36 34 33 36 36 36 36 39 40 38 39 43 56 73 84 88 88 92 90 91 90 91 86 73 70 62 52 45 38 37 42 44 45 48 51 48 48
79 80 80 74 63 62 63 56 48 39 39 38 35 34 32 34 33 32 38 36 37 40 39 38 43 61 82 84 93 99 98 98 99 98 93 77 67 60 51 43 40 37 41 45 47 50 48 50 48
83 63 62 66 73 85 66 84 68 46 46 43 39 38 42 40 38 37 35 38 37 36 38 38 40 46 73 88 94 94 85 92 92 95 92 88 77 67 51 44 40 37 42 45 45 48 55 52 48
66 59 64 70 80 82 80 88 67 50 42 34 32 29 31 36 42 42 41 39 36 36 38 38 40 49 57 91 91 95 83 73 90 98 95 90 91 76 59 52 44 39 42 44 44 51 54 52 55
56 63 71 85 82 92 78 80 61 44 41 36 36 34 31 32 30 33 36 38 38 41 44 44 42 44 58 90 95 96 93 96 98 98 97 93 84 78 70 62 58 47 51 51 51 47 46 48 54
62 73 86 78 93 81 76 83 60 48 44 40 36 34 40 44 41 38 37 34 50 53 54 52 51 50 57 73 96 96 95 95 93 94 94 91 79 74 67 65 68 64 60 57 50 47 44 44 50
76 70 82 63 90 86 72 83 49 46 43 38 40 44 45 46 50 48 46 46 45 53 59 54 52 52 60 81 90 96 96 96 93 93 91 85 77 71 70 69 66 66 60 53 49 52 53 45 49
81 89 72 86 89 95 79 62 40 37 40 40 40 40 42 44 49 51 50 54 60 62 60 57 55 54 57 73 94 96 98 97 95 92 89 84 80 73 70 68 62 59 55 54 53 54 50 44 51
70 66 88 94 78 88 77 79 56 44 41 42 43 48 46 45 56 56 57 51 53 56 62 62 61 63 64 72 93 96 99 95 95 95 89 77 75 69 65 62 61 56 56 52 50 48 42 46 50
82 91 87 82 88 92 96 65 54 46 48 48 49 41 45 59 62 58 63 57 55 58 63 66 67 71 77 84 92 99 97 96 95 89 81 73 72 68 64 60 57 51 51 45 48 54 49 50 48
74 79 82 88 83 98 96 80 49 50 50 48 41 49 55 66 64 60 71 70 74 78 73 84 86 91 89 90 97 98 97 96 95 91 79 71 68 63 60 54 48 48 49 52 51 49 51 52 51

GFSSGP_sfc_rhum_030.txt.gz
RH
71 63 57 47 53 66 71 52 65 46 40 32 32 31 31 36 44 50 88 94 95 92 88 77 81 80 80 79 82 83 82 82 79 74 71 67 68 66 62 61 61 61 62 75 74 71 69 68 65
75 53 48 61 60 67 56 58 46 40 35 31 29 33 48 67 73 96 96 94 89 90 86 76 77 79 76 78 80 82 81 81 78 76 73 70 67 61 60 62 63 62 66 75 72 70 70 70 67
62 49 50 60 74 66 52 48 44 36 35 33 31 34 43 54 75 89 89 95 89 92 86 76 79 78 76 77 77 79 80 80 79 77 74 70 64 60 61 63 65 67 68 69 69 69 68 69 70
59 57 57 66 70 59 46 55 43 38 32 29 32 47 56 68 72 82 96 92 95 96 93 83 81 81 79 76 73 73 73 76 79 77 72 68 64 61 63 66 68 70 69 68 68 70 71 72 72
62 64 74 79 64 58 54 46 42 38 36 33 33 33 59 70 86 98 95 91 91 98 95 90 83 79 76 75 78 77 71 73 79 77 71 68 66 63 64 68 71 73 72 72 72 74 76 78 77
69 67 79 76 64 55 49 43 39 38 37 31 34 57 63 85 97 91 88 89 90 96 96 89 83 82 80 80 80 78 76 76 74 75 72 69 67 68 68 70 72 72 73 75 74 76 78 77 69
71 79 80 73 54 51 44 42 43 41 38 31 30 50 60 79 95 87 94 97 96 96 96 96 93 88 84 83 82 78 77 76 76 76 75 74 75 74 71 71 72 72 75 75 76 79 77 64 54
72 69 79 72 56 52 42 38 35 32 33 30 33 44 54 77 98 94 98 98 98 98 96 97 97 96 94 93 87 84 81 80 79 80 80 81 82 82 78 81 80 73 76 78 81 78 68 55 55
64 82 84 58 56 48 46 46 42 40 39 33 32 48 55 86 97 98 97 97 96 94 97 98 98 98 97 94 90 87 85 84 84 86 88 89 93 89 89 91 86 82 82 80 78 72 62 64 62
72 87 75 53 48 47 52 52 51 48 46 42 36 64 75 96 98 93 92 93 91 89 92 89 87 98 98 88 90 94 92 95 95 95 93 94 95 96 92 93 89 86 87 84 74 62 57 48 36
72 76 61 57 50 50 54 58 50 55 50 43 46 45 53 87 98 95 89 86 85 82 81 79 78 88 98 95 98 98 99 98 98 96 95 95 98 98 98 99 98 98 94 95 69 52 41 34 34
75 63 57 55 51 50 54 50 55 52 45 42 49 50 44 56 80 92 98 96 87 83 82 78 78 83 95 96 98 98 97 98 98 97 96 97 99 99 99 99 99 98 98 91 71 46 33 30 29
69 64 57 52 51 54 51 54 52 53 46 46 45 44 46 45 42 47 69 90 97 86 83 80 80 84 86 98 97 98 96 97 91 96 97 97 99 99 99 99 99 99 98 87 65 38 34 31 30
62 57 55 52 50 52 54 56 56 53 49 48 50 45 45 45 41 46 42 65 96 95 91 87 84 84 84 89 88 98 95 97 98 98 97 96 95 99 99 99 99 99 97 70 49 39 37 37 34
60 68 67 60 58 56 59 61 68 51 46 48 50 50 45 43 43 41 39 41 67 89 93 96 95 87 87 88 92 98 96 93 94 94 97 96 95 96 98 99 99 98 91 45 41 40 41 40 35
71 73 85 62 59 56 53 63 50 46 54 53 52 54 54 48 44 43 40 41 41 54 84 94 86 91 90 93 95 95 96 95 91 90 91 93 91 94 97 98 98 89 60 45 44 44 44 42 39
83 94 89 69 57 59 64 78 56 52 56 56 54 52 49 49 46 47 45 43 42 42 46 77 91 94 95 93 95 95 95 96 92 88 85 88 87 88 94 96 96 61 50 47 44 46 41 40 41
80 86 85 82 60 66 70 69 50 44 49 57 55 56 55 51 45 41 41 43 42 44 44 47 81 92 94 94 94 96 98 96 96 92 80 88 80 85 88 93 80 51 49 49 46 43 46 43 43
73 79 81 72 57 63 65 65 52 45 49 48 46 43 40 38 37 39 38 42 44 44 46 46 62 79 94 96 96 96 94 96 98 92 87 88 79 83 84 86 66 48 42 40 35 42 40 46 52
77 84 87 72 61 62 64 62 48 42 46 42 39 38 36 37 38 38 38 39 43 40 44 47 48 64 89 94 91 93 92 94 92 92 90 86 82 85 78 66 58 45 42 38 37 45 50 48 53
74 82 84 80 65 64 67 61 52 42 42 38 37 39 41 41 39 36 39 39 40 42 41 43 46 55 86 90 94 99 98 99 99 98 96 90 84 81 69 64 54 45 41 42 38 46 46 50 49
78 64 66 66 76 84 68 77 63 51 45 41 36 34 37 35 37 41 42 43 43 40 41 41 43 48 68 93 94 95 92 95 96 92 92 94 87 85 69 66 65 45 43 43 41 42 53 50 49
71 61 65 72 79 80 78 85 57 48 37 37 34 38 42 42 38 39 40 39 42 43 45 43 41 43 49 76 93 97 94 87 94 94 94 93 90 83 78 72 71 57 60 46 46 52 49 53 55
57 62 71 82 82 88 76 77 50 44 46 40 44 41 49 50 51 50 50 47 47 52 57 53 46 44 50 69 92 95 95 93 97 99 98 97 95 91 83 75 68 68 65 66 57 53 52 51 53
62 70 91 76 87 80 81 82 55 50 49 48 45 42 47 50 53 55 55 54 52 55 55 60 58 57 55 64 92 95 95 94 94 95 96 97 97 93 81 78 76 74 73 74 72 68 62 56 52
80 70 84 62 83 80 76 84 50 50 46 45 44 48 46 43 50 56 59 59 59 57 62 63 62 56 57 66 79 94 95 98 96 95 95 95 91 87 82 74 74 72 72 72 64 69 66 55 62
82 89 75 88 90 92 77 61 36 45 47 49 47 46 49 49 48 56 62 63 59 58 57 64 64 64 64 66 76 91 97 99 98 96 94 94 92 87 82 79 76 77 71 66 62 60 58 60 65
71 66 85 92 76 76 67 76 54 44 44 46 49 53 47 48 60 74 68 69 63 60 61 66 66 64 69 79 84 87 94 96 98 97 97 96 94 85 84 78 76 78 69 61 54 50 49 50 62
80 91 86 82 87 86 83 51 54 49 53 52 51 48 50 54 77 74 70 73 68 75 82 86 87 88 89 90 91 92 97 96 98 98 97 94 87 83 79 74 74 71 66 55 50 49 48 50 53
78 81 79 86 83 97 95 74 51 53 51 50 42 50 58 73 68 73 78 81 85 82 83 89 88 89 89 89 94 96 90 98 98 93 86 88 84 76 74 71 69 62 54 47 48 49 60 66 66

GFSSGP_sfc_rhum_033.txt.gz
RH
62 46 44 43 41 46 49 40 38 36 29 22 23 24 25 25 37 38 79 76 72 69 68 65 77 77 79 80 83 86 85 84 80 78 75 70 68 65 62 61 62 62 76 78 78 71 69 67 62
58 42 46 48 46 45 40 40 38 34 26 28 24 26 29 36 55 82 81 79 71 72 66 59 79 78 81 83 84 85 83 80 80 75 70 70 66 61 61 61 61 61 75 74 72 70 71 68 65
48 39 47 50 52 47 38 34 34 29 30 24 22 23 26 37 56 69 70 80 71 72 64 60 79 77 75 82 82 82 82 81 80 77 73 70 63 60 62 63 64 64 72 73 70 70 69 71 69
48 47 47 50 55 49 33 32 33 31 26 23 23 25 34 50 52 60 76 76 74 74 63 69 83 82 81 81 80 80 80 80 80 78 73 68 62 61 64 66 69 69 70 69 68 68 71 71 71
50 50 59 63 55 46 42 37 33 32 29 24 24 23 33 50 81 84 81 77 76 75 67 62 83 81 80 79 79 79 77 79 80 77 72 67 62 64 66 70 72 71 70 69 70 73 76 77 74
56 50 63 62 54 44 40 35 31 28 27 25 23 27 34 71 83 84 80 78 75 76 72 65 81 81 81 80 80 79 76 75 80 78 72 69 65 65 68 71 73 72 72 72 74 76 77 71 63
62 61 60 60 52 48 37 33 30 29 27 24 22 25 29 60 83 80 79 78 81 76 75 70 68 74 84 85 84 82 81 82 82 80 78 75 76 72 68 71 72 73 76 75 77 78 69 56 58
59 54 65 57 48 46 34 34 28 30 25 23 22 26 28 59 82 84 86 86 83 82 77 75 73 71 68 69 85 83 83 81 81 81 80 80 82 81 76 80 78 74 76 77 80 74 59 56 57
55 62 66 58 50 41 35 34 34 31 30 27 24 33 52 73 85 89 89 91 90 88 84 83 78 76 73 73 74 82 85 84 83 80 85 81 63 67 70 83 84 82 82 81 77 68 63 63 62
61 68 63 46 41 40 40 40 38 36 39 32 29 36 79 85 86 87 87 92 88 88 86 83 81 81 78 72 73 71 67 70 67 68 70 68 72 71 71 80 88 85 86 84 72 66 60 37 26
67 62 55 51 42 43 46 46 39 40 39 35 36 38 59 86 88 83 80 78 82 78 78 80 75 82 82 73 75 74 79 80 76 72 72 71 74 77 75 75 76 75 85 64 53 40 28 28 26
67 59 54 50 50 49 50 43 42 42 38 32 39 37 35 68 77 86 83 82 79 80 79 75 72 75 85 79 76 74 81 78 78 80 74 74 79 85 81 78 81 79 76 65 48 32 26 25 24
62 60 53 49 49 48 45 47 43 44 40 38 40 40 37 34 40 58 70 78 81 80 78 77 73 76 82 88 83 77 73 76 73 76 77 72 79 86 81 79 80 79 76 64 46 29 24 22 22
58 54 51 48 47 46 51 49 49 44 41 41 43 40 37 37 34 33 36 51 78 79 75 77 75 78 80 86 88 85 75 71 75 76 75 75 73 81 82 81 81 78 74 63 42 29 26 25 23
56 62 56 54 51 49 51 51 60 44 41 41 40 40 39 38 36 34 32 32 42 72 78 76 76 79 80 84 86 85 83 76 77 75 76 75 72 77 80 80 82 76 74 55 38 28 28 28 24
66 63 74 55 57 51 42 50 44 43 48 47 44 44 46 42 38 36 36 34 31 36 69 78 80 81 83 84 89 85 87 84 75 76 73 76 74 71 77 81 79 76 71 47 36 32 32 30 27
73 81 79 62 57 54 55 65 49 46 46 45 44 42 43 42 39 37 36 37 35 32 34 59 79 81 82 83 88 91 92 89 82 78 73 74 75 74 71 75 77 76 67 45 36 34 31 30 30
88 78 77 65 52 60 65 67 53 42 42 45 42 40 41 42 38 34 35 35 34 37 36 37 59 76 83 84 89 94 94 89 89 86 75 77 73 75 76 74 75 71 64 49 37 34 33 31 30
67 72 70 63 53 55 60 60 51 43 45 44 40 37 34 34 32 35 36 35 37 37 40 40 41 56 82 91 94 95 95 92 94 87 77 76 73 74 78 81 74 67 61 50 36 35 36 35 36
69 75 75 65 55 55 58 55 45 42 44 42 40 38 37 36 34 34 33 36 34 36 39 40 40 41 64 80 77 81 82 87 85 90 84 75 74 74 74 75 75 64 58 46 38 44 46 36 39
78 78 77 70 59 54 61 56 46 39 36 34 30 31 32 33 31 33 34 36 41 39 39 38 40 42 50 70 83 92 92 94 95 95 88 82 75 74 71 75 73 74 58 49 43 41 42 42 41
82 59 63 61 67 72 59 61 49 44 32 33 38 40 40 38 37 39 40 40 42 43 46 42 41 40 44 72 83 83 79 85 83 83 88 88 82 78 75 72 73 74 64 53 45 39 40 44 44
75 59 62 64 70 66 63 64 42 37 34 33 36 42 43 43 43 44 47 47 44 50 56 51 42 40 43 54 81 86 84 77 79 88 88 89 88 82 80 71 72 73 71 61 58 46 45 41 45
56 58 66 71 70 80 60 61 39 33 35 36 36 37 42 42 45 48 51 52 51 56 58 58 50 42 41 45 57 85 89 83 88 91 92 91 90 88 83 76 74 73 71 69 68 62 54 55 50
58 72 90 76 87 76 69 70 45 40 40 38 36 36 40 43 43 48 56 57 57 59 59 54 53 50 47 50 53 62 84 87 88 87 88 90 90 90 85 80 76 76 71 71 73 69 65 60 57
67 70 82 67 60 59 70 73 41 43 38 35 36 38 43 44 43 50 59 62 61 59 58 54 52 53 52 51 53 61 66 87 88 88 85 86 85 84 80 81 78 74 70 71 70 71 69 62 62
75 86 61 84 82 80 57 51 35 38 40 40 38 43 45 45 47 58 64 65 63 58 55 59 56 53 54 56 60 59 65 76 85 87 86 84 82 82 80 80 78 75 73 70 70 70 66 62 63
68 64 81 87 79 63 49 55 39 39 37 40 43 45 45 48 56 68 64 64 62 60 62 67 70 69 71 74 73 70 72 73 82 90 90 87 84 82 80 77 75 75 73 70 70 74 65 59 64
75 83 78 73 77 70 57 37 43 41 41 43 44 43 46 56 69 69 65 65 66 65 65 67 70 72 72 72 71 79 82 87 85 89 90 89 85 80 77 74 73 72 69 68 70 69 66 62 54
69 73 66 76 80 88 83 54 43 45 46 45 44 44 52 70 70 65 65 69 70 73 76 78 75 78 76 73 75 81 86 83 91 92 88 84 82 77 77 76 73 68 66 67 64 60 57 58 62

GFSSGP_sfc_rhum_036.txt.gz
RH
51 29 24 25 28 25 25 22 21 25 23 16 18 18 17 18 21 26 55 52 43 48 45 49 79 82 84 85 85 87 86 85 82 78 75 71 68 65 62 62 63 77 78 77 74 70 67 63 61
38 28 25 26 29 29 21 20 22 22 20 19 18 17 25 23 32 48 52 58 45 46 44 45 77 74 79 84 86 87 84 83 80 77 73 70 65 62 61 61 62 77 75 73 72 72 68 65 67
33 26 28 30 31 30 23 20 16 20 19 17 17 18 18 29 37 40 49 54 45 47 44 48 76 75 80 81 85 84 82 81 80 77 73 68 62 62 63 62 63 75 74 74 72 71 71 69 70
29 27 27 33 33 26 21 22 21 21 19 16 17 18 25 37 39 41 50 49 46 46 43 67 80 78 84 82 82 83 81 79 79 77 73 66 62 63 64 67 70 72 73 71 68 69 70 71 72
30 28 36 39 32 24 22 20 22 22 19 16 17 18 23 44 54 49 51 49 47 45 43 50 79 80 80 81 80 81 81 80 80 76 72 66 62 64 67 69 70 70 69 68 69 72 75 75 74
36 30 39 42 34 26 24 22 22 20 18 15 17 17 22 47 54 59 53 49 47 47 48 49 78 82 81 81 81 81 79 81 81 78 72 67 65 67 69 71 71 71 70 70 73 76 75 68 63
41 39 39 34 35 32 28 21 22 18 18 15 16 18 21 38 57 71 62 49 50 48 47 50 58 65 85 84 83 82 80 80 84 80 78 76 73 70 70 73 73 74 74 75 77 75 61 59 60
36 36 39 36 38 38 26 24 20 18 16 16 16 17 20 42 64 74 72 70 53 52 48 45 46 48 52 55 87 84 83 87 85 82 82 83 82 79 75 80 77 77 77 78 78 65 57 59 64
39 42 43 41 39 31 25 24 22 22 17 18 18 21 40 44 73 79 81 83 61 60 53 48 45 45 46 47 61 81 85 85 85 80 85 82 51 57 65 74 83 81 79 82 74 64 62 62 62
37 44 36 28 29 30 25 22 23 25 24 22 21 26 56 64 77 80 80 80 77 73 67 53 49 47 48 49 51 48 47 52 53 52 54 47 46 46 49 70 87 85 86 84 72 67 55 45 25
38 35 30 34 29 26 26 25 26 24 27 20 21 28 47 73 78 78 73 70 75 72 71 68 58 51 52 50 50 48 45 47 48 47 46 44 47 55 56 52 58 56 82 56 58 46 32 29 24
44 32 29 33 37 34 30 25 27 26 19 22 26 28 28 54 67 73 71 71 69 73 70 70 67 63 60 50 50 48 47 48 49 48 47 49 53 59 55 54 54 50 52 51 46 35 28 25 21
44 43 36 33 41 38 35 34 27 30 25 25 27 29 26 26 39 51 59 61 61 70 68 68 66 64 69 71 53 49 50 52 48 51 50 47 52 57 54 55 57 56 49 47 46 36 27 22 20
42 44 37 37 38 39 41 37 37 28 25 26 26 24 22 24 24 26 41 49 53 57 61 65 67 66 66 74 78 56 51 48 48 48 50 52 50 53 54 57 63 59 54 47 44 35 28 23 21
46 49 45 43 38 38 37 42 42 28 23 24 21 19 23 23 23 24 23 25 28 38 46 53 59 63 66 69 77 76 59 53 51 50 49 51 50 51 53 58 68 61 55 50 44 34 27 25 21
49 46 59 36 38 39 37 35 32 28 27 26 23 22 24 24 22 21 21 22 21 21 27 37 49 58 65 70 74 76 86 63 57 52 49 51 50 50 52 54 64 57 56 53 46 37 32 29 25
47 42 42 44 41 35 38 32 27 26 32 28 25 23 24 26 24 23 22 21 21 19 20 24 37 49 56 67 74 80 80 85 60 55 56 53 52 50 50 52 54 54 58 54 46 39 34 32 28
48 40 44 37 42 48 46 36 35 34 33 31 26 22 21 23 24 21 22 22 22 22 22 22 24 34 47 55 79 87 87 84 83 62 58 57 54 56 54 50 53 53 60 56 47 41 33 32 29
40 41 43 40 43 44 40 41 36 32 30 29 26 22 21 22 22 23 22 22 23 24 25 26 26 27 32 48 84 91 88 87 88 83 66 60 59 57 59 53 53 55 60 58 49 43 38 34 28
44 44 45 51 44 43 40 42 34 31 32 30 29 27 24 23 21 22 23 25 23 23 25 26 26 27 27 34 48 59 70 76 76 85 85 65 64 62 62 60 60 56 59 58 54 46 42 36 34
51 50 57 48 48 42 43 37 37 33 28 25 26 23 22 23 25 28 28 30 32 31 30 27 26 26 28 30 42 56 64 71 73 81 83 80 65 64 62 65 64 59 59 60 59 50 46 43 38
60 55 54 53 52 44 43 29 34 30 27 32 30 29 30 31 31 35 36 36 37 40 41 36 32 28 27 31 36 49 61 66 61 58 67 82 77 68 65 65 65 67 63 60 58 57 46 45 45
50 49 50 52 53 54 47 45 29 24 28 32 30 33 32 34 36 38 41 43 39 44 50 44 37 31 29 30 38 47 55 51 49 54 63 69 81 80 72 69 70 69 68 62 63 56 48 44 46
46 48 51 52 53 80 48 45 28 25 24 29 29 30 34 33 35 38 42 42 40 45 46 46 38 34 36 32 32 42 54 54 54 60 70 68 74 83 77 74 72 69 69 68 67 64 61 52 48
54 59 86 83 93 65 50 50 28 26 26 25 27 29 33 34 35 40 45 45 45 48 47 43 39 37 34 35 37 34 38 50 58 59 62 66 70 83 84 80 76 71 70 72 71 71 68 72 65
71 61 66 64 50 40 51 43 27 28 27 26 26 28 32 35 36 45 48 48 47 48 46 45 44 42 38 37 38 36 40 40 46 62 63 60 55 63 71 76 76 72 68 68 70 72 74 68 69
84 83 45 62 55 57 32 33 28 30 29 28 28 32 35 36 43 48 47 46 47 48 46 49 48 46 48 50 50 46 43 46 47 50 59 68 58 62 63 70 73 77 75 72 70 75 74 74 71
55 47 69 79 76 55 30 29 25 34 32 30 31 35 36 39 48 48 46 49 50 50 49 48 49 50 50 51 48 49 53 53 55 55 63 74 65 65 72 70 72 76 78 78 77 78 73 72 80
59 61 57 51 55 47 28 22 23 26 26 30 30 35 38 47 51 49 48 48 52 54 55 53 52 57 58 55 50 52 56 59 63 72 78 78 76 76 75 73 73 73 76 76 80 80 74 71 72
52 52 42 53 72 60 54 28 27 27 28 31 33 36 40 53 52 49 48 52 58 61 59 58 57 58 56 55 54 56 58 61 70 79 77 76 77 74 76 74 74 71 72 71 74 77 73 69 68

GFSSGP_sfc_rhum_039.txt.gz
RH
48 32 20 23 30 24 24 19 14 18 16 14 15 14 13 15 21 32 44 41 35 41 45 53 82 82 85 86 85 87 86 85 82 77 76 72 68 65 63 61 74 75 73 76 71 68 64 63 64
31 25 23 24 30 31 22 16 18 17 16 16 16 16 15 16 25 43 45 46 36 38 43 46 81 81 86 86 87 87 84 83 80 76 73 71 66 63 61 62 77 77 77 75 72 69 66 66 69
41 25 28 28 30 30 24 17 14 17 16 15 15 15 16 26 30 34 41 40 37 37 38 51 78 80 84 86 86 85 84 82 80 77 73 68 63 62 62 64 77 77 76 74 72 71 69 70 71
33 26 26 33 30 24 20 15 12 18 16 14 15 17 20 32 32 36 41 37 37 36 36 66 75 76 79 81 85 82 80 78 77 76 72 65 63 64 65 71 74 75 73 71 70 69 71 72 74
34 29 35 35 29 20 17 16 16 18 17 15 15 16 24 42 38 39 40 36 37 35 39 50 77 80 80 81 81 83 81 79 78 76 69 64 64 66 69 71 72 72 70 69 70 72 74 75 72
41 31 39 36 29 20 17 16 16 17 16 14 15 15 29 40 42 43 40 38 36 36 41 50 77 78 80 81 80 82 80 82 80 77 70 65 66 68 69 71 70 69 68 70 74 76 72 67 65
48 39 42 33 28 24 20 16 18 16 16 15 13 16 24 37 51 48 41 38 39 38 39 49 56 70 82 85 84 83 80 83 84 80 76 74 73 71 70 72 71 71 71 73 78 71 62 62 62
37 44 46 35 30 28 20 19 17 16 16 12 13 16 20 38 57 59 47 42 42 42 39 45 48 50 52 57 86 85 83 83 85 82 83 82 80 79 76 81 77 76 76 78 75 62 60 62 69
33 59 59 41 31 26 21 23 18 16 15 14 12 17 33 40 60 71 75 70 45 45 42 39 39 41 43 43 62 82 85 89 86 82 85 80 52 57 68 74 82 80 79 82 70 62 62 64 70
44 49 42 27 24 27 24 24 18 21 17 15 16 21 38 45 66 74 76 73 52 50 44 40 38 39 40 40 52 51 51 57 58 62 62 50 45 46 46 70 86 84 87 83 71 64 60 63 30
37 39 31 25 26 25 25 23 16 22 20 16 16 17 33 45 59 66 68 64 69 64 59 45 44 41 41 42 45 43 42 46 47 46 48 48 42 48 48 55 58 63 86 66 65 61 41 34 28
39 30 24 23 28 30 27 21 21 21 17 15 18 23 23 39 45 50 60 51 52 65 67 66 50 47 45 43 44 42 41 44 45 44 42 43 45 51 49 46 50 48 58 51 52 43 34 31 28
42 28 26 26 34 32 24 23 21 20 19 21 23 25 24 23 31 40 47 47 51 56 64 67 64 56 50 50 44 44 44 43 43 43 43 41 46 56 55 49 54 48 44 44 46 40 32 29 24
37 33 32 28 36 34 32 25 24 22 19 21 21 22 20 20 21 24 38 45 45 46 54 60 64 63 52 62 59 48 45 45 44 43 44 43 44 48 53 52 67 64 48 44 43 40 34 29 25
38 38 37 32 33 34 34 34 32 24 20 22 19 19 19 18 17 20 21 28 34 37 42 48 53 56 59 59 68 64 53 46 46 45 45 46 46 46 46 48 64 68 63 46 44 40 33 31 26
47 42 49 37 38 33 36 37 26 24 23 24 19 17 16 16 16 15 18 20 21 22 26 36 43 50 54 56 60 70 68 53 48 46 45 45 45 46 46 48 60 69 66 54 49 44 38 35 32
45 45 43 37 34 36 40 35 24 22 23 22 19 17 17 16 17 15 14 16 19 20 20 22 27 38 47 51 59 76 78 75 56 49 49 48 47 46 46 48 50 65 65 58 53 48 40 41 37
42 44 31 33 40 37 38 37 24 24 23 23 19 17 16 16 16 16 15 16 17 18 18 19 20 23 31 41 48 80 85 83 78 60 50 50 49 50 50 49 48 49 56 58 56 50 44 42 39
24 34 28 26 35 41 38 31 26 24 25 24 21 19 18 16 14 18 21 20 21 21 22 22 23 22 23 32 42 71 82 83 84 81 65 52 53 52 56 55 49 50 53 58 55 52 50 47 41
34 32 33 33 34 39 28 32 28 26 25 23 21 20 20 19 18 20 20 23 22 21 22 23 23 24 24 26 30 46 64 73 77 84 78 73 60 57 57 60 58 53 56 57 59 57 53 48 41
34 36 34 40 43 37 39 36 33 25 28 26 23 22 19 19 19 23 25 28 31 32 32 28 25 24 25 26 27 34 47 61 70 82 82 77 71 61 59 63 62 59 58 62 63 59 56 55 46
39 34 41 50 47 35 35 22 30 31 26 27 26 24 24 27 26 29 31 33 34 38 42 36 33 30 26 26 28 33 42 55 58 56 61 64 65 69 64 68 69 68 63 64 62 60 58 57 59
45 44 45 49 50 50 43 42 28 26 30 30 27 29 29 30 32 33 37 39 35 40 48 45 37 30 30 28 29 33 37 41 50 51 51 50 60 72 72 69 70 78 72 70 67 64 62 63 65
42 46 48 48 50 78 44 36 28 26 24 27 28 28 29 29 32 34 36 38 36 43 45 45 39 34 32 34 32 33 41 43 47 51 50 49 53 66 72 74 76 77 80 78 73 73 70 71 65
46 53 80 80 92 62 41 47 25 20 18 22 25 26 28 30 32 36 40 41 41 45 45 42 38 38 34 33 34 34 34 36 42 48 50 52 53 63 79 84 84 82 78 78 76 78 75 76 73
56 52 72 65 59 48 43 45 26 20 21 21 21 26 29 31 33 41 44 43 43 45 45 43 43 42 41 41 40 37 37 37 37 36 40 50 50 48 54 75 82 83 82 81 80 81 80 77 79
86 86 42 50 37 47 33 27 28 25 25 23 24 30 32 34 38 43 43 42 44 45 45 45 44 43 43 44 44 41 40 43 45 44 42 44 48 52 52 57 71 82 82 83 85 87 86 84 82
87 50 73 75 80 47 33 24 23 30 28 26 30 32 34 35 43 44 43 43 45 47 47 47 45 46 48 49 46 44 46 47 49 50 51 53 58 58 58 70 78 84 86 87 87 90 89 87 87
80 92 62 51 52 56 29 24 19 26 29 30 29 33 36 41 46 46 44 43 47 49 50 50 49 52 51 49 47 47 48 49 54 59 64 70 72 72 76 79 82 81 87 86 90 92 92 92 92
47 46 45 56 69 49 52 35 21 24 26 27 32 35 36 47 48 46 45 44 50 56 56 54 54 54 51 50 50 51 52 53 55 63 68 69 71 72 74 74 75 76 80 81 86 90 89 92 88

GFSSGP_sfc_rhum_042.txt.gz
RH
57 37 36 42 56 46 44 29 19 25 24 20 18 19 24 22 48 77 56 50 54 61 66 73 85 85 86 88 87 88 85 86 83 78 74 72 69 66 63 71 76 74 76 72 69 65 64 64 66
47 34 41 46 55 51 39 25 25 24 22 21 21 22 21 45 48 56 62 50 48 54 61 68 86 87 88 89 88 88 86 84 81 76 74 70 66 63 61 77 75 78 75 73 70 66 67 69 71
48 37 53 52 50 47 40 24 20 22 21 21 22 22 23 46 42 54 56 46 46 52 53 69 82 87 88 88 88 87 83 82 80 76 72 67 63 62 65 78 78 78 76 74 72 70 71 73 74
45 44 43 52 44 35 29 23 22 21 22 19 21 25 41 48 49 52 49 44 45 48 67 80 81 85 86 86 86 85 80 79 79 75 69 66 64 63 72 77 78 76 74 72 70 71 73 76 74
48 50 54 51 43 30 23 20 22 22 22 20 23 28 57 54 48 48 47 43 46 57 62 67 80 82 79 81 85 82 79 80 78 74 67 65 66 67 72 74 75 74 72 70 72 73 76 75 71
66 50 64 56 40 29 23 19 21 24 20 20 23 32 61 51 52 51 46 47 43 60 58 64 79 80 81 81 80 83 82 81 79 75 68 66 68 69 71 72 73 71 69 72 75 75 71 68 68
75 75 69 54 40 30 24 20 22 22 22 21 20 27 57 65 59 51 50 47 46 50 60 66 66 69 82 83 83 83 85 85 83 79 75 76 75 72 71 72 71 70 73 76 76 68 65 63 66
74 82 69 49 46 39 24 21 20 21 20 18 18 38 79 74 68 63 57 52 52 52 57 64 68 70 71 85 85 84 82 87 84 82 82 83 81 80 77 82 80 78 77 81 71 64 63 68 70
66 86 88 69 54 38 23 26 23 21 22 20 18 44 53 67 72 80 84 76 58 54 55 58 62 64 65 70 81 87 83 87 86 85 86 84 80 81 84 82 83 85 84 81 67 63 62 72 76
65 85 76 65 44 38 29 28 29 26 25 24 22 41 51 67 79 86 87 85 71 62 56 53 54 56 58 48 84 78 76 87 87 79 80 74 72 71 66 85 87 86 88 83 70 64 64 67 56
52 62 51 46 40 38 31 29 30 29 32 23 22 33 48 65 74 79 80 81 82 76 69 54 55 54 56 58 72 71 71 78 76 78 76 75 62 74 76 92 92 97 93 88 81 76 63 54 51
51 45 40 39 40 35 33 28 28 27 30 24 30 29 36 52 63 70 74 73 77 73 79 73 67 58 58 59 64 60 62 66 70 69 68 69 71 70 72 78 79 85 92 91 86 81 67 54 42
51 38 30 30 38 39 31 32 30 29 27 27 29 30 35 34 46 52 60 60 65 77 67 74 77 72 63 63 63 63 60 62 65 65 63 63 69 76 72 70 67 66 78 78 77 70 55 46 40
40 40 36 30 39 39 34 31 33 27 27 28 29 35 33 30 31 37 56 58 61 65 72 69 71 76 69 71 75 67 61 58 61 63 65 59 65 77 74 70 70 72 77 69 69 65 55 48 41
38 46 41 39 41 41 39 41 36 27 26 26 28 28 26 25 23 27 29 43 54 56 61 70 71 71 76 76 78 81 79 58 64 64 60 59 60 68 72 73 82 80 70 77 66 62 55 50 39
47 53 59 41 39 38 42 51 34 28 31 32 29 26 25 24 22 21 23 27 31 36 43 60 59 67 72 73 83 83 84 81 68 64 63 61 59 62 67 72 84 86 81 72 77 70 61 55 48
61 64 58 48 37 40 45 51 32 28 30 33 30 28 24 22 22 22 22 21 27 29 30 32 38 59 65 70 75 80 87 87 85 74 60 64 58 60 64 70 80 84 87 77 72 71 59 59 57
71 65 46 48 44 44 49 50 35 29 30 30 30 27 26 23 22 22 22 33 27 30 30 30 34 34 40 66 69 87 90 87 86 82 80 67 68 62 65 67 71 77 83 83 74 68 67 64 61
43 46 46 39 39 46 48 45 39 34 31 35 34 29 26 24 21 27 28 27 27 28 31 32 33 34 38 45 65 95 97 95 94 85 82 86 65 68 74 68 68 71 76 76 72 76 71 72 63
35 42 43 37 41 45 42 42 34 31 31 32 33 30 26 26 25 28 28 35 36 36 38 37 35 35 37 41 44 60 88 89 86 90 81 81 87 80 76 77 77 72 72 76 74 73 78 73 65
37 44 40 45 45 46 46 49 36 33 30 29 34 34 29 27 26 31 35 44 46 51 52 44 42 40 38 38 42 47 53 91 94 94 92 84 80 87 86 72 86 86 79 77 78 80 73 73 71
45 35 37 46 59 64 43 42 36 34 37 33 37 33 30 36 37 38 41 47 51 57 61 57 48 42 38 37 41 45 53 61 82 88 87 89 84 84 82 84 80 80 92 86 87 87 81 77 64
45 47 51 56 66 69 54 64 41 38 38 36 35 37 40 41 41 43 49 52 50 58 63 62 56 49 43 45 43 48 50 53 55 71 80 87 86 86 86 84 86 86 85 89 95 93 85 72 72
46 53 55 61 63 95 60 52 48 42 34 35 38 39 39 40 44 45 47 52 52 60 62 62 56 50 50 48 48 48 51 55 58 68 78 77 74 89 90 86 81 86 92 88 86 91 91 84 79
52 64 95 97 97 90 49 57 43 29 28 32 37 39 40 42 44 49 58 58 59 64 62 57 56 56 53 56 54 53 56 56 56 55 60 60 69 84 93 92 89 84 86 94 93 94 92 85 84
66 62 89 78 93 79 51 70 43 27 27 28 30 34 37 40 48 54 58 59 59 59 61 60 59 58 57 59 61 60 58 63 62 62 64 62 65 68 69 94 95 94 93 91 95 93 92 91 88
80 93 53 74 49 84 61 45 35 31 31 30 31 34 41 44 52 58 57 57 60 63 63 64 62 60 61 62 65 62 61 65 69 67 68 69 72 71 77 85 92 93 93 94 95 96 96 95 92
86 64 82 94 92 70 51 44 44 38 35 31 34 40 44 46 55 58 57 56 59 64 66 64 62 65 65 64 64 60 64 66 72 78 87 89 88 84 89 91 92 91 93 95 96 97 96 98 98
92 96 84 67 80 91 65 46 32 34 32 32 37 40 45 52 60 60 58 57 61 67 68 68 67 68 67 66 66 69 71 70 77 87 88 84 74 73 78 86 89 84 88 92 96 97 96 97 98
70 75 73 93 83 76 78 59 28 31 35 36 38 42 46 56 58 58 57 56 66 73 73 74 73 71 68 66 68 72 74 77 68 78 82 78 68 76 76 77 78 78 81 86 89 94 93 96 96

GFSSGP_sfc_rhum_045.txt.gz
RH
66 55 54 48 56 62 64 42 31 28 27 28 25 22 30 43 61 75 67 69 72 84 82 81 86 88 89 89 89 88 88 87 84 78 74 72 69 65 67 77 74 78 72 68 66 65 64 66 66
71 52 51 55 66 70 57 39 27 30 26 27 22 24 40 69 63 67 68 67 69 77 77 82 87 89 90 89 88 87 85 83 82 76 73 69 66 62 77 73 76 76 74 70 67 66 69 71 71
55 48 59 63 68 68 56 34 27 27 22 25 28 23 51 60 64 66 65 63 67 71 73 80 90 90 90 89 88 87 83 83 81 75 71 67 63 67 80 78 79 76 74 71 68 70 73 74 73
56 51 51 67 65 48 45 37 28 25 23 22 26 57 60 59 62 63 58 59 65 70 82 86 88 90 90 89 88 84 81 79 78 73 69 66 64 71 78 79 79 78 76 71 71 72 76 75 73
49 58 71 71 57 46 40 24 26 26 25 26 25 54 77 65 60 59 55 54 74 76 75 75 86 88 87 87 87 81 82 80 76 71 68 66 66 73 76 78 77 75 72 71 72 75 76 73 72
85 71 90 74 56 39 36 23 20 27 25 24 33 66 81 70 62 58 53 70 67 72 70 73 84 82 81 83 85 82 84 83 78 73 69 69 69 72 74 75 75 73 71 73 74 74 71 70 71
77 88 84 72 62 48 34 23 24 26 29 27 24 72 86 81 71 57 57 68 66 65 72 82 82 78 83 82 83 84 83 85 81 77 76 76 75 72 73 74 73 71 74 77 75 69 67 66 69
85 81 74 72 66 63 40 23 23 23 27 21 26 72 93 85 81 80 73 64 68 70 72 81 77 74 78 82 86 87 87 87 84 81 84 84 83 81 76 82 79 77 79 80 70 67 65 68 70
84 93 87 72 66 56 38 46 29 24 25 24 45 64 82 78 80 83 84 76 68 70 73 75 80 80 80 86 85 86 86 88 88 86 87 87 90 88 87 88 86 84 86 78 68 66 68 76 77
92 88 77 54 50 57 57 42 29 29 29 29 64 84 79 83 88 89 87 86 78 76 73 71 75 76 78 68 91 93 84 95 92 87 87 85 89 89 80 88 88 88 89 82 71 67 69 71 68
75 73 59 49 43 53 64 46 34 29 38 31 49 86 84 90 90 90 89 86 86 77 72 69 69 69 70 72 88 90 96 97 95 92 86 84 78 86 89 98 96 97 96 93 82 79 73 67 60
61 53 52 52 54 75 70 43 39 34 33 37 30 61 75 81 87 90 88 85 84 84 80 80 74 65 71 76 78 80 84 87 96 89 84 86 88 86 91 93 98 98 98 96 94 90 71 62 59
65 51 44 44 50 64 71 56 38 30 34 34 33 34 49 68 78 79 79 79 83 82 81 80 84 84 69 77 77 75 75 76 76 82 81 80 85 79 82 89 88 95 98 98 97 92 82 71 50
53 52 46 39 41 38 38 38 37 30 32 33 32 36 48 38 36 61 77 73 86 82 77 76 80 84 83 76 73 72 69 66 71 75 73 72 74 76 77 81 81 83 88 92 87 86 75 58 49
47 56 49 55 47 43 40 42 42 32 33 32 35 34 32 31 32 34 60 67 72 77 75 77 77 79 84 85 80 85 87 71 68 70 69 68 68 80 72 78 86 74 78 81 81 79 66 56 49
54 55 70 51 46 42 37 53 42 33 36 34 36 33 31 29 26 26 28 33 56 66 77 75 67 76 79 85 86 83 85 89 84 62 69 66 63 71 82 80 87 85 82 82 86 79 72 62 52
65 80 70 54 43 45 47 60 40 35 36 36 38 36 32 29 27 25 24 24 31 36 60 75 74 76 78 83 85 86 88 91 92 92 75 64 62 63 71 78 82 88 85 82 82 84 63 64 59
86 70 60 60 48 46 55 56 42 36 36 40 37 33 32 28 24 22 26 32 30 31 32 33 41 69 77 76 84 92 95 94 93 94 95 90 70 64 67 74 80 87 89 86 91 89 70 59 61
62 64 59 53 43 54 53 57 44 43 38 37 35 34 32 28 25 31 31 32 30 34 36 39 37 37 42 56 91 97 96 96 98 96 90 95 94 83 75 72 78 85 87 83 84 87 77 73 68
60 63 60 49 45 50 60 56 47 42 42 35 35 35 33 32 32 33 39 42 46 49 50 47 44 42 41 46 50 79 96 97 91 95 93 87 93 95 93 78 82 87 84 88 90 88 89 79 71
58 52 55 53 51 48 55 54 46 39 37 35 36 37 32 29 30 41 49 51 55 58 61 58 53 47 45 42 44 49 60 92 97 97 97 95 93 92 94 96 94 93 92 88 86 91 88 85 91
63 42 45 57 63 71 48 72 39 37 36 37 37 35 34 44 41 47 51 52 58 64 64 63 60 57 45 44 45 49 53 59 86 96 95 95 94 91 90 93 95 92 90 88 91 90 88 93 87
52 50 58 63 71 74 64 73 54 41 47 40 37 36 41 46 49 52 54 49 59 62 66 65 60 54 54 51 51 53 54 58 63 67 81 96 95 94 91 90 93 97 95 92 90 96 96 89 90
53 58 62 70 78 94 70 67 57 52 39 39 40 47 47 49 50 56 54 55 62 63 62 62 58 56 57 60 60 61 62 63 62 62 66 71 88 94 95 92 94 95 97 96 96 94 95 91 87
58 65 96 96 97 92 64 71 53 40 37 36 45 46 46 49 54 60 64 63 63 64 63 58 62 61 62 64 63 65 68 70 71 69 70 67 70 83 90 95 96 96 94 94 97 97 96 95 93
78 68 89 90 97 89 57 78 52 34 31 34 38 43 47 49 58 66 64 66 66 67 69 68 67 66 66 69 70 70 68 74 75 76 77 81 86 92 91 94 94 95 94 94 96 98 98 98 97
92 97 66 75 71 87 69 58 37 37 39 36 42 43 46 50 61 65 64 65 68 72 72 71 69 69 69 69 70 71 72 73 81 90 93 95 93 80 92 94 93 91 96 97 96 97 98 98 98
80 68 86 95 100 76 70 58 54 44 40 37 41 42 48 54 65 64 63 64 74 74 75 74 72 71 71 71 73 71 78 80 89 92 92 92 91 89 92 93 93 93 93 95 97 98 98 99 99
89 95 86 77 88 92 70 53 37 37 36 36 41 41 51 60 67 67 65 70 75 77 78 79 79 74 74 72 74 81 84 84 78 85 92 90 86 88 89 90 91 92 93 94 95 96 96 97 98
74 83 76 93 85 82 88 60 33 37 35 34 40 45 52 64 64 63 62 76 82 83 83 85 82 81 75 72 74 79 81 78 68 71 81 83 83 77 78 75 74 71 76 79 88 92 92 96 97

GFSSGP_sfc_rhum_048.txt.gz
RH
70 65 61 50 58 67 74 52 35 32 33 29 27 49 60 65 62 56 80 83 87 91 86 87 88 88 89 89 88 89 88 86 83 76 74 72 68 64 76 73 74 70 69 67 65 64 65 65 65
72 51 54 60 68 75 64 47 37 30 27 26 26 30 58 79 70 91 91 82 80 84 86 87 90 90 90 90 88 89 88 84 80 76 72 69 63 76 77 75 77 72 69 66 65 67 68 68 66
60 48 59 64 74 70 59 42 30 28 27 27 27 45 62 73 71 77 80 76 80 84 86 88 90 91 90 88 88 88 85 80 78 74 71 65 66 78 75 78 76 73 71 69 69 72 73 72 70
55 52 56 72 74 55 52 48 32 28 28 24 43 72 72 71 70 73 73 74 79 90 93 92 91 91 90 88 88 84 83 78 76 73 68 64 73 76 77 80 79 76 74 71 72 75 75 74 73
55 61 76 78 66 56 44 37 32 28 30 28 37 79 83 70 72 71 74 71 81 91 90 89 92 92 90 89 88 84 84 78 75 71 67 65 72 77 78 80 79 76 72 71 73 75 74 73 73
85 75 93 87 67 48 42 35 29 28 30 30 72 82 85 76 67 71 68 75 76 83 80 79 89 90 88 89 84 84 84 81 75 72 69 68 71 75 77 78 77 74 72 73 74 75 72 71 71
69 77 78 84 67 57 42 40 28 29 30 29 57 86 88 84 84 72 76 78 76 74 82 89 86 83 83 86 84 83 83 83 80 78 76 74 76 74 76 77 75 73 73 76 74 71 69 69 69
82 74 70 74 70 74 46 50 43 25 29 25 60 91 93 86 87 79 78 76 77 78 82 92 88 80 76 78 84 84 87 86 82 81 83 84 83 82 78 82 80 76 78 78 73 69 66 68 69
76 90 83 73 71 63 58 63 46 29 40 58 74 84 81 85 83 82 88 89 84 79 82 86 84 83 86 90 88 91 90 90 88 87 87 87 93 90 89 89 85 84 85 78 70 68 70 78 78
87 84 72 54 48 59 65 63 53 44 35 73 96 89 84 83 85 88 88 93 92 91 86 82 85 86 90 75 93 93 91 96 94 92 92 92 94 95 88 92 90 87 88 83 72 69 73 80 76
90 75 55 52 47 71 80 68 51 49 37 55 89 94 90 92 92 90 90 87 88 84 82 81 80 84 87 83 97 98 97 99 98 93 93 92 89 96 96 97 97 98 96 96 86 85 81 74 62
82 60 53 58 55 81 72 62 71 52 34 32 69 90 92 90 91 89 89 86 87 87 86 81 84 84 86 89 92 91 96 98 99 95 90 94 96 95 97 98 98 98 99 97 96 91 79 66 61
69 58 51 62 78 80 70 79 72 73 52 37 68 78 90 91 89 88 84 84 86 87 88 89 82 80 79 90 87 89 96 92 97 96 90 90 93 92 97 96 98 98 99 98 98 97 92 79 70
65 54 60 63 64 66 75 76 82 60 38 37 35 44 57 79 86 90 89 86 89 84 84 84 86 86 79 89 86 80 85 87 91 92 89 85 87 85 86 90 92 95 98 98 98 97 96 86 70
58 67 62 54 49 47 51 72 89 61 37 37 41 36 32 33 37 82 81 82 84 84 77 76 80 84 90 81 83 84 80 76 82 80 83 83 82 83 80 82 86 83 87 96 98 96 94 79 59
62 61 75 57 50 43 40 57 56 52 36 35 38 39 35 32 30 30 60 76 84 85 84 76 69 79 86 90 88 87 93 92 78 76 76 74 74 78 82 78 81 80 80 84 92 91 91 77 64
78 86 71 61 48 48 43 53 39 34 39 39 40 39 35 33 31 31 29 41 48 80 82 88 82 82 85 88 90 90 89 92 91 93 81 75 70 70 76 78 77 89 85 84 87 92 83 80 70
80 81 59 65 55 52 52 58 45 44 43 42 42 42 37 32 29 28 30 35 37 38 43 54 80 88 89 90 92 95 95 95 96 93 94 91 79 73 77 79 82 88 93 88 94 90 87 76 70
66 67 65 60 49 53 53 57 48 44 54 46 46 40 34 31 36 36 36 36 42 44 42 41 39 42 67 92 96 97 94 96 97 97 92 95 94 91 85 86 89 94 92 86 90 90 92 84 75
63 71 72 54 48 52 57 54 50 47 52 44 40 39 36 35 36 41 47 51 50 53 52 51 48 46 42 48 55 86 96 97 96 95 96 95 96 96 95 92 89 91 84 94 95 94 94 93 88
77 71 69 58 56 52 55 56 51 48 49 41 40 39 38 34 36 47 56 57 59 62 65 62 62 57 50 44 46 50 55 87 98 98 98 96 95 94 96 96 96 94 91 89 93 95 95 91 96
78 49 48 58 68 81 51 79 45 43 44 45 40 43 39 33 39 53 56 58 62 69 72 66 63 58 53 53 52 49 52 56 72 93 96 96 95 96 95 95 97 95 95 93 94 93 93 97 96
61 49 59 65 74 76 68 71 53 48 51 41 43 42 40 48 54 58 56 56 65 69 72 69 62 60 62 61 62 64 62 61 64 66 67 74 84 95 96 95 95 97 97 96 94 96 97 96 91
56 62 68 77 81 90 73 70 69 49 43 47 45 40 44 56 61 62 62 66 67 66 67 66 64 67 68 70 71 73 76 77 74 71 70 72 74 84 91 96 97 96 98 98 97 96 97 96 95
64 69 96 93 96 87 75 76 46 46 41 41 44 52 56 59 65 69 70 70 70 71 69 64 68 70 71 72 73 74 75 80 82 79 80 80 86 94 96 95 97 99 98 97 97 98 98 98 98
70 75 91 90 97 88 68 82 50 43 35 36 39 47 51 56 66 72 71 73 73 73 76 74 74 74 72 73 73 75 75 78 82 87 92 96 96 96 94 95 95 96 96 96 96 98 98 98 98
88 96 78 80 81 91 75 64 44 47 50 45 47 48 51 55 67 73 71 74 81 81 80 78 76 75 74 75 77 80 84 84 91 93 94 95 94 84 93 94 93 94 94 97 98 98 98 99 99
91 72 88 94 97 78 70 75 56 53 53 45 47 50 51 59 70 71 72 82 82 80 83 82 77 77 76 76 79 81 88 94 93 94 94 93 94 93 94 94 94 94 95 96 97 97 96 98 99
95 99 93 77 82 93 85 64 44 43 46 46 45 44 54 67 73 72 74 82 82 84 85 84 81 77 76 75 78 86 84 82 82 88 91 93 84 82 81 86 89 91 93 95 96 96 96 98 97
81 86 73 91 91 87 88 65 40 37 38 40 42 44 52 63 68 69 76 84 87 91 89 88 84 81 78 78 81 85 84 85 83 86 84 83 81 79 80 79 79 82 86 88 92 94 94 92 94

GFSSGP_sfc_rhum_051.txt.gz
RH
74 72 66 51 60 70 75 54 58 32 34 31 30 45 48 68 60 55 86 91 95 92 92 87 86 87 89 89 87 89 87 85 81 76 74 72 67 69 70 75 70 69 67 64 64 65 65 65 67
77 57 55 63 69 77 65 52 42 32 32 31 46 53 73 78 76 93 94 92 89 92 92 90 89 90 89 88 86 88 85 81 78 75 73 68 65 78 73 76 72 70 67 64 65 66 65 65 69
64 53 58 65 78 72 59 46 40 30 29 30 40 61 76 83 87 86 89 87 85 91 93 92 92 91 90 88 88 87 83 79 78 74 70 64 78 77 75 76 73 72 69 68 70 71 70 69 68
62 51 61 75 77 60 53 50 44 33 27 28 61 77 80 78 77 81 85 85 94 97 96 94 92 92 91 90 90 88 81 78 76 72 67 69 76 78 78 78 77 74 72 70 73 74 74 73 72
60 59 76 82 72 62 51 42 39 35 31 33 61 86 86 79 83 83 87 84 94 97 96 93 92 92 91 90 88 86 82 77 75 70 65 72 76 76 79 79 75 75 72 71 74 74 73 74 72
84 73 88 86 77 64 57 49 44 32 31 60 80 86 88 84 91 88 79 86 85 94 95 92 93 92 91 91 89 87 84 78 74 71 67 68 76 77 77 80 78 75 72 71 74 73 71 70 70
83 80 86 84 74 64 55 55 52 44 30 36 74 92 89 88 86 80 87 90 86 88 92 95 95 92 92 90 89 87 86 82 80 78 76 77 76 78 79 78 76 74 72 73 74 72 69 69 69
75 68 65 70 64 68 58 61 52 52 33 31 73 91 90 90 86 90 90 91 90 90 92 94 94 88 76 88 87 86 88 85 83 82 83 84 83 82 79 83 82 76 76 77 74 69 66 66 68
83 85 77 64 60 55 59 66 59 48 50 61 95 88 87 92 90 93 94 93 91 86 93 94 93 90 88 88 84 86 90 89 88 88 89 89 94 92 89 90 84 83 84 79 72 68 68 78 79
92 89 70 53 44 45 53 70 66 59 55 66 96 94 90 88 92 95 95 96 94 93 92 92 91 90 92 81 94 94 94 96 95 94 93 96 95 95 91 93 89 88 88 84 74 71 73 80 76
90 85 59 51 46 58 70 64 61 66 61 43 50 96 93 92 95 94 95 92 90 92 92 88 91 91 92 91 98 98 99 99 98 94 95 95 92 97 98 98 98 97 96 97 90 88 86 80 63
94 64 52 54 64 70 69 60 69 69 60 54 57 59 94 95 93 93 94 94 93 92 92 90 90 92 93 95 98 98 98 99 99 97 95 97 98 98 98 99 98 99 99 98 96 96 89 75 65
80 66 56 69 76 74 65 71 78 77 57 48 45 84 93 93 92 91 91 90 91 92 91 89 92 93 92 94 97 97 98 98 98 98 94 95 97 97 97 98 98 99 99 99 98 97 94 87 71
76 65 68 73 74 69 78 78 77 54 55 54 45 91 90 88 88 91 93 91 93 90 91 89 88 88 89 94 94 94 97 96 98 98 96 93 94 95 96 97 98 98 98 99 98 98 98 97 90
76 76 83 82 76 79 69 83 90 58 50 58 55 52 69 83 86 88 88 88 91 90 86 90 88 82 84 88 92 92 90 90 94 96 97 94 91 93 89 93 98 94 98 97 98 98 97 98 88
70 84 84 77 70 62 82 88 77 65 64 68 58 41 37 35 50 75 84 86 87 89 86 81 75 88 88 82 88 85 88 87 88 88 90 91 91 90 89 88 90 90 94 96 98 98 98 98 96
82 94 83 70 58 59 68 58 57 66 56 64 58 41 38 36 34 34 37 83 83 90 89 88 84 88 89 93 92 91 92 94 87 83 80 81 80 85 86 84 84 91 90 89 90 96 96 97 95
84 88 72 71 60 56 66 54 44 52 59 62 51 43 42 40 35 32 31 34 41 61 78 89 92 91 91 93 95 97 97 97 97 97 93 81 76 78 83 84 87 92 91 91 96 92 96 91 88
72 77 78 70 56 56 57 53 48 44 48 44 45 49 45 40 37 44 42 41 45 46 46 47 53 46 88 97 97 97 96 97 98 97 93 94 94 88 86 83 89 95 92 88 91 94 93 95 86
68 77 78 65 55 56 59 59 50 45 45 46 44 47 47 40 41 47 49 51 49 53 53 51 50 49 47 57 67 94 97 97 97 96 96 95 95 96 97 94 92 92 90 96 96 96 96 97 95
78 76 76 71 60 55 59 64 56 49 52 46 48 44 44 40 39 49 58 59 63 65 65 64 62 57 53 48 50 52 54 78 97 97 98 97 96 96 97 97 98 96 95 94 95 96 96 94 98
83 58 59 63 72 82 58 86 56 50 49 49 43 51 46 43 43 53 58 66 68 73 75 69 63 61 59 57 55 50 52 54 63 77 86 77 91 96 97 97 98 98 98 97 95 94 95 98 97
68 54 55 69 80 77 68 75 60 46 49 46 41 43 48 42 44 56 61 62 72 76 74 69 67 68 70 69 65 67 66 65 65 66 63 64 68 74 90 97 98 98 99 98 97 97 98 98 95
58 65 69 80 81 94 73 71 64 50 41 41 41 42 46 46 58 65 66 74 75 75 74 73 71 73 74 74 75 75 77 79 77 76 75 78 78 92 94 94 98 99 99 99 98 97 97 98 98
63 68 95 95 96 94 78 73 47 44 44 40 39 43 44 60 70 74 79 78 76 76 75 72 74 77 76 76 75 77 79 83 84 85 87 88 94 96 95 95 96 98 98 99 99 99 99 98 98
71 66 91 89 96 89 78 86 54 47 40 41 39 43 58 70 79 78 79 81 80 79 80 79 77 77 76 78 79 82 84 85 92 93 96 96 96 96 94 95 94 95 96 98 98 99 99 99 99
90 92 71 83 84 93 79 66 46 44 42 43 48 55 63 68 75 79 80 82 87 85 84 82 79 78 78 78 84 90 93 91 94 93 94 96 96 86 94 95 95 95 96 97 98 98 98 99 99
87 78 87 94 94 86 73 77 58 48 46 52 55 55 56 63 78 80 81 88 88 87 89 83 80 79 79 80 88 88 92 93 94 95 95 94 91 87 90 94 94 95 95 96 97 97 97 96 98
94 98 92 83 88 86 92 69 53 45 43 55 56 51 52 62 77 78 85 88 88 91 90 88 84 80 80 80 88 90 89 85 83 89 91 84 80 80 81 82 87 90 91 94 96 96 96 96 93
85 86 89 92 95 93 91 75 44 46 44 51 52 51 59 66 73 74 85 88 90 92 91 90 88 85 83 82 89 88 88 88 88 88 87 84 84 84 85 85 86 88 90 94 95 95 95 96 96

GFSSGP_sfc_rhum_054.txt.gz
RH
74 74 63 52 55 72 74 53 65 38 36 31 31 37 42 75 60 51 91 95 94 93 92 88 86 86 87 87 86 88 86 84 80 76 75 70 67 71 76 70 70 69 64 64 66 67 67 69 72
76 54 53 65 69 74 62 60 48 41 34 60 52 65 77 83 86 99 97 95 88 95 93 90 88 88 90 89 87 87 84 81 78 76 73 67 69 72 76 73 71 68 63 64 65 65 66 70 71
66 50 54 66 82 72 53 50 51 40 35 34 63 76 81 86 92 93 92 90 91 95 96 92 88 90 89 88 88 86 82 79 77 74 69 68 78 74 77 74 72 70 67 69 70 69 69 70 70
61 51 57 70 80 63 56 57 49 42 31 32 66 81 83 83 87 86 95 92 95 98 97 94 92 91 91 90 89 85 81 79 76 71 66 80 76 74 76 76 76 73 70 72 72 73 73 72 72
61 56 71 83 74 70 67 51 54 42 35 35 67 85 89 85 92 96 96 95 88 96 98 96 93 92 92 91 90 86 80 77 73 68 67 79 77 78 78 79 77 74 71 73 74 73 73 74 73
78 70 82 88 77 67 63 62 55 54 35 52 83 91 91 89 96 97 92 96 96 97 98 95 94 92 92 91 90 87 83 77 73 70 69 79 77 82 81 79 78 75 72 72 73 72 71 72 72
84 82 87 84 72 65 60 62 62 62 52 34 83 93 93 94 93 92 95 96 96 98 98 98 97 96 93 92 90 88 85 82 79 77 75 80 83 83 81 79 77 74 72 73 74 72 71 70 71
84 78 81 80 68 68 62 62 62 64 57 42 76 84 93 91 93 96 96 96 96 96 96 98 98 96 96 95 93 89 88 86 84 82 83 86 84 83 84 84 82 76 75 76 74 70 68 70 71
81 92 77 70 62 62 68 66 65 58 61 61 91 98 96 94 95 96 97 96 96 93 96 96 96 94 93 94 91 86 89 89 88 88 89 91 94 92 91 91 86 84 83 80 74 70 69 76 78
90 86 79 55 44 45 67 67 70 66 65 49 57 52 80 96 94 97 98 98 97 96 95 95 95 94 93 84 91 89 90 96 95 94 93 96 94 95 92 93 89 86 88 86 73 70 74 79 77
90 86 63 53 46 57 71 64 64 72 70 67 74 63 56 94 97 97 97 95 94 94 95 94 94 93 94 95 98 99 99 98 97 94 95 95 94 97 98 98 98 97 96 97 91 91 89 81 67
92 80 61 58 52 65 70 62 72 75 66 66 58 55 60 84 98 97 97 96 95 94 93 93 93 94 94 97 98 98 99 99 99 97 95 97 98 98 98 99 98 98 98 98 97 97 93 83 70
90 78 63 67 63 60 60 70 72 80 64 61 53 53 81 93 96 95 94 94 94 94 93 94 94 94 95 95 98 98 98 100 98 98 96 97 97 97 97 98 98 98 99 99 99 98 96 93 81
70 65 67 69 67 68 68 78 72 51 50 55 53 56 63 94 95 95 95 94 94 93 93 93 94 94 94 96 96 98 98 98 99 99 98 96 97 97 97 97 97 98 98 99 99 98 98 97 96
69 70 87 89 78 84 65 79 91 60 54 64 65 62 48 59 88 90 91 93 93 93 90 93 90 91 94 94 95 97 97 94 98 98 98 96 96 96 94 97 98 97 98 97 98 98 98 98 96
84 82 89 90 83 74 62 80 61 68 82 76 65 58 49 38 46 81 82 88 92 92 92 91 79 88 92 94 95 96 94 96 97 98 98 97 96 95 96 97 97 96 98 98 98 98 99 99 98
80 96 90 95 80 89 70 78 61 78 84 74 56 54 54 40 36 34 47 86 89 92 92 92 91 94 92 89 94 95 92 95 94 96 96 94 96 96 96 94 92 95 97 98 96 98 98 98 98
90 92 89 88 86 86 80 62 60 75 70 61 49 52 56 46 38 34 32 35 65 79 91 92 92 92 94 96 96 97 97 97 97 96 93 87 87 91 94 93 93 95 97 97 98 95 98 96 96
78 78 84 79 66 74 89 74 52 73 68 60 47 51 50 45 39 38 41 44 48 48 61 81 94 88 96 98 98 98 98 98 98 97 95 95 92 87 91 91 96 96 94 89 94 96 95 97 95
72 79 84 72 67 71 67 71 53 52 64 57 48 52 44 46 41 42 47 52 48 51 52 51 52 49 66 89 94 97 97 97 97 97 96 95 96 96 96 94 93 95 96 97 97 97 98 98 97
81 80 78 77 68 64 68 69 60 50 50 46 44 47 46 46 43 46 54 55 62 62 62 60 60 56 53 50 52 55 56 70 94 97 98 97 96 97 97 98 98 97 97 96 96 97 97 96 99
85 65 62 69 75 90 72 92 64 53 50 50 45 43 48 46 44 49 56 66 67 74 76 68 63 62 60 59 55 51 53 54 61 67 69 63 69 82 95 98 99 99 99 98 97 96 96 98 98
71 60 62 72 80 79 78 85 68 53 61 46 40 44 48 50 43 48 57 63 76 81 76 73 72 72 73 70 68 69 69 71 73 71 69 70 74 81 89 93 96 98 99 98 99 99 99 98 97
62 66 72 80 81 95 79 82 71 54 46 39 39 41 41 50 44 49 65 76 84 82 79 77 76 78 77 77 77 76 77 81 79 79 78 81 83 95 93 93 96 93 91 94 95 99 98 98 98
66 72 98 96 97 94 81 84 56 49 43 38 34 32 37 49 50 69 78 85 83 81 81 78 78 79 77 77 78 78 80 83 84 86 88 90 95 96 96 95 96 97 97 97 99 99 99 99 99
70 68 91 89 97 89 78 88 65 48 43 41 38 39 42 50 70 71 82 85 83 81 82 82 81 81 79 79 81 87 87 87 93 94 96 96 97 97 96 96 95 95 96 97 98 99 99 99 99
88 82 67 84 87 93 82 71 48 44 42 44 42 46 55 67 82 87 88 88 89 88 87 85 82 83 82 84 89 91 96 94 95 94 95 97 95 84 94 95 95 96 96 97 94 97 98 98 99
84 72 86 93 93 92 80 78 62 46 42 41 44 54 62 75 84 87 89 91 91 90 90 86 82 81 82 85 91 89 93 94 95 96 95 89 86 84 86 90 93 92 94 96 96 95 95 93 95
93 97 88 82 87 90 88 72 54 50 41 42 45 55 64 74 85 86 91 92 92 93 91 88 85 82 83 86 91 92 93 89 89 92 91 88 85 85 86 88 91 93 95 95 96 97 96 91 92
80 90 86 94 91 94 92 67 49 45 46 46 53 61 64 69 82 85 93 93 94 94 93 91 90 87 86 87 91 93 93 93 94 93 93 89 90 90 91 90 90 92 94 96 96 96 96 96 96

GFSSGP_sfc_rhum_057.txt.gz
RH
69 60 51 48 44 48 45 40 40 34 26 26 28 29 31 44 37 32 79 78 71 74 72 71 85 85 86 87 87 88 84 83 79 76 72 67 73 75 71 71 69 64 66 67 68 70 71 72 73
68 49 49 53 52 49 43 44 39 35 28 30 36 45 51 55 72 90 85 82 72 73 71 68 87 87 88 89 88 87 83 80 77 75 71 67 72 76 73 72 69 64 65 65 66 68 72 73 72
57 44 51 54 59 49 38 43 43 38 35 29 36 58 62 68 77 80 73 80 74 76 72 74 87 90 90 88 88 85 81 79 77 73 68 71 72 77 73 73 70 67 70 69 69 69 72 72 73
56 49 49 52 61 50 41 44 44 38 27 25 45 58 67 70 74 69 78 76 80 78 72 81 91 90 90 90 89 84 80 77 75 69 71 81 73 77 77 76 74 72 74 72 72 73 73 74 74
55 54 61 65 56 51 47 45 48 46 32 29 48 59 74 77 81 83 81 76 76 82 73 72 92 91 91 90 88 85 79 77 72 68 74 78 74 78 79 78 76 73 74 74 72 73 75 74 74
75 60 66 66 60 55 51 50 43 52 41 31 62 73 77 79 86 88 83 75 69 81 78 74 90 92 92 91 88 86 82 76 71 72 81 79 83 80 76 78 77 74 72 74 73 72 73 73 73
74 75 70 65 60 58 51 51 54 54 41 41 59 71 78 86 87 86 86 82 80 81 78 77 76 83 94 92 90 87 84 81 77 77 82 85 84 82 81 80 77 74 72 75 76 73 72 72 71
84 67 71 68 62 59 53 54 55 51 49 45 78 85 81 78 85 85 85 85 85 84 80 80 78 74 75 77 92 89 88 86 83 82 84 85 86 87 84 80 82 76 75 76 75 71 69 72 71
80 88 77 70 61 59 59 54 57 52 49 51 60 66 74 88 90 90 91 91 90 87 82 81 79 77 76 76 78 87 88 89 86 83 90 85 68 71 75 87 88 84 81 79 73 69 71 77 78
80 90 72 52 47 62 64 58 61 53 48 49 55 48 46 85 93 93 92 89 91 87 82 78 79 78 77 76 74 79 80 70 70 69 70 68 72 72 73 83 88 86 87 86 73 70 74 67 50
93 78 58 53 52 59 64 60 58 56 56 62 64 55 50 58 89 94 89 85 82 78 79 79 79 78 75 73 77 80 82 76 72 71 71 69 70 75 75 75 74 75 87 74 71 67 60 55 45
83 80 62 54 50 63 58 56 59 61 52 58 56 50 54 64 76 90 92 87 85 82 78 77 76 79 76 74 74 77 76 78 76 73 72 71 71 76 76 74 76 78 77 79 76 68 65 61 49
81 74 68 62 60 58 55 66 60 62 59 56 49 53 53 59 77 82 84 87 81 81 79 78 77 76 76 78 78 79 79 79 77 76 74 71 73 73 71 71 72 76 78 78 78 75 69 66 62
76 68 70 70 62 64 62 65 66 50 51 52 55 56 54 48 69 85 85 87 89 78 78 75 76 75 74 76 79 76 76 77 81 80 76 74 71 72 71 68 69 70 73 73 76 75 73 70 69
71 75 84 81 72 73 62 72 70 59 58 64 60 57 53 49 41 79 80 84 86 81 75 75 75 75 74 74 74 74 75 75 76 79 80 77 74 72 70 68 68 66 67 70 74 74 76 76 72
79 78 86 82 81 77 59 63 55 66 61 59 66 58 51 45 40 36 69 80 83 82 77 74 70 74 75 75 76 73 74 73 73 74 76 80 77 75 74 72 72 68 70 71 73 72 75 75 72
85 90 84 94 78 78 72 71 53 65 62 53 45 56 49 45 41 33 33 68 76 84 80 78 76 74 75 75 75 76 78 74 70 70 70 73 76 77 76 75 73 71 72 73 73 73 74 72 71
92 91 81 89 88 83 77 61 66 70 63 54 49 51 47 46 42 35 30 29 39 76 78 78 78 77 77 76 77 80 80 79 76 75 75 71 72 74 78 76 76 74 75 75 76 75 76 75 72
70 80 75 66 80 83 82 72 58 73 70 63 59 56 47 46 39 34 33 33 34 47 66 79 80 80 82 86 85 85 82 83 85 81 76 75 71 72 76 75 77 79 76 72 73 75 80 79 82
68 76 78 61 76 76 82 81 64 63 70 55 54 44 44 44 38 36 34 36 37 39 49 57 74 74 82 85 84 84 84 83 80 84 80 77 79 80 82 80 78 77 77 78 78 82 82 86 88
72 71 75 69 71 59 69 69 64 57 63 59 56 48 42 40 39 35 35 40 48 48 49 49 48 47 48 57 54 55 55 61 80 86 86 82 75 87 88 88 88 88 87 86 84 86 87 89 90
75 61 63 72 74 86 60 78 66 54 55 54 53 48 46 46 40 38 40 45 53 56 62 58 56 52 51 48 45 44 48 49 52 54 55 52 53 54 65 84 92 95 96 96 93 88 89 91 94
68 60 64 70 72 69 64 76 65 55 58 50 46 43 42 42 42 38 41 48 56 69 68 65 63 62 62 58 54 54 54 56 60 58 58 60 63 77 78 78 82 86 89 88 90 90 96 95 95
62 63 67 73 71 84 69 75 67 53 46 45 44 38 40 38 39 38 42 57 65 72 71 71 67 68 67 65 63 63 64 63 63 64 63 64 68 80 78 79 80 83 83 81 85 84 93 97 97
60 67 93 89 91 84 70 75 56 46 37 35 33 31 32 40 46 43 56 65 72 73 73 70 66 68 65 64 64 64 66 66 68 70 72 73 75 78 84 82 82 83 84 86 89 94 95 94 98
66 65 85 87 90 81 70 79 52 47 40 39 38 38 39 37 44 50 56 67 70 73 72 69 67 69 66 65 67 70 72 71 74 81 82 80 80 81 80 82 81 82 82 85 85 94 97 98 99
77 79 59 80 78 80 67 60 44 41 35 34 36 40 39 42 48 56 72 73 72 73 72 69 67 68 67 68 70 74 80 80 83 84 83 80 76 69 76 78 80 79 82 85 84 87 93 95 96
73 66 82 89 90 84 68 63 49 40 37 35 34 35 41 51 69 78 77 76 76 74 74 70 67 66 68 70 72 75 79 81 83 82 77 72 70 70 73 76 77 78 81 83 85 88 85 86 90
84 91 85 74 76 80 75 58 47 45 37 38 39 41 48 63 78 79 80 79 78 78 74 72 69 69 69 71 74 75 75 74 75 74 74 71 70 72 74 76 77 78 79 80 83 85 85 86 85
74 79 75 85 87 88 81 70 42 41 40 43 41 50 54 67 78 78 81 82 82 80 77 74 73 71 70 73 75 77 77 77 76 75 75 73 74 76 76 75 76 77 79 78 79 81 80 80 81

GFSSGP_sfc_rhum_060.txt.gz
RH
55 41 37 36 29 25 23 23 24 24 20 18 19 17 21 26 21 29 54 49 39 44 48 62 87 87 86 86 85 85 84 80 78 74 68 75 74 71 72 68 64 65 67 67 71 73 70 73 73
47 36 34 38 29 28 22 21 24 23 22 22 29 30 26 27 44 65 56 58 43 44 46 50 89 87 87 88 86 86 81 79 77 74 68 72 76 73 73 68 64 65 67 69 71 73 74 73 72
43 37 34 33 26 26 21 25 25 26 24 28 28 37 38 44 52 52 50 54 44 46 44 52 85 88 90 88 86 84 80 78 76 72 68 71 78 74 73 69 67 69 70 69 70 73 73 75 74
38 37 33 32 27 22 22 30 32 26 20 22 24 37 49 55 52 49 50 47 45 45 43 75 86 90 91 90 88 82 78 76 74 69 72 73 76 76 76 72 72 74 72 72 72 74 75 75 73
40 34 35 35 26 24 29 32 33 27 22 24 31 40 53 61 59 55 54 58 45 44 44 58 91 90 91 90 87 84 78 75 69 70 79 79 77 78 78 76 73 75 73 72 74 75 75 75 72
45 32 36 36 31 36 35 35 32 27 24 32 37 41 56 65 74 70 66 48 45 46 47 57 88 91 92 90 88 86 80 74 68 76 82 78 81 79 79 78 74 72 74 73 72 72 74 74 70
46 40 38 31 31 42 40 39 33 28 27 38 44 45 61 70 83 81 66 44 48 47 49 54 59 75 94 92 89 87 83 78 74 81 84 86 85 82 78 79 76 73 74 75 74 72 72 72 68
38 39 45 36 38 40 42 46 45 30 42 46 54 74 66 59 81 83 75 60 60 56 54 51 57 54 57 66 91 89 87 84 81 84 86 88 89 85 81 81 80 75 76 77 73 70 70 71 69
44 67 61 49 36 44 44 44 48 40 40 40 41 43 41 78 87 85 78 74 66 58 60 53 52 50 50 58 69 86 89 87 84 81 88 80 47 54 62 82 85 81 78 77 72 69 72 74 75
67 77 53 36 33 44 50 39 44 40 38 43 36 33 43 84 88 85 84 75 69 57 57 56 56 54 52 53 56 67 62 53 51 50 49 39 42 44 49 73 88 83 84 83 72 70 74 70 36
60 69 41 35 42 41 46 49 46 37 42 40 43 39 35 55 83 85 68 61 59 53 54 56 58 54 53 53 59 70 63 52 52 52 50 46 44 46 46 46 50 52 81 53 60 57 44 40 34
72 46 42 39 43 45 44 46 48 44 39 42 41 39 36 44 58 79 77 65 57 57 55 56 54 57 54 50 55 57 51 50 52 53 52 51 50 54 46 41 45 49 45 48 50 46 47 49 43
78 51 47 37 44 41 40 48 44 42 35 41 39 40 37 36 42 58 73 70 64 60 56 56 56 55 56 57 52 52 50 52 51 54 55 51 54 56 51 44 40 41 43 45 46 48 46 46 44
54 59 55 50 54 44 47 42 53 34 35 40 40 38 37 37 37 48 64 70 69 66 59 58 58 55 57 59 58 53 49 50 52 53 55 56 53 55 54 50 48 42 43 44 47 49 51 50 49
45 60 60 71 57 57 46 54 54 31 32 40 37 34 38 36 34 32 49 63 63 68 68 60 57 55 56 57 57 52 52 51 52 53 55 57 56 54 54 52 51 49 46 47 49 51 53 54 52
50 53 70 59 60 54 63 54 39 34 42 38 33 32 36 35 33 30 27 52 59 62 68 65 60 58 56 53 54 51 50 50 50 50 52 57 55 55 55 53 53 51 52 53 53 53 54 54 52
57 46 50 59 51 56 54 44 40 42 46 38 32 27 28 30 32 30 26 31 52 61 63 68 67 62 60 57 55 54 54 53 50 50 51 53 53 53 56 55 54 53 56 55 56 56 56 57 54
51 42 40 49 63 56 60 54 42 44 42 31 29 26 26 29 32 29 26 22 35 53 60 66 69 68 65 63 60 58 57 54 51 51 50 51 51 54 56 56 56 55 57 58 57 60 57 58 57
34 41 46 41 57 63 61 59 51 41 50 42 31 28 27 30 29 32 28 24 23 25 56 60 67 68 67 71 68 67 65 61 61 56 60 58 55 55 58 58 57 59 61 59 57 57 61 61 58
42 43 45 50 58 57 54 56 48 41 46 48 36 27 28 29 31 34 30 28 24 24 35 56 61 60 62 61 61 60 61 59 57 62 62 59 60 60 62 64 64 64 65 63 63 66 70 70 67
45 44 54 48 68 56 55 56 50 45 40 41 39 30 24 27 30 30 30 30 34 34 34 39 49 64 64 63 64 66 63 65 70 72 70 70 66 74 76 78 80 81 83 81 78 79 82 89 80
61 44 50 63 53 48 46 34 33 34 42 43 39 37 32 35 35 33 31 30 35 40 43 41 44 44 46 53 60 63 63 64 53 49 47 45 42 43 46 60 76 87 91 94 92 90 91 92 95
54 48 46 51 40 44 49 46 25 34 34 33 33 33 35 33 35 32 31 32 34 47 54 49 43 42 42 40 37 39 38 36 39 40 43 44 47 56 58 56 60 62 66 72 79 80 84 90 91
46 48 48 46 44 68 39 43 30 29 28 25 29 29 31 30 30 29 28 31 36 53 56 54 46 46 48 45 43 42 44 42 43 46 44 44 47 56 61 63 62 66 69 70 70 73 80 82 81
44 47 77 73 84 58 50 52 28 31 28 26 25 24 24 26 26 28 29 34 39 56 57 56 49 49 46 46 46 47 49 48 49 49 48 50 49 57 64 66 65 65 67 70 72 76 81 82 89
55 40 56 62 55 43 52 50 28 28 28 26 26 24 23 24 22 30 33 33 41 55 55 51 48 49 48 47 48 48 51 48 49 55 54 54 56 59 62 65 64 64 65 66 69 73 81 90 95
60 68 41 57 52 56 36 40 30 26 27 23 22 22 21 23 25 27 38 37 41 50 52 50 48 48 49 48 49 49 52 55 56 63 63 61 59 55 57 61 63 64 66 68 72 73 79 87 92
52 44 62 74 81 56 41 39 24 27 26 23 22 24 24 26 30 33 36 48 50 49 50 47 46 48 50 50 48 52 56 61 63 64 64 61 56 57 59 61 62 64 66 68 74 80 79 78 82
62 63 59 49 54 56 39 27 26 27 26 26 25 28 32 34 37 47 50 53 56 57 54 51 49 51 51 51 52 54 56 59 61 60 59 57 56 57 59 62 62 63 64 65 70 79 78 79 79
53 51 47 58 73 58 54 40 27 27 28 29 29 30 34 42 48 53 55 55 57 57 55 56 52 51 51 52 53 54 57 59 59 58 58 56 56 58 60 60 61 61 64 62 63 67 67 68 69

GFSSGP_sfc_rhum_063.txt.gz
RH
61 39 29 36 38 23 24 22 16 23 19 14 16 17 24 27 23 46 37 32 37 42 52 64 86 86 86 84 82 84 81 80 76 70 75 73 72 72 66 64 67 69 70 74 75 73 70 72 72
39 32 33 28 37 24 20 16 21 18 17 18 20 22 21 35 37 48 42 34 34 40 50 54 89 87 86 86 83 83 81 78 75 70 72 75 73 72 66 64 66 68 70 72 75 72 73 73 73
47 30 31 28 28 26 19 15 17 18 20 24 19 25 29 44 43 40 38 36 32 38 43 61 89 89 88 87 85 82 80 77 75 70 70 78 75 74 68 67 70 70 70 72 74 74 75 74 73
39 32 31 33 28 21 15 16 15 19 18 20 20 26 46 51 44 40 38 33 34 36 39 80 89 90 90 89 87 81 78 75 73 69 73 77 77 76 71 71 74 73 72 72 74 76 76 74 74
48 32 34 35 28 18 15 20 22 18 16 21 23 32 50 66 52 44 40 34 35 35 45 56 88 90 90 90 87 82 76 73 69 74 75 74 79 77 75 74 76 74 73 74 74 74 75 73 70
48 38 39 35 28 19 19 26 24 17 16 25 28 31 63 70 64 52 46 35 34 36 46 56 88 91 90 89 88 84 77 70 71 77 82 77 80 78 78 75 73 74 73 71 73 73 73 72 69
50 44 47 31 27 25 28 30 28 18 18 32 34 32 66 74 79 75 49 35 35 36 44 52 59 77 92 90 89 86 80 74 75 85 84 86 83 81 78 78 74 73 75 74 72 71 72 71 68
43 38 44 35 31 32 28 37 36 26 27 41 41 48 65 57 79 79 53 38 37 38 57 51 55 56 61 67 90 88 85 82 84 87 88 89 85 83 83 83 79 74 76 76 72 70 70 70 68
42 82 57 42 32 32 34 38 41 34 34 38 36 39 41 70 83 87 63 56 54 50 59 58 52 53 56 57 76 87 87 84 84 83 88 86 48 56 62 85 86 80 78 75 71 69 71 72 74
78 86 61 36 26 36 37 31 39 37 39 37 35 37 62 76 88 78 72 72 61 67 54 61 61 58 58 59 60 63 58 54 51 44 50 40 38 43 51 73 86 83 83 81 72 70 72 71 38
61 63 47 36 38 36 40 38 34 36 42 36 38 35 44 75 82 81 75 63 53 57 63 58 61 59 64 66 57 62 62 64 53 46 44 36 36 43 42 48 56 58 84 58 65 64 52 38 35
76 44 40 50 44 39 41 38 38 34 38 35 34 33 33 54 70 76 72 63 51 47 50 49 56 60 58 60 64 58 62 52 48 47 46 45 46 49 41 38 41 45 47 44 46 43 42 45 43
67 56 38 43 42 37 39 42 37 37 33 35 35 33 32 37 50 63 68 69 65 60 57 55 50 52 50 57 62 58 53 44 43 46 48 46 48 53 47 40 36 37 37 39 41 42 41 42 41
53 74 57 46 51 42 46 44 41 33 30 33 35 33 32 32 35 49 61 69 65 60 55 52 52 51 46 57 60 50 41 41 41 44 47 49 47 50 50 46 44 38 38 39 40 44 47 47 45
47 76 77 51 61 39 42 56 57 34 25 34 33 30 32 31 30 33 44 57 59 56 55 56 55 53 55 60 62 56 43 41 42 44 45 48 48 48 48 47 47 46 43 41 42 45 47 50 48
50 62 97 54 55 46 47 51 42 36 33 31 31 30 27 30 28 29 28 45 52 52 57 55 52 52 49 52 55 48 44 43 44 43 45 49 49 49 50 50 50 48 48 50 50 50 52 52 51
56 55 90 77 46 46 49 46 36 45 37 37 31 28 25 25 28 28 28 25 45 50 54 60 59 58 56 50 48 48 49 49 45 44 46 48 49 48 52 52 52 50 53 53 54 54 53 55 54
48 40 39 64 53 49 52 45 40 35 34 34 30 27 25 23 24 26 27 22 34 47 51 56 61 60 60 58 57 58 53 51 48 47 47 47 47 49 51 52 52 51 57 57 58 58 60 62 64
27 30 26 34 42 54 62 60 48 32 36 37 28 26 24 23 21 27 29 25 23 38 50 55 62 64 63 67 68 67 66 60 56 50 51 52 50 51 55 57 57 60 60 59 57 60 68 71 66
27 33 34 31 50 49 48 52 39 34 35 34 32 29 24 22 21 30 30 28 24 23 40 52 56 61 62 65 67 65 64 62 54 57 56 55 55 57 59 61 63 66 71 63 63 65 72 74 72
29 34 40 45 43 48 41 42 39 36 34 32 32 32 26 23 24 26 29 30 31 28 27 40 52 56 58 62 63 69 67 69 70 64 65 64 62 65 71 78 84 86 90 89 86 91 92 94 90
42 29 30 37 53 52 39 39 33 30 34 38 34 32 32 28 26 30 29 29 33 33 36 32 38 50 59 61 65 71 71 69 60 56 61 62 50 50 51 60 73 86 91 96 94 92 95 96 96
39 33 38 48 48 34 45 43 23 21 28 31 32 31 30 31 28 31 32 30 29 38 50 45 39 40 44 50 59 63 65 57 47 44 43 40 42 49 52 51 56 62 64 67 72 76 79 84 90
40 46 45 44 38 64 37 34 23 23 23 19 19 21 24 25 28 29 30 29 30 47 56 55 43 42 43 42 42 44 46 42 47 49 48 43 44 52 56 58 58 61 65 67 70 72 76 77 79
37 44 70 67 79 58 36 33 25 24 22 22 21 21 20 21 23 25 27 29 33 49 56 57 48 49 44 44 41 39 42 42 44 47 49 46 45 52 58 63 62 62 64 66 69 74 76 75 82
41 35 51 56 52 41 40 45 25 21 20 22 21 20 20 20 19 22 25 34 35 48 53 50 46 46 43 42 40 42 44 45 44 48 48 49 50 51 58 61 60 60 60 62 65 72 75 80 87
53 65 38 48 36 43 36 28 24 23 23 21 20 19 19 18 20 22 25 30 30 38 48 48 44 45 47 45 44 43 44 48 48 52 54 55 56 55 55 57 60 60 61 62 65 72 73 85 88
48 37 52 64 70 43 35 29 23 23 24 22 23 25 26 26 26 25 25 28 32 37 44 43 42 43 45 46 44 46 50 53 55 55 56 56 54 55 56 58 58 60 61 64 68 75 78 80 83
56 58 50 43 49 55 33 26 21 22 23 24 25 28 28 30 31 33 34 34 40 43 47 45 43 45 48 46 47 49 51 53 54 55 56 56 55 55 56 58 59 59 60 61 67 75 76 78 80
45 43 40 53 66 46 49 37 20 22 24 25 27 28 26 28 36 39 41 42 46 49 49 50 48 48 48 46 46 48 51 53 54 54 56 54 55 55 56 57 58 58 60 61 62 66 67 69 71

GFSSGP_sfc_rhum_066.txt.gz
RH
68 54 52 55 66 52 42 30 22 35 27 21 18 24 38 51 58 74 46 47 60 68 73 79 85 86 85 85 84 86 82 80 76 78 73 73 71 65 65 70 66 63 74 71 70 69 72 71 71
55 44 47 57 55 50 33 22 25 30 24 21 24 28 38 64 49 51 56 46 54 62 71 76 88 87 86 87 86 85 80 77 73 78 75 75 70 65 67 68 69 69 74 75 70 74 74 74 72
63 50 54 56 52 46 34 20 24 21 22 28 24 32 54 71 49 53 47 43 50 61 61 76 89 88 88 88 86 82 78 77 73 78 81 77 72 66 68 70 71 72 74 70 75 76 75 75 74
54 56 48 48 41 32 27 17 20 22 23 23 27 60 66 80 66 60 49 41 51 56 72 91 90 90 89 88 87 80 77 75 73 77 82 79 75 70 72 73 74 74 76 75 76 76 75 77 75
69 54 58 54 43 27 20 23 24 24 22 23 27 47 75 72 67 56 49 40 47 68 77 86 90 90 90 89 87 83 76 72 71 77 79 79 77 73 72 76 75 75 75 75 75 75 74 72 76
82 58 55 54 42 27 22 28 29 26 19 28 29 32 91 76 78 66 48 43 44 67 68 81 91 91 91 90 87 84 78 73 78 82 80 82 78 77 74 76 76 74 74 74 74 74 74 71 76
83 62 66 47 38 31 32 32 36 27 22 37 43 49 91 89 88 78 58 43 45 56 68 77 82 90 93 91 89 86 80 81 87 85 84 86 83 81 78 75 75 76 75 74 74 73 73 70 74
72 68 58 58 41 32 36 38 45 38 49 46 44 71 89 89 86 82 75 52 47 57 63 66 80 81 85 89 90 87 84 88 89 89 90 89 87 87 84 85 81 78 78 76 74 72 72 72 68
62 85 69 57 46 36 39 47 47 39 45 43 42 56 77 84 89 90 79 53 64 65 65 69 72 70 75 79 84 88 84 85 89 88 90 90 81 82 81 86 85 84 81 76 73 71 72 77 77
84 86 68 45 38 45 40 41 45 46 47 46 56 69 75 88 92 91 80 76 66 74 73 69 66 62 71 67 78 81 76 76 73 82 86 80 69 79 75 90 88 87 86 83 75 72 75 75 71
75 75 62 49 51 42 41 40 37 45 50 43 48 63 79 90 89 86 80 75 67 76 72 75 66 66 76 72 72 82 80 77 61 61 62 61 59 70 78 95 92 96 94 92 86 85 82 75 56
86 59 48 55 56 47 44 40 42 45 49 39 39 41 69 86 85 87 84 73 69 72 73 70 69 68 75 79 69 78 81 68 72 67 60 61 67 66 62 76 78 80 88 85 84 79 74 63 59
84 57 49 50 64 46 40 47 45 48 44 41 38 38 44 66 78 78 80 81 79 70 69 70 73 72 71 71 80 67 74 69 62 61 63 65 73 74 72 60 60 64 67 65 67 66 62 62 60
65 64 52 65 70 65 47 50 48 41 36 39 39 42 39 44 58 74 77 80 74 74 76 71 66 69 63 66 73 72 68 56 61 66 68 62 70 74 72 69 62 59 58 61 61 64 68 68 67
58 77 78 74 77 55 44 53 56 42 35 38 41 40 40 38 40 54 69 74 74 70 74 79 69 63 62 65 66 66 65 53 60 63 62 63 64 68 68 70 72 67 61 56 62 64 68 72 68
61 73 91 65 77 75 55 72 49 38 43 45 41 40 37 38 36 38 38 65 68 67 70 74 67 71 73 69 72 67 65 61 63 62 64 62 63 65 69 71 72 70 70 70 72 73 76 77 76
66 89 84 78 68 84 76 62 45 42 53 48 42 37 36 34 36 37 35 43 61 63 67 74 67 69 64 66 69 71 67 67 63 62 65 64 63 63 70 74 74 70 74 76 75 77 79 81 77
66 80 80 77 73 90 79 58 52 51 50 50 42 35 35 34 35 34 35 32 48 60 66 71 76 73 72 72 71 74 69 70 67 67 67 63 65 64 70 73 72 71 68 66 68 69 71 73 76
50 53 91 78 70 88 74 60 47 48 51 51 42 38 36 34 27 33 36 30 32 59 65 69 77 77 77 83 86 86 85 78 76 70 62 63 64 65 71 76 68 64 69 68 67 69 73 77 78
39 44 48 66 63 67 59 66 55 47 48 43 44 40 33 31 26 41 39 36 31 35 68 70 75 78 78 82 84 84 85 82 77 76 69 69 70 70 73 77 77 73 79 76 75 81 85 83 83
34 37 49 76 68 84 60 66 55 47 45 38 40 40 37 38 28 42 42 40 39 35 40 70 72 76 77 80 84 87 85 86 88 83 83 75 69 76 81 87 90 93 96 97 95 95 95 96 94
45 33 45 54 64 77 52 64 52 42 41 41 44 45 46 43 37 39 41 44 44 42 40 40 57 76 79 80 84 90 94 94 89 89 88 77 59 61 60 65 80 93 96 98 98 97 97 98 98
43 35 45 54 59 52 62 70 40 35 41 46 46 43 42 42 40 41 42 40 42 50 53 48 46 52 68 84 86 89 89 86 66 61 61 54 56 58 63 64 70 74 78 82 86 88 92 95 95
42 47 52 57 63 88 59 60 43 40 35 32 40 42 38 41 41 40 42 40 43 60 67 63 54 54 55 60 68 78 81 60 60 60 60 61 63 73 70 69 73 76 79 82 86 88 89 92 92
51 58 90 91 92 83 47 53 41 33 28 28 31 32 33 35 36 39 43 46 48 67 71 69 59 57 54 53 54 52 54 51 56 62 65 62 64 72 78 77 78 79 78 78 80 85 90 92 91
62 52 82 70 86 70 46 62 40 32 28 27 26 28 31 32 29 33 34 44 53 62 71 65 59 60 57 56 52 54 56 62 60 60 63 68 71 78 76 77 75 74 74 76 78 85 90 91 95
59 78 51 68 56 78 58 42 37 32 30 29 27 30 37 35 32 30 40 40 44 66 67 64 60 57 56 55 55 55 56 59 62 66 73 77 77 64 69 72 74 75 76 77 79 87 90 94 96
65 48 69 88 77 60 49 44 44 39 31 31 37 41 42 41 40 38 37 42 44 57 65 60 57 59 60 60 56 59 60 64 66 69 74 74 74 70 72 74 74 74 75 78 82 90 89 86 90
68 83 62 58 76 90 62 50 31 32 32 37 40 40 42 45 48 50 50 48 50 63 65 64 57 59 62 60 64 67 69 69 68 68 74 73 70 70 70 71 73 73 75 76 82 80 81 85 86
66 54 53 81 79 72 75 59 29 34 33 32 37 40 41 40 48 52 55 57 63 68 69 68 65 66 64 60 62 66 67 69 71 71 70 68 71 68 70 70 71 71 74 77 80 84 82 76 81

GFSSGP_sfc_rhum_069.txt.gz
RH
67 70 77 60 69 74 69 39 30 42 43 31 26 32 72 73 72 74 68 80 83 86 82 83 86 85 84 84 82 86 82 80 81 75 73 67 66 69 66 66 73 72 71 69 68 70 70 69 68
78 72 67 66 70 74 54 34 30 32 31 26 37 44 59 70 53 62 86 78 78 81 81 84 87 86 86 86 84 84 78 78 80 78 74 67 67 69 69 65 65 70 69 68 72 74 73 72 68
67 72 63 76 67 67 54 27 27 26 24 25 38 42 69 77 62 66 70 70 76 81 81 85 88 87 87 86 84 80 77 76 83 82 78 69 68 68 70 70 70 75 70 69 75 76 76 74 70
74 90 85 70 63 50 39 29 23 31 26 26 38 56 80 90 79 69 63 71 77 78 88 91 89 87 89 89 85 78 77 74 82 84 80 72 70 71 72 73 76 78 76 76 76 76 78 75 72
87 94 92 84 67 41 32 25 26 29 28 26 46 71 71 85 79 66 60 64 74 90 90 89 89 90 90 89 85 81 77 73 81 83 79 75 71 73 74 75 76 76 77 76 76 73 74 78 74
90 91 81 86 65 42 34 24 27 31 26 26 44 75 90 87 70 71 72 73 79 90 88 87 90 91 90 88 86 83 78 77 81 85 81 77 74 73 76 76 76 76 76 75 75 74 72 77 77
94 90 85 58 59 45 37 35 46 43 33 46 42 90 96 95 80 79 80 82 80 84 90 93 91 92 93 91 89 83 83 86 86 86 85 83 82 77 75 77 76 74 74 75 75 75 73 72 77
88 84 81 79 56 51 37 45 48 47 62 49 49 94 99 88 81 81 80 83 83 82 90 96 97 93 92 91 89 86 91 91 92 90 90 91 90 86 83 84 83 78 77 76 75 74 73 71 67
80 92 80 71 67 58 44 47 53 47 52 58 60 72 81 81 91 76 88 85 85 83 83 92 95 95 91 93 86 86 90 89 90 91 90 91 95 90 88 88 87 86 81 76 73 73 72 76 77
93 88 73 52 58 63 50 48 47 55 54 78 94 88 90 94 89 76 87 90 86 80 83 87 88 90 88 74 92 90 84 96 90 89 92 91 90 89 84 91 90 88 86 82 75 73 75 76 78
83 81 66 60 60 55 53 51 44 56 63 54 94 94 92 96 96 90 83 83 83 77 74 82 77 79 87 80 90 94 87 82 84 90 89 86 81 91 97 98 97 97 94 96 89 88 86 82 76
96 68 54 66 62 62 52 46 48 60 55 46 71 85 89 92 94 90 87 87 86 77 83 74 72 79 88 81 81 88 89 86 76 72 69 68 79 84 95 98 97 97 97 96 95 94 87 82 67
84 74 58 51 62 71 62 53 56 56 49 42 42 77 89 85 85 89 85 86 86 89 85 76 76 77 84 77 88 83 85 80 79 66 70 66 74 73 77 82 89 92 94 93 93 90 82 80 71
70 71 66 69 66 77 79 62 56 55 49 47 42 51 74 82 80 81 87 89 86 82 89 88 75 79 80 78 81 72 81 75 77 68 69 69 78 77 79 75 68 69 75 72 72 72 71 74 76
63 84 78 80 72 74 84 76 64 56 46 48 46 44 48 50 79 79 83 86 81 80 83 84 76 76 75 77 79 78 66 67 72 74 66 70 76 77 75 78 75 69 65 60 68 70 77 79 76
72 76 92 85 87 81 75 80 61 58 48 50 51 47 45 44 46 75 76 75 84 82 77 75 67 74 75 68 69 77 70 66 60 68 72 69 68 70 75 76 78 76 75 70 74 77 79 83 84
84 87 83 90 81 82 88 83 56 55 48 53 56 50 44 44 42 42 63 74 77 81 78 79 77 78 76 72 78 74 71 76 65 64 71 70 68 68 74 78 77 75 81 82 80 83 86 87 84
84 86 75 88 83 80 83 83 64 48 59 58 54 49 45 40 41 42 38 52 73 79 85 79 78 76 76 81 81 80 78 76 74 70 72 71 71 69 74 78 80 78 76 72 71 73 75 74 76
56 65 83 69 71 76 86 83 68 61 65 67 63 53 48 40 36 39 39 38 61 71 82 85 88 80 79 87 89 84 89 85 80 78 69 70 70 70 75 80 79 71 67 66 68 73 75 79 81
57 85 87 76 75 72 80 81 73 59 61 64 62 57 47 43 38 42 42 36 43 68 83 89 81 89 83 87 89 88 90 88 82 79 72 69 72 72 76 82 81 78 77 74 76 82 85 84 85
64 72 79 75 74 76 81 90 87 59 53 51 51 49 45 41 38 45 42 38 38 50 82 80 82 85 86 85 90 93 92 93 92 90 85 79 77 82 82 85 88 91 93 94 94 94 93 95 94
69 44 56 74 89 98 83 91 72 54 54 53 50 52 49 46 44 44 41 46 42 40 50 80 89 86 83 90 93 95 95 96 96 96 94 76 76 64 62 71 81 93 96 96 97 97 97 98 97
52 50 64 76 87 68 75 79 50 54 61 56 52 51 51 46 44 48 48 44 44 44 47 48 70 88 88 90 92 96 97 96 94 89 79 78 66 66 68 70 73 74 79 81 87 90 92 97 98
56 57 64 70 67 90 64 63 56 61 51 53 50 52 48 48 46 46 49 46 46 53 57 60 56 63 85 94 93 96 96 88 72 69 68 71 74 76 74 73 77 80 81 85 90 91 92 94 95
54 65 95 90 90 80 50 56 56 40 38 37 50 43 51 57 52 49 50 50 53 62 64 65 62 60 65 77 86 88 92 73 75 75 69 72 72 82 83 80 83 85 83 82 83 87 91 94 96
66 56 82 85 94 75 51 57 41 40 36 30 29 32 34 35 35 38 50 56 58 64 69 70 66 63 61 59 62 63 61 64 69 68 67 68 69 82 80 79 77 79 78 79 82 89 92 94 96
66 81 56 67 68 85 66 56 40 39 36 39 40 43 47 46 44 42 42 45 54 71 76 72 67 65 60 58 59 61 62 63 68 66 68 77 78 69 73 76 75 79 79 80 84 90 93 94 97
64 57 69 87 73 70 69 56 49 44 45 45 47 47 47 48 49 50 50 49 50 61 77 74 67 65 63 63 62 62 62 63 69 76 76 74 71 69 74 76 77 80 80 83 86 92 92 92 96
74 78 68 68 82 86 66 56 38 41 44 50 46 43 47 50 51 54 56 56 60 72 81 79 72 68 68 63 67 70 73 75 75 78 75 76 71 70 72 75 77 78 79 81 86 91 88 90 92
77 67 61 82 78 79 81 60 41 40 44 43 42 43 48 51 51 57 60 64 70 73 77 79 76 74 74 72 74 78 75 75 78 78 73 70 74 71 71 72 74 75 78 83 84 89 87 90 89

GFSSGP_sfc_rhum_072.txt.gz
RH
62 72 80 71 74 73 71 48 36 41 52 40 31 60 74 73 67 77 91 87 86 92 86 83 85 84 83 82 81 79 80 80 77 70 66 66 67 70 77 75 74 70 69 69 69 67 68 70 73
77 70 80 69 85 80 59 38 34 38 39 34 41 60 71 70 62 98 91 84 82 87 85 85 87 86 84 83 82 79 82 81 79 70 66 68 65 65 68 74 72 72 71 71 72 70 69 71 73
63 72 76 76 87 76 50 34 28 26 32 42 40 61 73 75 74 78 87 81 82 90 87 86 88 87 86 84 82 78 82 82 81 74 70 68 70 67 67 65 69 72 71 75 75 74 72 72 71
76 95 88 75 84 57 41 28 26 28 30 31 32 83 74 88 90 85 80 82 91 96 95 90 88 88 88 88 82 77 82 79 80 75 70 70 69 70 72 72 77 76 76 75 77 75 74 73 71
87 97 92 93 81 54 40 33 25 32 29 30 32 82 83 82 81 84 85 81 92 98 95 90 88 88 89 86 84 81 80 83 81 77 71 71 71 72 74 77 76 75 76 75 74 76 75 74 72
93 92 92 84 72 57 40 28 26 31 27 37 40 69 93 85 85 87 86 80 90 96 92 86 88 90 90 88 85 83 80 85 84 80 74 72 73 74 74 76 77 77 76 76 74 73 76 77 74
94 96 83 73 72 59 42 31 32 30 32 47 53 78 96 93 88 93 88 87 89 90 93 95 92 91 92 90 88 84 82 86 88 85 82 79 79 77 75 77 77 77 76 76 76 73 74 77 74
91 95 80 84 63 57 37 41 46 43 58 48 59 94 96 74 87 93 94 94 91 92 95 99 98 96 96 95 88 91 92 92 90 89 90 89 87 84 81 86 82 77 76 77 76 75 72 69 67
85 94 81 74 62 52 44 50 53 51 61 85 86 81 68 63 81 90 96 98 97 95 95 96 96 98 97 94 88 94 93 94 94 93 93 94 96 93 90 90 88 86 80 76 74 74 73 77 77
95 92 81 54 62 60 58 57 52 59 76 95 97 91 69 77 84 92 87 98 97 98 98 96 98 97 95 76 92 96 93 96 96 93 95 97 96 96 87 92 91 89 86 83 76 74 76 75 79
79 87 67 53 61 61 69 58 50 60 69 86 90 88 85 93 91 88 86 86 90 95 94 92 94 93 92 88 95 95 98 98 96 95 96 95 91 96 98 98 97 97 94 96 91 91 92 84 80
92 70 62 66 58 60 74 64 63 64 60 65 84 88 86 90 93 86 86 79 82 91 86 90 87 89 88 87 88 88 84 91 95 96 94 91 98 98 98 99 98 98 98 96 96 97 91 87 82
89 77 68 58 62 71 67 76 69 62 55 71 87 87 95 92 93 90 86 83 83 84 85 91 89 85 86 82 93 90 88 84 81 78 80 77 89 97 97 97 98 98 97 97 97 96 92 92 85
78 73 72 70 65 77 76 76 73 60 55 62 84 92 94 91 92 94 88 92 82 82 87 87 89 87 83 79 85 82 86 83 87 82 75 68 72 76 83 81 92 95 96 97 91 95 90 81 81
68 84 80 78 74 71 81 84 75 67 54 50 63 79 86 88 83 88 89 87 81 84 85 86 82 92 85 78 81 73 76 74 81 83 70 71 76 77 81 84 76 77 76 80 78 77 81 86 83
76 78 89 73 76 78 85 86 73 72 63 61 55 59 63 76 80 81 88 86 85 87 90 85 76 86 86 79 82 80 74 78 77 78 79 73 75 77 81 82 81 76 75 70 73 79 83 87 88
89 87 86 89 76 94 74 86 66 64 62 61 60 58 53 56 64 80 81 80 88 87 83 89 84 88 80 76 81 82 81 80 67 67 70 70 73 74 78 81 80 80 81 81 78 83 85 87 85
82 91 76 94 92 86 87 87 83 67 62 62 57 59 55 47 47 55 71 84 87 85 86 86 84 85 81 80 84 88 83 79 82 74 68 74 74 73 77 82 80 81 85 84 78 75 79 79 78
86 81 80 88 83 81 88 80 79 74 64 64 63 55 52 49 41 44 50 71 84 92 87 90 90 85 78 85 90 91 93 81 82 74 72 76 75 75 79 82 83 84 77 73 71 73 76 80 82
86 75 89 73 85 79 88 82 79 83 71 67 60 62 55 50 46 42 48 47 79 81 86 90 82 90 81 87 86 88 92 92 83 78 79 76 71 74 79 83 84 83 78 73 74 80 86 90 89
92 74 87 89 78 81 81 88 85 70 61 61 58 62 60 52 46 46 50 47 45 82 88 83 80 83 81 83 92 96 95 95 94 92 90 77 74 77 79 82 84 88 90 90 91 92 91 93 93
98 70 69 87 93 96 79 92 83 65 63 59 57 60 59 55 47 44 48 45 45 55 89 90 89 90 85 92 93 92 94 93 95 97 97 88 84 88 91 91 92 93 96 95 96 97 97 98 98
60 63 64 77 97 96 95 90 58 61 68 59 57 56 55 56 51 49 52 42 39 46 60 86 95 90 86 88 93 94 96 96 98 98 94 90 94 86 80 78 76 78 78 78 85 91 94 98 99
58 75 78 76 86 98 79 83 54 63 57 52 55 53 52 54 53 50 54 50 49 55 58 56 73 90 94 98 97 96 96 98 96 94 96 92 88 90 89 84 86 85 86 87 91 92 92 95 96
67 78 99 98 98 88 61 67 50 40 38 51 53 54 62 65 62 54 57 55 52 54 56 59 57 66 88 96 97 98 97 96 92 93 93 87 88 91 90 85 82 86 85 86 86 88 91 93 96
69 62 84 88 92 78 55 67 42 40 37 39 41 41 40 39 42 51 60 59 58 60 66 66 62 61 67 78 92 92 95 92 87 85 85 83 80 81 83 82 82 83 81 80 82 88 92 94 96
69 81 60 70 72 76 60 48 41 39 46 47 48 49 53 52 51 48 48 48 49 67 67 72 70 66 66 66 68 71 75 80 86 85 79 81 84 77 78 79 76 81 80 82 85 90 92 95 97
60 54 70 86 79 73 71 61 52 47 53 52 52 53 54 53 50 54 57 54 51 54 70 84 77 70 67 68 68 67 71 69 67 65 68 73 73 71 76 80 82 80 80 82 85 92 94 95 97
74 74 72 72 83 79 70 55 43 46 50 53 53 52 52 52 53 55 59 63 65 72 81 85 84 76 74 74 76 78 76 73 76 79 80 78 76 77 78 80 80 80 79 81 87 89 94 93 94
82 82 70 78 77 85 78 55 45 42 52 51 53 52 54 55 53 59 62 66 67 71 78 80 83 79 79 79 82 82 81 79 85 82 79 75 74 74 73 78 77 78 78 83 82 87 91 91 94

GFSSGP_sfc_rhum_075.txt.gz
RH
68 76 87 76 76 83 52 51 45 48 65 51 40 52 67 81 71 68 93 91 92 93 87 82 84 84 82 80 80 77 80 79 72 67 68 73 78 79 76 75 69 70 68 67 70 73 74 76 76
78 70 84 79 82 90 73 42 32 36 46 37 44 59 73 85 84 91 92 88 88 90 87 84 85 84 82 81 79 81 79 74 70 67 67 70 74 78 75 74 71 70 70 69 71 73 75 73 72
64 72 92 87 93 83 52 45 32 43 38 58 48 62 84 96 88 88 92 83 88 92 89 86 86 85 83 81 80 82 79 76 70 69 73 71 69 74 73 74 72 73 74 73 73 74 74 73 74
80 89 92 85 85 66 47 37 27 49 51 40 40 61 92 92 90 88 83 88 98 98 96 89 88 86 86 85 82 81 78 76 71 70 71 71 66 66 67 72 74 76 77 75 74 74 73 73 76
90 94 96 92 82 69 50 37 30 38 48 43 36 51 85 86 85 88 88 92 97 99 95 90 88 86 85 84 83 84 82 78 73 71 70 70 70 71 70 73 75 77 76 76 73 72 73 73 72
95 84 96 87 78 62 54 40 32 32 30 35 37 49 79 84 78 87 89 95 94 93 95 89 89 89 87 85 84 84 85 82 76 73 71 71 71 73 72 73 74 76 75 74 74 74 74 73 71
97 92 89 76 71 63 53 40 38 30 34 40 35 73 94 91 74 88 92 94 95 97 97 95 92 92 92 89 87 85 87 86 83 79 77 77 77 76 74 73 74 75 76 75 74 75 76 74 70
95 91 81 86 75 66 45 38 46 35 44 56 61 84 98 84 76 90 96 92 94 96 97 99 98 97 97 96 90 88 88 89 87 85 84 87 87 83 80 85 83 78 78 78 76 73 70 71 69
87 96 85 80 72 60 43 46 52 56 68 88 78 83 71 79 82 84 87 92 90 89 95 97 96 98 97 95 92 94 93 94 93 93 92 92 95 94 93 92 87 84 80 78 76 74 73 78 76
90 89 68 68 66 55 55 56 55 64 91 97 94 89 82 86 80 80 84 85 96 93 95 91 94 97 96 80 96 98 96 98 96 95 97 98 96 96 91 95 92 89 86 84 76 75 76 78 80
86 86 57 58 58 62 66 64 54 64 80 84 84 82 93 91 82 76 71 83 92 94 96 94 95 95 93 90 98 99 99 99 99 97 97 97 95 97 98 98 98 97 94 96 92 92 94 86 84
91 69 69 61 59 64 68 69 62 68 60 64 77 68 78 89 91 86 83 80 85 92 92 96 96 92 90 88 92 98 99 98 99 98 96 98 99 98 99 99 98 98 98 96 96 97 93 90 85
83 81 64 69 62 74 69 75 77 73 61 85 87 75 77 85 89 84 78 80 84 77 75 85 91 95 90 86 87 84 88 93 94 97 96 95 97 98 98 98 98 98 98 98 96 96 94 94 92
77 74 73 67 73 70 65 83 79 65 57 94 90 90 84 83 92 94 86 83 83 73 73 80 86 90 91 90 87 82 80 78 83 87 91 88 91 98 98 98 97 97 97 97 96 96 96 94 87
78 92 75 73 80 73 74 75 78 76 73 89 94 92 89 92 95 87 84 80 78 81 80 85 84 87 92 91 90 80 81 80 83 83 77 74 77 84 86 86 87 94 94 94 96 86 86 88 87
92 86 85 65 81 73 73 76 76 77 82 73 83 88 91 93 90 93 89 84 81 83 85 85 80 85 91 88 90 85 84 85 79 83 81 72 70 75 84 88 84 78 79 80 82 81 86 89 89
86 98 86 82 76 85 85 85 85 78 76 76 76 74 66 79 83 92 91 91 89 90 88 87 85 85 87 86 86 90 87 85 83 77 80 77 72 75 82 86 86 83 84 80 76 82 85 88 87
85 93 77 80 82 78 89 80 86 89 72 71 70 72 62 59 62 70 85 88 87 92 90 89 86 84 90 89 91 97 92 85 85 79 76 72 68 77 81 84 83 84 88 88 86 82 87 84 80
72 88 78 88 81 87 88 73 73 86 86 74 72 63 58 56 48 56 60 88 94 96 95 91 92 90 86 95 97 98 93 90 89 89 78 76 74 76 81 85 86 87 87 85 84 78 77 82 84
74 91 86 86 86 88 86 86 82 87 84 69 72 70 59 54 50 43 44 58 90 94 96 96 94 93 88 85 77 82 92 96 84 80 73 72 76 78 77 84 88 89 91 83 76 80 87 87 88
90 86 91 85 85 76 88 94 88 82 87 66 68 65 62 58 52 48 46 50 51 88 94 92 88 85 84 92 95 97 97 97 93 88 82 79 76 81 80 81 86 89 89 88 86 89 89 91 95
85 78 79 87 94 99 84 95 90 73 83 73 67 68 64 64 59 53 47 52 51 51 91 93 92 91 92 95 94 91 87 91 96 96 96 96 92 89 83 87 91 92 95 95 95 96 96 97 98
78 69 86 84 96 98 94 88 60 67 74 77 66 65 61 57 58 54 50 47 50 47 71 93 94 95 93 96 95 96 96 96 98 99 98 97 98 95 96 95 96 95 96 96 95 96 97 98 98
75 77 83 88 99 99 98 85 56 68 59 55 55 60 56 54 60 56 55 58 55 57 62 75 90 95 96 96 96 96 95 97 98 99 98 98 97 98 96 93 91 90 90 92 93 93 93 94 96
80 92 99 98 98 94 75 91 63 43 45 49 53 56 55 63 61 57 59 60 63 60 58 60 66 80 91 98 98 98 94 96 94 96 98 97 96 96 94 91 89 83 83 86 88 91 91 93 96
78 64 93 92 93 79 62 82 49 44 45 51 52 50 48 48 54 58 59 62 61 66 66 66 63 61 66 87 96 97 98 99 96 94 96 95 92 91 88 84 81 83 83 83 85 87 92 92 96
76 82 58 72 69 86 68 50 43 44 51 49 54 53 56 56 54 50 50 52 51 55 68 73 73 68 65 68 76 88 94 97 94 94 94 90 89 88 86 80 78 79 80 82 84 89 90 93 95
64 56 70 86 88 76 70 66 57 51 53 55 55 57 57 57 58 58 59 59 61 62 74 78 84 80 73 72 75 73 77 82 91 89 87 82 81 80 80 78 78 79 80 83 87 91 92 95 96
71 69 73 74 80 84 72 55 43 47 52 53 59 56 57 58 61 64 66 69 72 74 77 84 86 84 80 76 77 81 83 84 83 78 77 79 78 80 76 77 78 80 82 84 88 90 91 96 95
85 83 71 78 75 86 79 61 49 46 54 56 56 56 54 56 60 65 73 76 76 77 80 85 86 86 84 83 83 85 85 85 86 83 79 81 76 78 78 78 82 82 83 86 87 88 91 95 94

GFSSGP_sfc_rhum_078.txt.gz
RH
66 80 90 83 88 84 84 58 65 58 63 70 49 65 69 82 72 72 91 86 92 93 87 82 84 82 81 79 78 78 80 76 73 74 80 80 77 76 74 72 68 68 67 67 70 74 71 75 76
79 75 87 92 93 85 74 51 41 42 56 52 57 61 70 75 90 94 92 90 91 92 88 86 84 84 82 80 76 82 76 71 70 72 76 81 79 77 71 70 70 68 69 72 72 75 74 73 74
69 78 90 91 87 75 64 52 38 44 45 52 69 70 77 82 84 87 94 86 93 95 91 86 86 85 81 78 79 81 75 70 70 74 77 80 79 75 74 71 72 71 73 75 77 75 75 78 80
81 94 94 94 86 72 56 42 39 50 50 51 50 56 84 88 92 86 84 92 97 98 96 89 87 85 85 82 82 79 75 70 70 75 75 76 76 77 75 74 76 76 75 76 76 74 75 78 82
94 96 90 91 82 75 60 45 36 48 59 50 42 71 81 84 91 87 90 93 97 99 97 91 87 85 84 84 84 82 76 71 70 73 69 68 70 71 71 76 78 78 75 76 75 73 74 73 76
94 96 90 88 78 68 62 45 43 44 45 46 42 57 83 80 90 95 92 95 93 97 96 89 88 88 88 85 86 84 80 74 71 71 71 68 68 70 72 75 77 76 75 74 72 72 72 72 70
95 98 86 83 77 78 62 54 53 40 38 45 36 44 97 89 91 94 96 94 92 96 96 97 96 93 90 89 88 87 85 81 76 77 76 77 77 73 73 75 76 76 75 75 76 75 74 72 70
94 91 87 82 84 77 54 51 40 39 36 58 40 77 94 78 90 96 96 94 95 97 98 98 99 98 97 96 90 89 89 86 82 82 83 85 84 81 77 81 81 78 78 78 76 74 74 72 70
86 94 85 70 77 69 50 47 39 55 71 78 79 76 71 70 86 85 93 89 83 95 98 98 98 98 97 96 93 90 93 92 90 90 91 93 95 92 91 92 87 85 81 78 76 73 73 74 73
94 96 72 56 58 68 54 55 43 60 86 88 91 83 67 79 73 78 83 89 89 87 97 98 97 97 96 84 96 97 96 94 94 97 95 97 96 97 93 95 90 88 86 84 75 73 76 77 83
89 90 62 58 62 66 69 65 62 61 82 84 84 91 77 83 71 74 73 82 85 83 95 96 95 97 94 88 99 100 100 99 95 97 98 97 96 98 98 99 98 97 94 96 92 93 94 86 86
94 74 69 68 61 60 65 66 73 75 65 64 73 80 78 87 76 65 61 62 74 91 93 95 95 97 94 94 99 99 100 100 98 94 98 99 99 98 98 99 98 98 98 96 95 97 92 89 87
92 78 73 64 60 66 50 62 74 75 68 75 76 82 74 84 78 70 58 62 86 89 90 90 89 98 95 94 96 99 99 99 99 97 97 98 98 98 98 98 99 98 98 98 96 96 94 93 92
81 78 71 70 68 65 68 61 86 64 81 75 85 90 77 83 78 82 76 86 78 81 87 85 82 89 93 94 91 91 97 97 98 98 97 97 97 98 98 99 98 98 98 97 96 96 96 96 93
70 86 83 69 65 78 64 76 84 84 80 77 94 80 88 85 82 86 80 79 66 64 76 79 74 84 94 91 96 94 79 82 91 93 96 95 91 95 96 98 98 97 97 95 97 94 93 95 88
90 77 96 74 66 78 78 76 66 88 82 85 83 87 82 88 93 83 73 74 72 71 73 75 68 84 91 94 95 95 96 92 78 81 80 83 82 84 92 92 88 85 93 94 95 95 87 91 94
87 97 92 80 65 72 80 89 86 82 79 80 82 83 74 88 85 90 84 78 77 75 81 88 81 84 90 92 90 92 91 94 92 85 81 72 72 76 81 84 86 81 83 81 80 83 86 89 90
87 97 98 79 81 78 87 88 93 86 84 90 84 81 78 68 81 92 83 87 82 83 80 80 86 87 88 93 96 98 97 93 97 95 87 84 74 74 76 84 88 88 87 87 86 82 90 91 86
98 80 88 85 86 84 86 88 83 90 89 91 81 73 69 64 66 72 80 94 96 96 97 86 83 87 89 97 94 98 97 94 93 93 85 80 79 73 74 82 88 89 90 86 87 89 83 84 85
99 84 97 92 77 83 82 87 85 86 82 89 83 76 71 63 56 62 73 82 96 96 97 97 85 83 93 94 87 81 84 93 94 96 91 87 83 78 80 78 83 89 90 89 89 85 87 86 89
94 85 94 88 85 83 82 85 90 82 84 80 83 73 70 64 60 56 53 60 76 92 98 96 94 84 82 81 88 99 98 99 99 97 95 92 83 82 81 85 94 96 94 92 92 88 89 90 94
91 90 83 87 92 98 84 98 92 82 88 82 77 72 71 68 62 58 53 50 50 56 92 95 95 95 95 96 96 97 94 92 98 96 98 99 98 98 97 96 96 96 95 96 97 97 96 96 94
92 80 82 87 96 96 98 99 73 77 86 82 79 64 65 66 60 55 54 49 47 52 66 94 94 95 95 97 94 94 95 97 98 99 98 98 99 98 98 99 99 99 99 98 97 97 98 98 97
82 83 85 94 94 96 99 92 63 90 73 66 67 71 67 68 61 55 55 58 57 57 62 89 94 94 95 97 98 97 96 97 98 99 98 98 98 99 98 99 99 99 97 95 92 93 93 95 96
81 82 99 97 98 98 95 98 69 52 45 52 55 56 59 60 56 58 57 58 60 61 61 63 74 82 90 97 98 98 98 96 95 96 96 98 99 99 98 98 98 97 90 88 88 90 92 94 96
82 86 93 93 93 92 68 88 56 50 56 50 49 58 59 58 61 57 62 62 65 65 67 66 64 60 62 80 92 97 98 99 98 96 98 97 94 96 97 97 91 85 83 84 83 86 90 90 94
73 86 61 75 68 92 70 52 45 48 55 53 55 53 59 58 55 55 58 58 58 62 70 76 75 72 69 67 71 80 93 97 98 96 97 98 97 94 93 86 82 82 82 83 82 87 88 90 93
62 55 70 88 88 79 66 65 58 52 61 58 63 66 66 65 65 68 70 73 74 76 80 80 86 85 82 75 74 72 76 84 95 95 95 95 92 92 90 87 84 82 81 82 85 90 91 93 96
71 72 76 73 80 77 71 56 47 49 56 65 66 65 66 70 74 77 79 78 77 78 81 82 85 88 87 83 80 80 80 83 89 91 90 86 86 89 83 80 81 81 81 81 84 87 88 92 95
88 82 66 78 76 84 79 59 55 53 58 59 62 63 68 69 70 71 72 74 75 78 80 84 86 86 89 88 87 86 86 88 89 90 88 83 83 84 82 80 81 82 80 85 87 88 90 93 95

GFSSGP_sfc_rhum_081.txt.gz
RH
68 68 72 70 68 73 72 59 45 46 39 45 48 53 60 76 60 53 79 77 74 76 69 71 83 80 75 77 76 81 74 77 80 79 79 78 78 76 73 69 69 67 66 67 69 67 71 74 76
66 68 75 84 78 73 61 47 39 39 45 53 56 57 53 63 74 85 87 82 72 74 70 68 83 82 82 79 78 81 74 71 78 80 79 79 77 76 71 70 69 67 70 68 68 70 74 75 77
61 72 82 86 74 64 52 43 36 29 48 50 61 68 63 72 80 77 82 77 77 75 73 72 84 84 82 77 81 78 73 70 76 80 84 80 78 74 71 70 70 76 76 76 74 75 78 80 80
72 82 83 89 76 58 46 35 33 32 37 46 56 63 77 78 88 79 78 75 77 78 75 80 86 85 84 82 83 77 72 69 71 78 82 83 79 75 70 72 78 80 79 76 76 77 82 84 82
83 86 85 89 76 61 51 43 41 36 33 48 46 57 66 88 87 88 86 81 78 82 77 73 86 85 85 86 84 79 72 70 70 73 78 79 78 76 75 76 77 78 78 77 74 75 76 80 80
89 87 91 86 71 61 52 47 50 38 37 44 48 58 64 83 87 90 87 86 78 81 79 72 87 87 87 87 84 82 76 71 73 74 74 76 75 74 74 77 77 76 78 76 74 73 73 73 76
83 86 78 66 66 64 58 48 54 42 33 34 38 51 79 86 86 88 90 94 85 82 78 76 73 81 91 90 87 84 80 77 76 73 74 76 78 75 75 77 76 76 76 75 75 74 72 71 70
84 85 79 74 66 63 50 52 45 47 39 31 34 64 87 71 90 94 97 98 90 89 86 83 79 76 76 75 91 89 86 82 81 80 80 84 74 81 80 83 82 78 77 78 78 77 74 72 70
73 91 81 69 70 56 50 51 47 44 39 55 54 43 63 80 93 89 95 98 92 81 93 92 88 82 79 77 81 90 92 89 88 84 89 85 74 66 69 86 86 86 83 79 76 74 72 75 76
86 90 70 53 50 55 52 52 46 54 46 49 64 69 73 91 86 83 86 93 93 74 73 92 92 86 81 76 78 81 84 78 76 75 75 72 74 73 73 84 90 88 86 84 76 75 75 69 51
80 84 59 55 56 56 61 62 49 54 56 40 50 78 84 89 78 81 80 77 79 82 82 83 92 92 84 76 83 84 90 90 80 77 78 77 80 78 76 78 76 76 84 69 71 70 59 56 53
85 68 68 64 58 62 65 54 59 72 46 34 46 70 77 82 74 74 74 67 75 82 82 92 90 95 82 76 80 83 84 92 90 77 77 80 84 85 82 81 81 78 76 72 68 63 61 59 56
86 69 62 63 64 62 56 64 59 61 64 64 54 76 76 74 68 62 66 71 68 82 90 87 89 94 92 84 83 84 80 82 84 80 80 79 82 82 79 76 78 78 76 71 66 63 60 60 60
68 71 65 61 60 62 68 61 67 55 73 70 65 72 74 71 63 65 67 68 63 60 85 90 80 82 91 90 87 85 84 80 84 78 82 78 75 76 77 79 79 79 76 72 67 60 65 64 64
69 80 67 63 72 61 64 71 71 56 72 74 73 74 73 72 67 65 65 76 73 74 72 80 65 78 87 90 90 88 83 85 85 87 80 77 74 74 75 76 78 75 72 70 71 68 70 68 68
76 81 86 52 64 59 69 74 53 75 70 78 77 75 72 80 75 74 72 75 63 64 70 64 56 76 80 86 88 89 88 88 82 81 81 79 76 75 74 73 76 73 71 70 71 70 69 64 63
80 85 83 66 63 58 73 72 58 78 74 77 75 76 77 80 80 84 75 65 67 70 69 72 70 72 86 85 90 86 84 85 82 79 76 77 76 74 70 69 70 67 67 70 68 69 65 62 64
78 91 77 75 64 67 69 76 90 83 74 79 80 75 72 75 93 93 83 71 70 74 73 71 70 74 91 90 92 92 89 85 91 90 85 74 64 65 67 66 66 65 66 64 65 62 64 63 64
99 97 81 66 59 71 74 79 78 81 90 94 91 79 71 66 76 96 92 93 85 80 82 79 81 80 82 89 96 92 92 94 92 90 84 80 72 64 65 64 69 73 71 64 63 66 67 69 76
96 92 90 87 55 69 76 76 86 84 82 92 86 80 75 62 57 75 88 97 96 86 85 78 81 72 80 90 96 96 91 91 85 91 90 88 82 84 79 78 78 78 73 72 72 73 77 82 84
99 94 84 94 80 80 78 84 82 69 70 79 77 81 74 64 59 55 56 87 92 95 94 79 74 77 78 81 91 95 94 96 97 96 91 94 95 96 92 90 87 90 90 88 81 82 85 89 91
90 75 70 78 84 99 83 94 85 77 70 75 70 69 70 75 59 60 59 50 70 86 91 91 87 86 87 92 89 92 92 94 95 97 98 94 93 98 98 94 91 91 97 98 96 92 89 88 80
94 78 83 84 90 86 89 84 77 76 83 77 72 65 71 67 62 56 57 58 56 59 68 85 94 96 94 88 87 92 93 90 95 98 98 98 99 98 98 97 98 97 99 99 98 89 94 93 91
82 76 82 88 87 95 95 78 68 80 71 63 68 63 66 75 61 54 56 60 58 62 64 77 87 91 95 98 97 96 91 91 96 97 98 98 98 98 96 97 95 96 98 98 98 94 95 94 92
86 74 95 93 95 95 98 95 66 47 41 48 60 64 66 69 66 54 56 58 62 66 66 61 65 76 84 90 97 96 97 95 92 92 94 98 96 96 96 96 97 97 96 96 96 94 89 88 89
84 92 85 89 90 92 83 88 56 50 54 52 47 57 65 64 77 62 54 53 57 64 66 64 61 60 58 63 80 89 93 96 94 93 94 92 91 92 90 92 97 97 93 91 87 87 86 85 87
87 92 64 75 70 81 68 54 44 49 57 55 55 54 53 52 63 60 63 64 64 66 70 71 67 66 67 63 60 64 76 86 93 91 90 94 93 94 94 96 96 89 81 84 82 83 80 82 84
70 57 68 85 86 94 73 55 59 57 62 58 60 64 66 64 67 67 65 64 64 67 68 68 69 73 71 70 67 68 65 68 84 88 89 90 88 88 89 84 79 78 77 75 80 78 77 76 84
69 70 69 69 77 81 75 55 49 50 58 65 65 64 65 66 64 64 64 64 64 64 66 68 70 71 70 72 70 68 68 73 76 84 84 85 82 83 82 79 77 75 76 73 73 76 82 81 82
87 75 60 72 74 75 68 56 57 51 58 60 66 66 66 69 70 70 71 68 68 68 67 69 68 70 75 75 73 72 74 72 73 76 77 75 78 79 77 75 74 72 71 71 70 74 76 76 80

GFSSGP_sfc_rhum_084.txt.gz
RH
56 45 43 44 41 38 37 30 26 25 28 24 25 29 33 40 35 43 58 54 53 48 51 63 83 81 80 78 76 80 79 79 81 79 78 79 79 76 73 71 70 70 67 67 70 75 77 70 73
48 47 47 48 47 38 33 25 32 23 24 26 33 41 41 59 49 58 63 66 53 49 50 53 83 80 81 79 78 77 76 80 81 80 80 80 79 76 71 70 69 73 71 72 68 72 74 76 76
52 50 51 52 46 38 31 27 27 21 27 35 34 40 38 54 56 52 57 57 52 50 48 54 82 81 82 79 82 75 73 78 81 81 82 81 79 72 71 70 74 75 78 74 74 76 77 78 77
46 58 53 63 44 32 27 22 23 20 20 22 37 37 49 56 57 58 56 53 52 50 48 75 84 84 84 82 83 76 71 74 79 82 84 81 79 72 70 76 79 83 82 72 78 80 82 84 78
52 53 52 55 42 30 27 24 21 23 20 19 29 38 42 63 69 70 66 57 52 50 50 59 86 85 84 86 83 78 73 71 76 80 82 79 76 71 72 77 80 80 78 77 78 81 80 79 77
58 53 48 47 36 29 29 28 25 27 23 22 22 30 36 49 69 77 70 64 54 48 53 54 81 87 86 88 84 80 77 73 76 78 82 80 78 75 71 74 79 77 75 75 75 75 79 79 77
58 56 48 34 29 30 30 26 31 32 27 23 23 27 30 62 59 71 87 94 85 59 57 57 60 69 91 88 85 81 78 78 78 79 82 84 82 79 71 74 77 79 74 75 75 74 73 73 75
53 54 49 36 30 30 24 29 30 32 33 20 22 34 29 39 56 69 78 90 95 82 67 60 62 57 55 68 89 85 82 83 82 81 82 87 85 82 79 74 75 80 79 78 77 74 73 72 70
50 66 52 39 33 29 21 24 27 27 31 26 24 26 22 42 75 78 76 79 95 95 89 75 66 55 48 59 73 87 88 87 85 79 89 78 57 58 64 77 80 85 82 79 78 76 75 76 76
63 60 44 29 27 29 29 27 28 32 34 33 30 29 40 67 76 73 71 84 88 92 90 92 78 66 52 51 68 64 61 55 49 51 56 59 51 48 49 74 90 88 86 84 76 74 74 71 37
50 62 37 35 38 39 42 36 31 36 40 31 32 30 38 59 66 67 65 79 85 88 94 91 82 74 58 50 64 76 64 57 51 48 50 50 53 61 57 59 63 59 79 51 60 58 41 37 34
55 38 36 38 42 47 48 42 47 39 33 27 53 30 41 53 63 67 62 67 75 83 91 90 89 86 71 49 51 66 69 64 60 53 48 51 53 56 51 50 50 50 47 45 43 38 38 38 38
54 37 31 31 41 43 41 48 46 44 34 34 44 49 39 43 56 63 63 66 69 81 82 91 93 93 84 64 49 53 69 66 58 56 50 46 50 57 51 50 50 47 46 44 43 40 36 36 38
36 48 47 43 40 41 47 44 41 38 32 39 49 52 37 35 47 64 62 62 68 74 77 83 90 91 86 87 62 50 54 66 62 58 55 52 49 51 53 51 51 47 46 42 39 38 40 40 43
50 59 45 43 43 46 37 47 49 35 36 47 47 49 45 33 45 68 67 64 54 56 60 71 84 89 77 73 72 52 53 55 67 62 60 57 57 54 54 49 52 52 51 45 45 40 46 50 48
51 48 72 32 34 43 46 43 25 26 33 44 44 52 49 45 50 60 64 64 56 51 56 68 69 77 65 78 74 63 62 58 56 62 62 66 61 62 57 53 53 51 50 50 50 49 52 49 46
61 59 52 47 36 40 50 42 27 28 34 44 48 52 55 59 53 64 56 54 54 53 57 62 64 67 76 72 71 70 68 72 73 65 61 68 68 65 57 52 51 52 51 52 51 52 49 48 46
64 82 56 49 36 44 47 42 29 41 46 49 52 56 58 62 72 66 67 68 60 64 58 56 62 72 75 79 74 76 69 66 69 75 70 68 67 65 62 53 50 53 54 52 52 50 48 46 45
73 86 87 60 38 46 47 40 36 71 63 60 60 67 60 67 88 96 91 89 80 73 59 54 58 75 87 88 87 82 82 75 76 77 70 64 62 58 58 52 51 54 54 53 50 49 51 52 53
96 87 72 56 50 51 44 42 38 60 66 60 63 63 61 53 82 96 97 96 90 84 78 64 77 84 77 90 86 86 85 81 78 77 76 70 70 64 66 63 58 56 61 57 55 55 57 55 59
97 96 79 85 59 53 49 57 67 59 57 59 58 67 71 62 70 90 94 94 95 96 95 93 82 91 91 91 89 89 93 85 78 75 80 79 77 88 80 78 86 86 85 78 69 62 62 74 77
96 85 90 96 93 82 53 73 61 49 56 55 53 68 78 78 57 67 80 94 91 95 93 93 94 94 90 91 91 86 92 94 90 86 84 84 82 85 95 95 96 98 97 96 97 96 94 82 75
74 63 92 96 86 70 64 66 59 62 60 57 55 72 91 89 75 65 64 77 84 90 91 88 90 85 85 86 90 94 90 94 94 94 96 87 94 92 98 98 99 99 98 99 99 97 99 99 97
59 65 92 71 70 92 81 76 60 56 57 49 53 58 61 63 73 78 64 59 66 66 66 67 78 80 85 88 86 94 95 96 98 97 97 97 97 98 99 99 98 97 97 96 96 97 99 97 97
76 75 94 90 85 83 88 68 58 42 40 39 35 46 52 68 72 66 68 68 68 70 62 61 70 72 83 86 78 83 82 90 90 89 90 94 95 95 95 96 98 97 94 88 92 94 94 93 94
76 74 76 74 80 90 72 72 50 44 43 41 36 49 58 72 75 80 61 61 58 60 58 54 51 54 50 60 82 89 87 87 84 82 85 87 87 88 86 94 95 89 85 86 86 89 90 89 89
73 79 48 62 59 62 59 57 41 42 47 46 54 54 64 67 80 83 63 57 53 52 55 55 51 53 57 55 51 52 67 79 86 85 83 86 82 86 88 93 92 92 87 89 86 85 87 86 86
80 51 66 70 77 79 48 48 52 50 55 55 53 56 62 66 60 71 63 53 48 49 49 50 48 51 55 55 55 55 55 57 66 76 81 79 77 80 80 86 86 87 83 78 75 76 75 74 72
58 55 51 51 54 52 45 47 41 48 51 56 54 55 57 58 66 56 56 51 49 46 47 47 46 48 51 52 53 55 57 58 59 63 69 76 78 79 81 82 80 74 70 66 66 67 70 68 68
66 58 47 50 55 48 39 44 41 44 48 49 52 53 59 61 60 55 50 44 44 47 48 50 50 50 50 50 51 54 57 59 59 60 66 66 69 73 75 75 72 67 63 61 64 68 67 65 69

GFSSGP_sfc_rhum_087.txt.gz
RH
57 42 34 39 44 35 36 28 17 17 16 14 17 22 24 24 34 49 49 42 39 40 54 65 83 80 79 77 76 80 79 80 83 80 78 78 79 79 75 72 70 68 70 73 71 71 71 70 73
37 32 38 40 44 39 30 20 21 17 17 15 17 25 30 32 36 51 52 48 41 46 59 57 84 83 81 79 79 80 77 78 82 81 81 81 79 76 74 71 69 72 72 75 76 73 70 75 76
43 32 43 39 44 44 29 20 18 17 17 21 25 26 29 32 40 42 47 48 44 54 58 61 84 84 82 79 79 78 79 79 81 81 82 82 80 74 71 72 75 75 77 76 77 76 77 77 74
35 42 44 45 34 30 27 18 16 18 16 19 23 28 27 44 42 45 47 44 44 53 51 82 84 84 84 84 80 75 76 81 80 82 82 82 79 74 72 76 78 78 73 76 76 78 79 80 76
35 37 42 40 39 28 20 17 16 20 18 17 17 27 30 46 48 51 50 52 49 53 55 62 84 84 85 85 83 78 74 80 79 81 81 79 78 72 73 79 80 78 78 78 80 82 81 78 73
44 37 42 39 30 24 21 17 19 17 17 16 17 19 26 47 54 59 58 56 58 56 59 60 80 87 85 87 84 80 77 77 79 81 82 81 77 72 76 78 80 79 78 78 81 79 79 78 73
48 40 40 32 26 22 21 17 20 20 18 18 15 21 18 48 47 60 64 70 86 92 71 73 59 71 89 89 85 82 79 79 81 83 84 83 80 78 70 79 81 78 74 77 77 79 80 78 72
39 40 39 34 31 27 17 17 17 20 22 16 16 22 23 23 48 76 80 85 86 93 91 94 73 60 50 70 88 85 83 84 83 87 95 90 86 80 82 80 86 81 78 79 78 74 73 73 71
39 54 44 36 30 24 16 16 16 16 21 20 19 20 19 45 67 68 75 79 88 94 93 91 94 71 46 59 75 84 87 86 85 88 92 85 70 66 66 74 87 85 84 80 77 75 75 79 77
49 50 39 24 20 21 18 19 17 17 20 23 24 22 20 45 74 66 64 73 78 81 87 94 94 90 69 55 70 60 55 56 51 57 67 61 58 52 49 74 88 87 86 84 79 77 76 74 43
40 50 32 26 23 28 32 32 27 22 27 21 23 22 22 35 65 62 53 58 69 72 92 87 87 87 94 66 82 80 53 46 45 43 52 54 47 52 56 65 69 72 86 64 68 67 49 40 34
41 31 30 30 28 31 38 32 34 31 28 20 27 35 37 31 54 56 60 49 56 76 81 86 88 93 96 55 82 79 77 45 44 44 44 50 50 58 53 56 59 54 54 46 48 44 38 36 34
37 35 28 23 24 26 29 37 36 33 28 25 25 34 38 33 38 44 55 50 46 63 72 75 89 96 97 78 54 84 79 58 48 48 47 47 52 59 51 47 46 46 43 41 43 39 36 35 34
28 31 33 34 32 30 32 33 31 29 26 28 30 31 34 35 32 40 48 66 52 56 66 73 84 87 95 96 60 57 82 74 56 51 48 44 49 54 53 47 49 45 42 41 41 38 36 34 34
32 44 40 33 30 35 34 42 38 24 23 28 27 30 38 39 33 31 50 63 66 59 58 70 75 85 92 96 84 54 59 78 76 53 48 44 43 45 45 45 47 47 45 41 39 35 35 39 38
44 40 48 28 24 26 35 47 26 20 18 25 28 31 36 40 38 29 52 58 63 79 60 63 66 82 88 90 74 69 54 61 81 76 57 49 50 49 50 49 51 49 49 49 44 43 43 47 47
57 67 44 34 25 27 32 41 26 18 17 20 25 26 31 42 46 42 51 61 79 84 56 62 68 77 81 78 72 69 55 55 56 69 70 66 55 56 56 57 56 50 58 48 48 48 46 49 48
52 56 48 44 31 28 37 38 30 21 17 24 23 26 33 42 50 60 54 56 76 75 65 56 60 74 76 78 83 83 66 56 61 59 56 60 66 65 65 57 52 51 61 50 50 49 49 48 46
58 59 55 41 35 52 44 33 27 23 41 33 32 33 36 43 62 78 63 62 69 78 78 68 65 75 85 86 93 87 79 67 66 66 70 72 70 67 65 62 52 56 61 55 52 50 52 53 49
66 76 70 52 42 47 62 35 28 25 43 48 46 55 58 46 67 89 85 90 90 90 92 80 74 81 86 85 85 86 80 84 82 81 74 69 66 64 67 67 59 62 64 60 61 57 57 56 56
80 95 79 87 54 54 47 45 33 26 42 52 47 50 57 56 57 86 88 95 96 93 95 88 81 83 86 92 92 95 85 84 88 81 82 77 72 78 76 75 80 84 85 83 82 81 62 71 72
97 65 88 95 84 74 43 58 32 34 45 48 45 48 59 64 62 78 86 93 96 94 96 97 87 95 93 94 94 95 95 93 87 85 84 86 78 80 87 92 85 89 91 95 95 95 94 84 84
82 88 83 79 73 88 55 65 38 37 45 44 42 46 57 66 74 72 88 88 90 96 98 97 94 96 97 95 96 96 95 94 94 96 88 86 92 91 92 94 96 96 97 98 98 99 99 100 99
76 96 96 81 93 95 76 82 63 54 49 45 46 44 64 86 92 83 77 77 86 94 92 96 96 94 95 96 96 96 96 98 98 97 96 96 97 97 98 99 98 96 97 99 98 98 99 99 99
78 97 96 98 99 72 61 94 58 45 42 38 35 52 80 89 93 92 78 71 83 85 78 77 79 93 93 94 91 94 94 94 90 92 94 87 91 90 93 97 98 98 97 98 98 98 96 96 96
74 76 95 84 78 80 79 97 90 48 36 37 38 76 86 90 85 86 75 71 80 80 65 59 63 61 60 83 88 90 91 93 85 86 88 85 82 81 79 90 92 94 97 97 97 97 95 93 96
75 98 70 94 65 78 88 70 51 70 49 60 66 79 82 91 86 78 74 58 62 64 55 55 53 55 58 58 56 71 85 84 83 88 82 83 80 82 81 84 88 92 96 98 97 96 93 91 92
83 62 71 70 86 72 50 55 67 80 71 64 75 73 72 77 81 82 82 76 53 50 48 48 50 51 54 55 56 57 56 58 69 81 84 83 82 83 92 91 90 95 96 95 93 95 90 89 87
64 54 46 46 47 70 45 59 43 54 74 67 67 73 80 83 76 70 78 80 65 50 46 45 46 49 50 52 52 56 58 56 56 59 62 72 74 75 83 87 95 95 94 90 88 85 81 77 76
55 45 39 50 48 40 40 58 42 46 62 55 61 65 63 63 72 64 45 40 41 41 42 45 48 49 50 46 50 55 55 57 58 56 60 63 69 74 77 80 87 86 86 81 79 77 71 69 72

GFSSGP_sfc_rhum_090.txt.gz
RH
54 51 49 54 74 61 56 47 31 29 24 15 14 20 32 33 53 79 58 52 52 66 71 78 83 81 80 80 78 81 82 86 83 80 78 78 79 80 76 72 71 73 75 74 71 70 66 76 75
51 44 48 58 69 66 46 29 31 26 20 17 19 21 31 44 55 66 68 53 50 62 71 72 83 82 81 80 79 81 78 81 84 82 82 82 80 79 75 71 71 76 77 76 72 69 71 76 77
54 43 60 65 66 71 47 29 24 19 17 20 26 25 32 54 52 61 62 51 58 62 64 72 84 84 82 80 81 81 78 79 83 82 82 82 80 78 73 73 76 78 81 78 74 71 73 76 75
42 54 53 59 53 43 42 31 26 21 20 23 24 30 33 59 67 54 55 50 62 66 69 86 86 86 84 84 82 80 80 77 82 82 82 83 81 77 75 77 76 76 76 79 78 79 80 76 72
46 54 63 62 54 41 29 27 25 24 21 22 22 28 33 60 58 56 56 51 62 68 80 80 85 85 86 86 83 81 79 81 81 82 81 83 80 77 77 77 68 66 77 77 77 79 80 75 69
63 56 68 61 45 31 30 25 24 23 19 21 21 22 43 62 65 69 66 62 64 72 74 74 85 88 86 88 84 81 80 82 83 83 82 82 80 76 76 73 63 66 76 80 81 81 79 74 69
70 59 58 48 42 32 24 21 24 23 25 23 19 22 42 75 75 70 71 83 91 90 90 92 79 83 87 90 87 83 81 83 84 83 82 83 80 80 68 66 74 79 80 83 83 80 79 74 71
51 54 59 48 40 36 23 20 19 22 22 19 18 26 27 59 69 77 86 94 95 94 93 94 92 84 77 94 88 86 84 86 84 84 86 88 82 75 67 79 77 76 82 83 84 82 81 78 75
45 69 68 50 42 34 24 22 17 15 20 22 20 24 23 66 81 89 92 90 96 95 93 93 96 92 88 84 88 87 88 88 93 96 96 87 73 65 65 80 83 83 85 84 80 77 79 80 78
59 70 59 36 29 29 22 23 26 28 22 24 25 23 22 70 78 82 89 93 95 96 94 90 94 97 91 79 93 82 83 90 86 89 94 84 68 69 68 86 90 86 87 86 81 80 82 78 74
48 64 46 36 30 30 33 32 30 35 41 33 25 25 24 31 66 80 83 73 88 88 90 92 91 88 93 92 93 95 71 77 73 83 84 85 65 70 82 93 86 91 93 93 89 88 82 73 66
46 36 34 35 31 33 35 34 41 36 36 30 28 33 43 44 56 78 71 68 68 83 87 90 87 90 85 94 93 87 77 63 66 69 69 78 66 70 80 82 90 92 92 87 87 85 72 63 54
38 36 31 32 32 28 25 33 36 37 31 28 27 30 36 42 48 70 86 69 71 77 84 88 92 93 94 96 97 91 88 56 59 63 61 65 76 78 74 75 78 75 72 70 69 66 58 54 50
32 36 35 34 36 38 37 34 33 30 30 29 29 32 32 36 42 55 81 84 73 79 75 80 91 91 93 96 94 97 91 82 62 63 65 60 72 71 74 66 65 68 62 63 60 56 57 52 50
36 49 44 41 39 40 34 46 43 32 28 28 26 28 30 33 42 49 62 78 72 74 66 76 91 86 89 91 91 90 91 81 82 57 59 60 66 70 69 66 67 64 62 56 56 54 51 52 50
54 52 65 41 36 34 37 48 34 30 31 31 26 24 30 39 44 48 46 70 76 81 73 74 76 88 88 90 92 84 80 88 82 79 54 58 59 60 63 66 66 64 65 66 64 60 58 64 64
68 80 62 47 32 33 35 41 31 27 26 26 26 22 27 38 48 51 55 66 75 81 83 85 79 88 90 93 89 88 82 74 88 82 83 60 63 61 65 69 71 69 73 69 64 63 61 66 68
72 67 58 54 39 38 45 39 32 28 26 27 22 20 26 32 52 64 72 75 84 88 86 83 78 87 83 90 84 89 93 73 72 84 88 78 66 68 73 75 73 71 75 69 67 66 68 66 69
72 78 71 56 40 44 53 49 46 36 30 32 32 27 26 33 84 88 86 80 90 92 94 90 87 78 91 90 90 90 87 90 82 83 78 79 83 76 81 77 70 69 74 70 64 65 66 70 69
63 76 81 62 52 54 58 63 47 41 33 35 53 48 63 59 87 89 92 96 94 93 95 94 90 87 92 87 86 88 88 87 92 92 84 83 85 81 84 84 77 69 77 76 69 70 74 71 69
83 87 87 87 71 65 71 82 59 44 30 50 60 62 64 66 73 88 88 96 95 91 90 94 94 91 88 88 93 95 97 97 92 90 94 91 82 84 81 82 86 87 92 90 90 92 93 84 84
97 68 83 95 98 93 60 89 55 37 32 49 58 66 72 80 76 87 89 96 96 96 94 96 97 97 93 95 96 93 90 97 96 98 96 93 87 88 88 88 90 93 97 97 97 98 98 98 98
95 84 94 90 95 91 81 89 48 41 60 49 54 62 75 84 81 83 87 88 93 96 95 97 97 97 99 98 98 98 98 99 99 99 97 95 95 94 92 94 95 97 98 98 98 99 99 99 99
88 96 84 78 95 98 89 89 63 52 44 52 46 51 83 90 88 90 82 88 93 94 96 97 96 97 98 98 99 99 99 99 100 99 100 99 98 98 96 96 98 98 98 99 98 98 98 99 99
83 100 98 98 98 98 97 98 99 61 49 48 53 72 88 91 91 90 93 92 91 92 91 87 92 94 97 98 98 97 98 99 97 96 97 98 97 98 98 97 99 99 98 97 98 99 99 99 99
82 92 99 96 97 96 94 99 98 85 51 43 66 89 88 92 93 95 93 91 92 90 86 75 88 90 85 93 96 98 97 96 97 96 96 97 93 91 88 96 97 97 97 98 99 99 98 98 98
82 99 91 99 96 99 99 100 86 80 86 91 93 90 93 91 92 94 93 89 87 87 76 73 76 78 72 75 77 80 96 95 95 93 88 88 92 90 90 94 96 96 96 96 98 98 98 98 98
89 73 84 95 97 94 95 91 99 95 95 87 88 94 92 88 93 92 91 89 77 70 56 53 57 61 62 63 66 67 71 78 83 94 95 93 91 93 91 96 93 95 93 94 98 98 98 98 98
79 68 65 55 66 96 72 96 93 95 94 92 92 89 90 86 85 87 90 86 65 55 56 56 57 59 59 59 64 67 69 68 69 70 76 84 90 88 96 96 98 97 94 97 98 98 98 97 97
60 56 48 80 71 69 82 97 77 73 80 85 87 86 88 88 86 81 70 68 58 46 46 49 52 56 61 60 58 63 67 68 71 72 72 73 80 85 90 89 97 98 98 98 98 96 94 94 92

GFSSGP_sfc_rhum_093.txt.gz
RH
58 58 72 78 87 93 92 76 56 45 37 26 22 24 31 53 57 68 69 68 80 81 80 80 84 82 81 80 79 83 87 85 83 82 79 80 80 79 76 73 73 76 78 78 74 76 71 71 71
70 62 71 78 92 97 85 52 45 38 30 25 23 26 33 76 70 76 72 73 75 79 80 81 85 84 82 81 78 80 82 85 84 82 83 83 80 79 76 72 74 79 78 75 74 75 72 72 74
62 57 73 84 94 94 75 46 34 28 26 25 29 32 40 78 70 75 72 66 72 81 79 81 86 85 83 80 80 78 77 83 86 84 83 84 81 79 74 75 80 81 80 78 76 74 75 76 78
59 64 67 87 87 67 62 49 40 36 28 24 26 34 60 70 71 69 65 67 78 79 79 86 87 86 85 85 83 81 77 78 84 84 83 84 82 79 77 78 83 82 79 76 74 75 77 75 74
63 71 88 89 79 61 49 42 38 35 32 25 26 31 50 75 67 66 66 70 76 83 87 85 87 87 87 86 85 84 81 80 82 83 81 82 80 80 79 80 81 78 79 79 77 79 77 72 70
74 72 92 92 71 50 42 35 37 32 29 26 24 34 70 78 73 74 74 82 81 90 86 83 87 88 88 87 86 85 83 85 84 85 83 82 80 80 78 78 71 64 68 77 78 80 75 70 68
84 91 87 76 60 48 38 28 31 31 29 26 28 30 74 84 82 83 92 94 94 92 90 90 87 88 91 90 87 84 84 87 87 83 82 82 84 79 74 71 63 73 80 84 85 80 76 71 68
66 63 78 81 67 54 33 29 25 26 25 22 26 33 38 72 85 96 97 98 97 96 96 96 95 90 92 96 89 86 84 88 86 85 84 89 88 81 64 76 73 67 87 88 87 83 78 75 74
56 85 89 73 58 48 33 31 26 28 30 26 26 29 57 77 89 89 96 97 95 98 98 96 95 88 84 90 92 89 86 90 92 92 94 91 76 66 67 79 80 83 87 87 86 85 86 84 80
70 91 77 55 49 45 34 38 38 39 41 40 36 30 41 81 82 85 90 95 95 98 98 98 97 94 90 80 88 92 94 97 98 97 90 84 70 66 61 82 83 85 88 87 82 82 84 81 82
57 78 59 51 46 41 40 35 34 46 49 43 42 35 31 49 75 82 84 88 90 94 96 95 97 97 96 93 95 97 93 98 98 97 95 90 77 73 78 89 79 80 94 97 93 94 92 87 79
53 41 40 43 37 38 40 32 33 40 44 36 35 34 34 38 58 82 86 88 88 90 91 95 93 95 94 97 96 97 95 84 96 95 87 97 81 76 86 89 89 82 98 97 97 98 89 80 71
50 46 39 39 40 38 35 43 37 34 32 31 30 32 34 35 46 66 78 79 84 90 89 95 95 93 96 95 97 95 96 90 75 89 84 91 92 83 81 84 91 96 97 94 97 92 81 74 66
43 45 43 42 42 41 42 42 46 38 30 29 28 31 29 31 34 62 79 75 82 82 94 97 96 96 95 95 94 95 97 97 66 73 77 73 73 77 79 80 86 89 84 84 80 79 74 67 57
50 62 58 50 45 46 41 48 46 38 35 33 30 29 30 31 34 42 73 81 77 82 83 92 97 95 95 94 93 95 94 97 95 70 66 73 70 73 76 79 82 79 72 71 70 66 62 61 56
68 67 82 53 49 46 50 60 38 31 34 36 33 31 30 31 28 33 59 76 74 84 81 89 83 92 91 93 95 86 92 96 96 93 79 66 67 69 76 74 72 69 67 66 66 65 63 65 65
82 91 79 63 47 47 50 49 38 30 32 34 34 35 31 31 31 38 52 71 84 86 86 92 93 94 92 92 90 93 84 93 94 92 86 67 67 66 69 71 71 66 70 71 69 70 64 66 72
82 86 70 72 54 50 56 52 43 38 34 32 29 30 29 29 31 43 72 75 86 91 92 92 95 94 92 93 95 95 88 90 90 92 90 72 63 63 65 72 69 72 79 77 74 66 71 67 68
84 89 92 73 60 60 60 57 52 50 48 48 34 31 32 25 29 89 92 88 94 97 96 93 94 95 95 95 96 97 93 88 89 88 84 78 74 68 74 79 75 77 74 69 68 71 72 78 72
80 90 87 70 58 66 79 77 65 60 52 48 41 44 58 38 89 93 96 95 93 96 95 95 94 92 94 93 93 90 89 88 82 81 78 80 70 77 80 82 78 74 81 73 70 73 77 75 76
87 93 87 88 78 78 91 88 71 57 54 50 42 58 77 82 91 94 97 96 96 97 98 97 94 95 94 94 95 96 94 87 81 80 78 81 80 77 79 90 90 89 89 90 89 88 84 85 86
98 70 74 99 99 97 77 95 68 64 59 48 47 67 82 84 91 96 96 90 97 97 96 98 97 97 95 95 96 94 94 93 94 99 97 91 74 89 93 94 94 92 94 96 96 98 98 96 97
88 80 96 99 91 90 81 97 77 53 52 41 61 68 76 94 93 94 95 90 93 97 99 97 96 97 98 97 94 95 95 95 100 100 99 97 98 93 88 88 96 97 98 96 96 99 99 99 99
71 97 100 90 93 99 83 88 81 70 60 54 63 72 98 97 97 96 87 88 93 94 95 92 92 93 96 98 98 99 99 97 96 100 100 100 99 99 96 97 96 97 98 98 98 97 98 98 98
81 100 98 98 98 94 95 93 90 90 88 68 60 90 97 97 97 97 93 93 92 91 89 85 90 94 96 98 99 99 99 99 98 97 99 100 99 98 98 97 98 99 99 99 99 99 99 99 99
89 99 99 97 97 98 99 98 99 88 92 94 89 93 93 96 94 94 94 92 90 86 85 88 88 89 88 94 95 97 99 99 99 98 97 97 97 95 92 97 97 98 98 98 99 99 99 99 99
81 99 88 100 99 97 98 100 95 84 86 93 94 93 96 96 96 96 94 93 88 84 78 73 71 75 82 86 87 92 94 99 99 98 96 96 97 96 96 96 96 95 96 98 98 99 99 99 99
89 80 92 96 97 96 97 97 99 99 99 93 94 96 95 94 96 95 94 92 91 85 80 69 60 62 65 71 76 77 82 88 91 95 99 95 90 94 93 96 95 96 96 98 98 98 98 99 99
83 88 83 74 80 94 91 97 97 99 97 95 96 95 91 91 95 92 92 86 78 63 56 51 53 57 61 62 64 70 72 72 72 75 80 88 94 94 96 99 98 97 96 97 97 97 97 98 98
70 74 61 82 76 81 85 98 90 93 92 88 92 94 92 89 89 88 85 78 59 54 53 55 56 59 57 57 66 66 64 66 73 76 76 75 78 81 92 93 95 98 98 97 98 98 98 98 98

GFSSGP_sfc_rhum_096.txt.gz
RH
68 69 74 75 85 94 96 85 75 57 47 36 29 30 28 41 49 65 76 79 85 87 84 81 83 82 82 82 83 89 88 86 85 83 77 76 81 79 74 71 75 76 77 77 77 76 73 76 76
72 66 73 81 93 97 92 76 65 53 40 32 28 27 33 59 76 82 87 82 79 83 83 82 85 84 82 81 80 86 86 86 85 84 83 81 81 78 75 73 75 79 78 77 75 72 70 76 78
64 62 73 88 95 96 84 58 51 39 37 35 32 29 48 82 76 78 83 81 80 84 82 84 87 85 83 80 79 79 84 86 86 85 84 84 81 78 74 76 82 83 80 80 78 69 74 78 78
62 67 72 93 93 79 73 61 52 46 37 33 29 31 69 68 72 71 78 80 87 89 89 89 88 86 86 85 82 77 79 84 86 86 83 83 81 78 77 81 84 83 82 79 76 71 78 80 76
68 76 91 94 90 76 64 53 48 43 41 33 30 31 66 74 72 76 78 80 91 90 92 88 89 88 88 87 86 83 79 80 83 84 81 81 81 80 80 85 85 82 81 77 75 77 77 75 72
80 78 94 94 80 62 54 47 42 40 36 30 29 34 60 82 81 86 86 89 86 90 90 87 89 89 89 89 88 87 84 82 84 85 84 82 83 80 81 84 83 82 80 76 77 76 73 71 69
87 92 92 88 77 61 46 37 36 33 33 28 27 32 47 87 97 96 96 97 96 94 94 93 90 90 91 91 90 88 85 86 88 87 87 85 83 81 80 81 78 70 69 82 82 77 70 70 69
76 77 87 86 80 70 46 37 33 32 35 28 28 38 44 48 98 98 98 99 99 99 98 98 97 96 97 95 89 87 85 88 88 87 86 86 86 83 79 79 72 74 81 84 86 79 72 72 73
61 86 94 81 70 62 41 43 38 36 42 40 38 41 35 47 97 96 96 97 98 98 99 98 98 95 98 96 92 88 86 90 92 93 92 97 89 73 71 79 80 76 86 89 87 82 81 84 80
73 94 81 62 61 59 49 47 38 40 41 45 42 35 31 39 54 87 88 93 98 98 99 97 98 97 95 93 97 96 95 98 98 98 96 94 87 66 64 80 83 80 87 89 88 87 88 84 87
62 82 67 58 51 49 45 39 36 37 46 45 47 38 35 40 51 64 85 89 93 96 97 98 96 96 96 95 98 99 98 99 99 97 98 94 84 78 81 78 73 83 91 97 94 95 95 88 83
59 48 44 47 43 46 48 39 42 37 34 38 38 36 40 38 47 59 70 83 90 98 96 97 98 98 95 96 98 97 97 92 97 98 92 98 96 91 84 83 80 80 91 98 98 98 95 90 82
54 46 40 41 42 41 37 46 46 42 37 32 31 32 36 36 37 45 62 82 82 90 97 95 98 97 98 98 99 98 98 95 83 96 95 92 97 97 94 93 89 79 90 95 99 98 95 89 79
51 58 55 52 49 47 47 42 48 41 36 35 34 35 34 33 34 41 59 74 79 83 96 97 97 96 97 97 97 97 96 97 95 88 92 90 95 96 94 93 90 91 89 92 98 97 93 82 75
59 65 62 54 54 52 46 50 46 33 36 33 31 29 33 34 33 36 46 67 77 86 97 96 94 92 95 96 94 98 96 94 98 91 88 91 92 93 92 84 84 83 84 88 92 91 84 78 68
73 72 82 55 55 52 53 59 41 34 37 37 32 29 28 37 35 32 34 54 77 90 95 95 83 92 95 97 98 98 97 96 97 97 88 84 82 85 86 86 81 79 81 82 84 82 78 72 69
80 86 82 69 53 55 61 67 48 39 37 37 34 32 32 35 41 38 35 50 77 88 90 94 92 89 90 94 96 97 94 96 95 94 91 75 76 75 80 84 82 77 81 77 72 75 69 72 73
81 86 78 75 59 59 68 68 52 45 46 40 36 33 32 30 36 38 40 58 76 91 91 95 96 95 95 95 96 98 95 94 95 92 91 77 68 70 74 75 73 71 74 73 71 70 73 69 70
82 92 94 74 60 69 73 69 60 52 51 52 54 46 38 33 32 45 55 84 91 96 96 97 98 97 97 98 95 96 97 94 91 91 83 85 72 74 76 70 69 71 67 66 65 72 71 76 72
85 91 88 74 62 77 84 85 72 66 62 54 53 61 53 41 45 78 91 92 97 96 93 95 96 97 97 98 98 96 94 94 89 89 78 77 80 75 76 74 67 69 71 74 72 71 82 77 82
90 96 89 89 71 74 87 82 78 62 62 58 53 56 55 53 51 90 96 97 98 98 97 97 96 96 97 97 97 98 97 94 96 94 95 84 82 83 77 78 78 83 82 83 84 82 82 83 88
95 74 76 86 98 96 82 93 70 62 67 65 62 64 64 85 94 98 98 99 97 99 98 92 95 95 97 97 98 97 97 96 94 93 95 93 85 81 87 86 85 83 84 89 86 84 83 90 93
85 78 82 97 99 99 82 97 78 57 56 63 45 56 88 98 99 95 96 95 96 98 98 96 97 96 96 98 97 98 98 95 98 99 96 99 98 90 89 93 97 98 99 96 96 98 97 95 93
64 82 97 99 99 100 87 91 81 96 90 92 61 84 96 97 98 98 91 88 92 95 94 91 90 90 93 97 97 98 98 98 98 98 99 99 99 99 93 94 96 94 98 98 98 98 99 98 98
83 100 98 95 98 94 98 91 85 90 91 95 85 94 96 94 94 96 95 93 91 91 90 87 94 93 92 94 96 98 98 98 99 95 96 99 99 99 99 98 96 98 97 98 98 99 99 99 98
91 98 99 97 97 98 99 97 98 86 79 83 92 95 95 96 95 97 94 90 89 87 88 87 87 88 88 92 94 93 95 99 99 99 98 99 99 99 99 99 99 99 98 97 98 98 98 99 99
86 99 91 100 100 98 98 99 96 80 85 91 95 95 96 96 95 97 94 95 90 86 83 72 76 78 84 90 91 92 92 96 99 99 98 98 99 99 98 99 98 97 96 97 98 99 99 99 98
87 81 95 96 98 96 97 97 99 98 98 91 95 96 96 94 95 94 95 93 90 84 82 81 71 68 76 80 87 91 93 92 92 93 97 98 98 98 98 98 97 97 97 96 98 99 98 99 99
84 91 90 82 79 96 94 97 99 100 99 97 96 96 96 97 97 96 93 93 91 84 85 74 72 64 60 68 70 72 81 84 85 83 82 83 86 90 96 98 99 99 98 97 98 98 97 98 98
76 77 77 87 77 87 90 98 94 95 95 93 95 94 94 93 92 92 92 88 88 84 74 64 60 61 61 60 65 67 67 67 70 71 75 78 78 78 85 91 95 97 99 99 98 97 96 98 98

GFSSGP_sfc_rhum_099.txt.gz
RH
71 74 80 70 79 93 97 82 81 70 56 44 36 37 34 30 32 58 76 89 91 90 87 84 83 84 86 87 89 90 90 88 86 82 76 77 80 75 72 76 75 73 73 75 75 76 78 73 73
77 69 71 80 87 91 72 84 75 65 49 41 36 31 37 38 79 83 91 87 86 88 87 85 84 84 83 86 88 89 86 86 86 84 80 80 81 77 72 75 77 79 79 79 77 77 77 76 76
64 65 72 87 95 89 68 67 66 49 45 44 38 32 38 74 78 83 85 87 84 90 88 86 86 85 83 81 87 86 86 85 86 85 84 84 81 78 72 75 81 83 83 80 78 70 78 77 74
61 68 74 90 95 85 77 75 62 53 43 39 35 34 33 73 78 78 89 84 91 95 94 91 88 87 86 85 83 85 83 83 85 87 83 83 82 78 76 83 86 85 83 79 76 77 79 80 76
69 78 92 96 92 83 72 58 50 48 47 41 36 34 33 73 82 86 93 88 94 96 95 91 89 88 87 86 84 82 84 84 84 83 80 80 82 79 80 86 86 84 83 79 74 76 81 78 75
80 78 89 92 87 72 58 52 46 42 37 32 32 34 34 87 81 94 93 97 94 96 96 92 90 89 90 88 88 85 83 83 86 87 85 82 82 81 81 84 85 83 78 76 76 79 76 74 71
86 88 90 92 86 69 52 42 43 41 42 34 36 39 38 44 49 96 98 97 97 98 97 97 95 93 92 91 91 90 88 84 88 89 88 86 86 83 81 86 84 82 79 79 78 76 72 71 72
82 82 90 87 84 73 54 40 40 42 44 36 41 51 55 36 77 92 96 97 98 98 98 98 98 97 97 97 92 91 89 89 91 90 91 90 91 86 82 87 84 82 82 85 83 76 71 73 77
65 90 94 85 76 68 52 54 42 37 46 39 44 45 38 35 54 76 95 95 96 95 98 99 99 99 98 96 94 89 89 89 90 93 92 92 95 85 84 83 85 81 80 84 84 78 79 81 78
78 93 83 69 68 67 56 53 43 41 38 43 45 36 32 38 48 56 75 91 98 95 98 99 99 98 99 97 97 96 95 97 97 96 96 97 94 81 71 79 84 82 83 91 87 83 86 86 93
75 86 73 63 52 52 51 46 40 42 47 44 40 40 34 39 45 53 56 74 92 95 95 96 98 98 99 99 99 99 99 100 99 98 98 96 95 84 75 74 73 78 93 94 94 96 97 92 87
62 52 52 49 46 47 48 44 43 41 43 34 38 36 39 37 44 49 52 56 80 95 96 95 97 99 98 97 98 98 98 99 99 98 96 95 98 93 92 79 77 80 95 95 98 99 97 92 84
57 52 52 50 52 47 42 49 47 44 38 37 38 38 38 38 37 40 50 58 72 91 97 93 97 98 98 98 98 98 98 97 96 98 96 93 95 97 96 93 92 81 94 92 98 98 97 94 89
63 62 62 56 54 53 51 44 46 43 38 34 34 37 39 37 34 38 45 47 57 77 90 98 97 97 98 97 96 96 97 97 95 96 98 94 92 92 96 98 96 90 85 94 94 95 95 96 89
64 68 65 58 57 53 51 54 55 34 36 36 34 31 32 38 36 36 38 42 52 62 87 98 98 98 96 96 97 95 95 93 97 96 96 94 94 92 93 97 99 97 92 93 94 95 91 92 83
77 74 76 49 56 54 51 56 45 40 39 40 37 36 34 35 37 36 37 42 42 68 91 96 88 96 97 96 95 96 93 95 98 98 98 95 93 90 93 93 95 96 96 90 93 95 90 91 86
76 81 80 69 56 58 59 66 54 45 45 44 38 38 36 39 44 42 39 36 44 60 90 96 96 96 97 97 96 97 96 98 97 98 98 95 92 88 85 88 86 83 91 90 86 89 86 84 81
72 87 80 82 61 62 67 65 51 49 52 50 46 42 40 37 42 42 44 42 52 66 92 95 96 96 95 97 96 99 98 99 98 97 98 94 81 84 88 77 80 84 83 85 85 82 80 78 73
78 90 94 76 62 74 76 72 63 58 59 58 52 53 46 45 42 49 50 56 60 76 94 95 97 96 98 99 96 98 98 97 98 98 92 91 87 78 83 83 84 84 82 78 77 75 75 75 72
90 96 91 76 66 69 74 78 69 65 64 64 60 58 57 57 53 51 61 77 88 90 95 96 96 97 97 98 97 96 94 93 96 93 87 86 88 82 86 86 84 84 83 75 72 74 77 70 79
92 96 89 89 71 68 82 89 69 55 59 63 65 62 64 61 55 53 71 95 96 96 98 97 96 98 98 98 99 98 98 98 99 96 93 88 87 90 89 87 87 84 82 80 80 78 72 74 88
95 76 76 84 96 98 72 95 75 62 61 75 70 70 72 68 68 95 94 93 98 98 96 93 94 96 96 97 98 98 97 96 97 94 93 91 92 93 92 89 87 86 85 84 85 85 81 84 86
82 78 87 86 98 99 88 98 79 78 86 80 89 59 80 93 93 91 96 95 99 99 98 98 97 93 96 96 98 96 95 93 97 97 96 93 95 96 96 98 96 93 92 88 92 92 88 89 91
67 86 93 93 97 97 93 85 83 88 96 88 83 97 91 89 92 95 95 92 95 96 96 94 94 98 97 98 97 98 98 97 97 95 97 97 95 95 95 96 97 99 99 98 98 98 98 94 95
86 98 97 93 94 92 95 96 87 86 86 93 95 95 96 96 97 96 94 93 91 94 96 93 92 96 95 94 92 94 97 98 97 96 96 96 96 98 99 98 96 96 96 98 99 99 99 99 98
94 96 99 97 100 96 96 96 91 80 78 84 88 96 96 96 96 97 96 94 90 88 82 83 85 88 95 96 94 94 94 97 99 99 99 96 97 97 97 95 96 97 97 98 99 99 99 99 99
90 98 90 100 93 98 94 97 93 80 85 87 93 94 96 96 96 95 92 90 87 87 86 80 79 81 81 87 92 94 94 94 96 94 96 98 98 98 99 99 99 99 99 98 99 99 98 98 96
90 86 96 99 97 95 96 97 98 98 99 92 94 96 96 93 94 95 93 93 89 88 86 86 84 82 78 78 82 91 92 91 91 92 92 90 91 93 98 99 99 99 99 99 99 99 97 98 97
86 88 90 92 90 97 95 98 99 100 100 97 95 95 96 96 96 95 95 93 92 86 87 85 80 76 73 72 73 73 80 83 83 83 86 88 86 86 90 95 97 98 99 99 99 98 98 98 98
80 83 83 93 80 88 86 97 90 95 95 95 95 92 95 94 95 94 94 94 92 91 92 88 82 67 66 66 69 71 70 70 74 73 74 74 77 79 79 80 86 91 93 97 99 98 98 98 98

GFSSGP_sfc_rhum_102.txt.gz
RH
75 76 81 66 66 85 88 72 84 73 66 49 44 42 39 36 32 48 78 93 95 95 93 85 82 84 86 85 86 87 88 86 83 75 71 73 77 73 74 74 72 70 68 72 75 77 72 71 72
79 70 69 73 85 55 40 84 82 71 58 47 43 38 41 37 46 78 91 92 92 92 91 88 86 86 87 86 88 89 87 86 85 82 76 80 77 74 74 75 74 77 76 78 79 77 74 73 74
68 62 69 81 92 62 48 76 75 56 52 52 40 37 37 63 75 85 83 92 92 96 94 90 86 86 87 88 88 87 86 84 86 84 80 83 80 75 74 76 81 82 84 82 83 80 78 77 76
63 69 76 83 92 84 78 77 64 49 42 41 40 38 32 80 83 90 90 91 96 97 95 91 88 87 87 89 90 87 84 84 86 85 84 83 82 78 75 81 87 87 86 80 80 79 78 78 75
71 74 90 93 91 83 78 67 51 48 49 42 37 35 36 81 46 64 95 92 97 98 96 94 89 88 87 87 89 88 86 84 84 84 81 79 81 79 80 86 88 85 82 80 77 78 79 74 77
81 77 76 80 88 78 65 58 53 43 43 36 41 41 48 68 43 84 92 97 97 98 97 96 91 89 89 88 87 87 88 87 86 86 84 82 82 81 81 86 88 85 81 79 76 78 78 73 74
83 75 82 90 88 76 60 45 50 50 48 43 43 45 44 43 40 60 91 96 98 98 98 98 96 95 92 90 90 88 86 87 89 89 87 86 86 84 81 86 86 83 82 81 80 80 76 73 74
78 76 92 90 87 74 57 49 44 46 47 39 46 53 52 38 42 61 90 93 95 98 97 97 98 98 96 96 94 92 91 89 90 92 90 93 91 89 85 88 87 84 84 84 84 78 74 76 78
68 85 90 81 83 67 58 58 47 39 49 39 40 47 40 35 47 52 64 82 93 94 98 98 97 97 96 96 96 92 89 91 93 94 95 95 96 93 88 89 90 87 86 86 82 78 79 83 82
80 82 75 72 71 70 60 57 49 45 44 45 40 38 34 36 47 51 57 69 74 93 93 97 99 98 98 97 96 96 96 97 96 95 95 97 96 94 82 90 92 87 86 89 84 80 84 86 91
82 83 75 68 59 52 52 51 45 48 52 44 44 40 36 38 43 50 49 54 59 81 96 92 97 99 98 99 99 99 99 99 99 97 97 97 97 94 90 88 83 84 90 96 92 95 97 94 92
62 58 56 52 50 53 50 45 47 47 46 36 38 40 41 39 46 52 50 49 53 70 89 94 92 98 98 99 99 99 99 99 99 99 97 98 99 98 96 81 86 86 94 98 98 99 97 94 90
59 62 57 55 57 54 48 54 51 49 39 36 38 41 43 41 40 39 51 49 56 54 77 93 87 97 98 99 99 98 97 98 97 99 98 98 98 98 97 95 93 89 98 99 99 99 98 96 92
73 66 65 59 57 56 55 50 50 47 42 40 38 36 41 39 35 36 46 50 47 50 64 89 91 95 98 96 97 97 97 95 94 98 98 96 98 98 98 98 95 94 95 98 96 95 97 94 95
70 64 61 56 59 54 52 53 61 42 39 39 38 36 37 39 39 36 35 42 42 50 58 79 96 90 98 98 98 96 94 93 94 92 93 97 97 97 97 98 99 98 96 94 96 94 96 96 91
75 69 58 43 57 53 46 49 45 40 42 41 40 38 39 42 38 34 35 40 42 50 53 80 88 93 93 98 98 98 96 97 96 96 96 93 97 96 97 98 98 98 98 97 98 94 96 98 93
72 70 76 66 59 60 62 58 56 49 48 49 44 42 39 39 44 40 39 38 41 47 52 80 95 98 97 98 98 97 96 97 97 98 98 98 96 96 96 97 97 97 97 97 98 98 91 96 92
73 82 80 80 63 65 71 67 53 48 50 51 51 51 49 44 44 45 46 43 49 52 57 80 96 97 98 98 99 99 99 99 98 98 99 96 97 93 96 98 98 97 92 93 94 95 93 91 84
79 90 92 79 64 77 78 74 65 57 60 65 65 61 55 47 45 51 53 57 61 64 64 86 97 98 98 98 94 96 97 98 99 99 96 97 95 91 95 94 95 95 87 78 86 89 91 93 82
90 97 94 80 69 71 76 77 67 64 70 68 63 66 68 59 58 54 60 63 68 64 73 86 96 97 97 98 98 97 97 97 97 97 96 96 96 93 91 91 95 89 91 85 85 83 85 83 82
95 98 92 90 69 67 79 91 75 55 58 58 74 73 72 69 63 61 59 68 85 96 95 96 98 98 97 97 99 99 98 99 99 99 98 95 94 94 88 89 91 95 93 84 90 89 85 82 84
100 78 78 80 93 96 81 95 79 70 84 79 74 83 78 80 78 74 90 91 90 84 87 97 98 98 98 97 97 94 98 95 98 96 97 97 93 90 95 92 92 92 94 94 92 87 86 81 87
81 77 82 85 98 98 91 97 83 81 78 86 84 94 89 89 93 97 94 92 92 96 99 99 97 98 97 95 94 96 97 92 95 96 97 97 97 96 92 94 94 94 94 91 91 92 91 88 83
69 88 90 90 89 98 86 93 83 94 93 83 84 85 86 93 97 95 93 90 94 94 97 98 97 95 97 94 94 96 98 96 94 95 96 94 96 96 96 94 94 95 96 94 92 92 92 90 90
83 99 98 92 96 89 95 96 85 87 82 88 92 90 94 95 96 97 96 94 91 92 91 91 96 97 94 96 93 94 96 98 98 96 97 97 96 95 94 93 93 93 93 97 96 97 97 96 96
88 91 99 99 98 94 94 96 96 84 77 80 87 91 92 95 95 95 92 93 92 91 90 84 84 88 89 92 94 94 94 95 95 96 98 98 97 97 94 94 94 94 95 98 98 99 98 99 99
92 95 85 94 88 99 94 98 90 82 88 86 88 89 94 96 95 94 91 91 91 92 90 86 82 81 80 84 90 92 93 93 95 94 93 93 91 89 93 97 98 99 98 97 97 97 98 99 99
90 87 93 88 99 96 92 98 98 97 99 95 95 95 93 92 93 94 93 91 88 88 88 84 80 81 80 80 78 83 87 89 89 88 90 90 90 90 90 91 93 96 97 99 99 99 97 98 97
88 88 87 90 96 98 97 98 97 100 99 98 96 95 96 93 95 96 95 92 91 89 90 85 78 80 84 79 72 73 78 80 83 80 80 80 80 83 86 88 91 91 94 95 97 99 99 99 98
83 84 84 95 84 90 93 93 85 91 92 96 96 95 93 90 94 93 93 92 90 91 87 88 85 76 71 70 69 69 68 68 73 79 76 74 79 76 79 80 81 81 83 85 90 94 95 99 98

GFSSGP_sfc_rhum_105.txt.gz
RH
67 65 61 49 44 51 49 44 64 54 47 36 37 34 31 29 27 36 66 72 79 76 76 70 86 87 85 85 87 87 87 86 84 82 80 80 76 75 72 71 71 70 72 73 75 71 70 72 69
64 58 55 51 49 30 25 61 60 55 45 41 37 32 31 29 43 60 70 73 81 77 75 67 85 88 86 86 86 86 86 85 82 76 74 79 75 75 74 72 71 74 76 77 78 76 74 72 73
58 51 56 54 63 32 30 56 53 46 41 38 31 26 29 68 53 74 70 76 82 80 75 72 88 88 86 87 87 87 86 85 85 82 74 82 77 75 74 75 78 79 82 84 81 80 78 76 74
55 56 59 55 52 57 49 53 50 37 32 31 30 28 43 33 38 53 69 79 84 82 74 80 88 88 90 88 89 88 85 83 85 84 82 82 79 74 77 80 83 85 86 85 80 81 80 81 79
58 56 68 69 66 66 61 56 46 36 33 29 30 28 29 39 32 35 78 86 85 85 79 74 88 87 90 90 89 88 87 86 85 84 81 79 80 80 79 83 86 86 86 84 80 78 77 75 76
70 55 53 49 62 61 54 47 40 33 34 30 33 36 34 41 35 47 70 88 88 84 80 78 86 89 89 89 90 88 86 86 86 86 84 82 81 81 80 86 88 86 83 81 79 78 75 75 74
69 52 53 64 65 61 50 40 38 38 37 32 33 36 31 34 32 48 54 82 90 90 81 80 76 78 92 90 89 88 88 86 88 88 88 86 86 86 81 85 87 85 83 82 83 79 76 75 75
68 65 79 75 67 53 51 45 36 37 37 31 32 40 38 29 32 47 50 58 75 88 93 87 85 79 78 77 91 90 89 89 90 91 92 92 91 89 85 88 87 85 85 83 85 82 78 79 79
58 58 63 62 70 51 51 50 41 34 35 32 28 35 31 28 38 41 49 57 60 66 78 90 93 84 78 79 82 92 92 92 92 92 95 92 76 73 72 78 88 86 86 86 86 83 81 84 83
66 54 52 59 59 59 54 49 40 37 38 36 32 30 28 30 37 40 46 55 56 55 64 79 90 93 84 84 85 85 83 81 80 81 81 81 80 74 70 80 92 90 90 89 86 83 83 84 61
70 58 65 59 53 44 45 44 38 39 42 36 33 32 30 32 35 42 37 41 46 47 62 66 83 90 92 88 91 93 94 90 82 79 82 82 85 81 72 70 73 69 86 83 75 77 67 75 62
49 52 50 46 44 50 46 39 40 42 32 28 32 32 35 33 37 44 41 36 35 47 52 62 83 87 91 94 95 92 97 89 90 83 79 86 89 88 84 72 74 69 72 85 72 70 70 77 61
50 55 52 50 55 53 47 52 45 40 34 32 33 35 36 36 38 33 41 37 42 39 44 49 72 87 92 93 97 97 96 94 79 84 85 84 89 90 87 88 87 78 77 74 78 80 78 65 60
61 60 60 56 52 52 52 48 43 32 35 37 37 36 34 34 31 33 40 41 38 39 42 46 54 80 92 94 92 93 98 96 95 93 89 82 86 91 87 86 89 88 93 86 86 76 76 73 63
61 48 50 44 51 49 50 51 56 36 37 37 34 31 33 32 32 32 33 34 32 37 38 38 43 64 88 92 92 90 93 96 96 94 92 86 82 83 85 89 86 82 84 91 96 85 87 75 69
60 50 38 40 52 50 41 45 35 35 39 41 39 38 39 36 33 30 31 33 31 39 34 36 36 64 81 92 92 88 95 93 94 93 86 83 81 79 82 82 83 82 82 84 87 97 94 89 74
58 44 56 54 51 54 50 54 44 41 43 47 45 42 41 41 41 39 34 30 30 38 40 42 50 64 80 87 92 90 89 88 91 89 86 76 73 75 80 83 83 82 84 84 85 93 94 96 94
51 59 65 68 55 60 65 66 54 49 51 52 51 49 47 47 48 45 40 37 42 45 49 45 49 63 85 90 95 96 93 90 90 89 86 80 74 79 82 85 85 87 89 91 90 92 98 97 94
67 76 80 71 60 71 74 70 61 57 58 57 50 49 50 53 49 51 47 49 53 56 55 53 60 67 92 97 97 94 92 90 91 89 84 80 82 79 82 89 88 91 88 83 82 87 90 96 93
80 91 88 71 67 69 70 72 61 64 65 58 55 59 68 61 59 53 55 58 61 57 58 59 60 87 92 92 90 87 88 87 85 86 83 85 82 82 83 87 90 88 88 80 74 76 76 89 93
89 96 85 80 68 69 80 81 65 50 55 63 68 77 81 82 79 75 63 61 67 68 71 67 61 80 94 91 92 93 92 91 91 92 89 86 83 86 86 81 84 86 90 86 85 82 75 74 85
98 76 76 81 90 91 72 88 70 56 66 72 71 79 79 79 79 86 89 82 85 84 85 86 84 87 92 93 92 91 93 91 89 89 89 88 84 84 87 87 84 84 88 89 91 89 89 87 86
72 71 76 78 96 97 87 96 68 69 75 73 70 79 82 87 86 88 95 93 92 91 86 88 94 94 92 94 90 94 93 90 89 88 87 86 86 85 86 88 87 88 88 88 89 96 95 91 90
73 86 87 86 90 94 85 88 75 86 92 82 80 79 82 91 91 92 92 90 89 91 92 94 91 95 93 91 92 94 94 94 93 92 92 89 89 87 87 87 89 89 90 89 90 91 92 92 92
81 97 94 89 95 86 87 94 82 84 85 82 89 90 90 91 92 94 95 95 93 92 90 88 90 95 92 93 93 93 94 94 95 96 95 94 90 89 90 91 90 91 88 88 90 93 92 92 93
82 89 97 95 97 91 92 98 79 88 87 86 83 84 86 90 92 94 94 94 93 92 88 84 86 86 88 90 92 90 88 92 92 92 93 94 94 94 89 91 94 96 94 92 92 94 93 94 96
88 87 84 99 88 95 87 85 85 76 83 92 93 92 91 90 92 93 90 90 91 90 88 83 80 80 79 78 81 84 86 87 87 88 88 92 90 88 89 89 88 91 91 93 97 98 98 97 97
89 84 84 91 93 96 84 91 93 96 98 95 96 96 94 89 92 93 93 93 90 88 86 84 78 78 78 77 74 78 81 84 88 87 84 83 83 82 84 84 88 89 90 89 92 95 98 99 98
95 91 89 83 88 95 94 82 89 100 98 97 96 96 96 93 93 94 92 90 90 86 90 84 81 80 80 74 74 66 71 73 79 83 82 76 77 77 77 78 80 81 82 86 88 88 91 93 96
80 79 76 86 82 85 89 85 83 89 92 95 96 95 94 90 91 91 90 89 89 87 85 87 86 78 77 69 58 62 56 56 62 66 64 64 63 58 59 59 62 66 71 78 83 81 84 89 92

GFSSGP_sfc_rhum_108.txt.gz
RH
44 40 36 31 26 23 18 26 34 35 32 28 27 26 24 22 22 29 48 57 57 58 55 58 86 86 86 86 87 87 87 85 84 83 77 82 78 75 72 71 69 72 77 71 68 69 70 72 67
41 40 33 29 23 16 18 33 37 38 32 27 26 25 24 26 45 42 53 54 60 59 54 57 87 86 87 87 86 86 86 85 84 82 82 81 78 76 72 71 71 72 76 77 77 77 76 73 74
42 34 32 27 20 16 22 34 33 32 27 25 24 20 25 42 32 36 33 58 62 59 55 57 84 85 86 87 86 85 85 85 84 81 79 82 77 76 73 73 76 78 80 83 81 79 78 77 75
36 36 29 27 20 30 30 34 33 27 24 20 21 22 38 27 29 26 39 70 70 59 55 68 86 85 86 87 86 85 84 84 83 82 79 82 78 75 76 80 81 83 84 84 78 77 77 80 77
32 32 28 28 28 34 35 38 36 27 24 22 22 22 25 27 22 24 39 73 80 67 56 54 84 82 86 87 86 85 85 83 83 82 79 78 79 78 80 81 84 84 85 83 79 77 77 78 78
36 30 22 20 26 34 33 34 31 26 25 23 23 24 25 26 24 30 34 61 79 80 60 56 79 84 84 85 86 86 86 86 85 84 82 80 80 80 81 82 86 84 84 85 80 78 77 75 74
32 24 22 25 26 30 34 29 27 27 26 24 24 26 23 26 22 29 32 36 64 83 74 57 55 66 94 89 88 88 87 86 86 86 85 86 85 85 82 85 88 86 86 85 83 80 75 76 74
33 25 31 31 24 29 38 34 29 30 27 24 22 25 26 23 21 26 28 36 35 45 73 80 62 58 53 52 90 89 88 88 89 88 89 93 92 90 86 87 90 86 86 87 85 83 78 79 81
42 23 27 34 34 33 37 36 33 27 27 22 20 22 20 17 24 25 28 32 35 34 35 47 79 69 56 53 59 86 91 90 91 88 95 91 59 54 61 73 86 87 85 85 87 85 83 85 85
33 26 25 32 34 36 38 36 30 25 20 19 17 15 16 18 20 23 25 29 34 33 33 35 44 75 73 61 62 59 54 52 50 51 55 58 53 49 53 69 90 88 87 89 88 86 86 85 47
44 30 38 43 43 39 35 26 27 24 19 15 14 12 14 17 19 22 18 19 25 29 33 34 34 62 83 75 72 73 84 83 66 52 58 54 53 54 56 55 64 76 86 67 71 71 60 58 42
34 43 39 39 37 36 32 28 26 24 18 14 15 17 19 20 21 23 21 18 17 22 28 34 34 40 74 88 79 78 80 73 83 62 53 58 56 62 54 51 62 69 72 70 62 55 54 47 46
32 36 36 34 38 34 31 34 28 22 17 15 17 21 22 21 21 20 22 20 21 20 23 25 30 34 51 84 92 84 74 86 83 66 60 53 59 64 59 62 66 65 72 74 74 60 51 46 47
37 40 34 36 32 35 36 29 34 18 20 22 22 23 22 23 23 23 24 24 22 20 23 23 25 28 40 61 86 89 76 75 91 89 76 60 62 64 69 67 69 62 71 70 73 79 75 62 38
38 29 29 32 34 34 36 33 38 22 23 26 28 30 30 28 26 26 25 24 21 21 19 21 21 20 30 50 73 88 78 77 82 94 90 87 56 65 64 68 64 66 67 85 86 81 87 66 55
29 27 19 28 37 40 37 26 23 21 28 31 33 29 28 27 26 26 25 25 22 22 22 21 18 19 25 36 68 88 82 65 73 80 93 91 84 70 64 57 62 62 61 65 67 74 89 86 90
25 18 24 26 40 41 40 38 30 27 31 36 32 28 28 29 28 28 29 28 26 25 26 25 26 24 26 34 56 83 88 70 63 71 88 84 79 64 58 56 56 55 68 72 76 77 79 86 90
23 26 33 36 36 43 46 43 36 34 36 38 32 30 30 34 36 35 38 35 32 29 29 28 27 27 30 43 62 88 96 90 79 71 69 73 67 64 61 58 58 62 76 75 78 79 83 82 80
47 50 50 35 42 54 48 46 41 39 39 36 36 36 39 42 45 50 49 41 40 38 38 34 34 33 32 52 81 91 88 88 93 91 77 80 90 78 68 65 66 78 84 78 83 86 86 92 83
57 59 49 45 48 54 51 52 44 45 45 45 47 48 53 52 56 56 59 57 44 41 41 38 36 38 45 58 82 82 82 88 78 72 72 73 71 66 67 68 68 72 89 83 81 80 82 78 74
62 71 59 70 57 46 57 50 46 38 39 46 43 50 56 58 65 59 58 62 62 58 48 42 39 40 47 53 83 86 77 78 77 74 70 71 67 70 69 68 69 75 79 88 81 71 72 67 65
73 54 59 70 81 79 53 73 40 39 40 45 47 59 66 63 64 64 62 76 80 74 67 60 51 51 50 59 79 88 79 80 78 75 73 72 68 70 73 78 72 72 77 79 78 76 72 76 73
60 58 63 71 86 84 65 85 44 42 50 58 52 67 74 81 82 83 78 88 84 88 79 70 60 61 76 76 91 87 90 85 85 84 84 75 70 69 69 72 76 79 77 77 77 80 81 83 86
56 73 77 76 79 92 74 73 48 52 74 79 66 77 80 83 83 82 80 84 90 89 88 87 87 90 90 95 96 96 95 91 90 90 89 84 85 76 74 77 78 77 77 76 77 83 86 86 90
74 82 89 90 95 73 72 91 69 53 83 79 90 85 81 83 85 90 86 91 91 89 89 86 87 90 88 90 92 91 91 91 92 93 92 91 93 92 89 86 90 92 88 79 82 88 90 89 91
60 66 87 95 79 68 77 97 62 68 67 72 83 86 82 84 85 89 90 91 91 87 80 80 80 83 82 84 84 79 77 80 83 84 88 90 90 89 84 84 87 88 88 89 90 93 91 89 96
68 78 74 94 81 85 68 81 55 61 65 76 80 93 94 86 87 91 89 87 87 85 87 76 69 70 68 69 76 78 78 83 84 80 81 85 82 75 78 79 83 84 84 85 83 91 93 96 96
67 71 75 81 88 79 58 62 76 83 95 86 90 95 94 83 85 87 90 90 84 82 83 82 70 70 68 66 62 64 71 72 77 79 78 75 73 72 75 76 74 77 76 81 84 87 87 90 92
80 74 72 60 62 72 55 55 75 84 84 88 94 94 95 88 90 90 89 87 86 81 83 83 80 71 64 60 57 49 59 62 56 53 66 69 62 60 58 61 63 65 71 77 81 83 83 86 87
54 52 50 53 59 59 61 60 62 73 76 78 92 94 89 85 89 89 88 88 88 87 83 85 77 64 62 60 48 63 51 43 43 44 44 41 42 42 39 37 38 38 44 49 64 70 71 77 80

GFSSGP_sfc_rhum_111.txt.gz
RH
44 32 29 28 26 20 16 19 21 24 23 22 22 22 20 19 21 37 37 40 51 56 59 63 84 86 85 85 85 88 87 85 84 82 77 81 78 76 72 70 68 70 71 70 67 76 75 72 72
32 31 29 24 29 18 16 21 24 26 24 22 20 21 20 27 32 32 39 33 53 55 57 64 84 84 85 87 86 88 86 84 83 83 80 79 80 76 72 71 69 72 75 76 74 77 77 75 75
38 29 28 24 16 17 21 23 25 26 23 22 20 18 22 34 28 28 26 47 56 55 50 64 82 82 84 84 83 82 84 84 83 83 82 79 80 77 73 71 73 77 80 81 79 80 79 77 76
30 30 22 26 17 23 24 24 24 24 22 19 19 20 29 26 28 25 30 56 61 64 53 78 83 83 85 86 86 83 81 81 81 81 80 81 77 76 75 78 80 82 82 83 81 79 77 80 77
30 27 25 22 20 24 24 27 26 21 20 18 19 19 23 25 24 26 30 45 69 66 69 52 82 79 84 85 85 84 82 81 80 81 78 77 77 77 78 82 84 84 82 84 80 77 77 77 77
31 25 21 20 20 24 24 26 24 20 20 18 19 20 22 23 25 28 30 34 61 76 74 57 77 82 82 84 85 84 84 82 82 82 79 79 80 81 80 82 85 84 81 83 81 78 77 77 76
29 23 19 17 20 24 24 22 19 20 19 18 20 22 20 26 21 24 26 32 37 54 69 70 68 64 89 86 86 84 85 86 86 86 85 84 83 84 83 84 85 85 85 85 84 83 80 77 76
26 22 21 18 18 26 29 25 24 23 20 19 18 18 20 20 16 22 24 30 33 35 39 49 72 73 57 48 88 89 90 89 88 88 89 90 91 89 85 86 87 88 88 87 86 85 80 80 81
30 23 21 23 20 27 27 25 25 22 21 15 15 16 15 13 14 19 23 28 31 33 32 34 40 62 66 61 59 85 90 89 90 90 95 90 64 54 61 72 83 88 88 87 84 85 83 86 86
26 24 20 24 25 26 28 25 21 19 15 14 12 10 10 12 14 17 19 23 26 28 32 32 33 41 61 64 68 55 48 51 50 48 50 55 50 46 48 63 85 90 90 87 86 86 87 86 54
28 26 26 30 33 30 26 21 20 18 15 11 11 12 12 14 16 18 16 15 17 20 25 30 32 35 51 71 81 75 58 61 51 45 45 45 44 58 49 49 63 73 86 80 75 75 67 58 45
30 31 27 32 32 28 24 22 19 16 16 11 13 13 15 16 18 20 18 16 16 19 24 29 30 35 38 64 76 87 80 69 66 63 57 48 51 55 54 51 53 70 70 77 80 80 61 54 48
22 24 25 26 29 25 21 24 21 19 14 13 16 19 20 19 20 20 22 20 20 19 22 22 26 33 36 41 70 79 86 74 65 57 53 47 56 58 60 53 58 64 70 73 80 78 76 52 46
24 28 24 26 24 25 29 23 27 15 16 19 21 22 23 24 24 24 24 24 22 22 22 20 19 24 31 36 47 70 77 69 64 58 60 68 81 81 83 75 75 76 77 75 72 66 72 68 52
24 25 24 26 27 28 31 32 29 19 18 22 21 24 26 24 21 20 21 21 19 19 19 20 20 18 21 31 35 49 71 82 68 60 59 67 78 79 72 75 76 73 75 74 75 75 80 85 84
23 21 22 25 29 33 35 24 18 17 20 24 24 26 24 22 21 22 22 23 22 22 21 19 18 20 18 18 28 38 67 77 75 65 64 70 67 66 80 79 71 72 74 71 70 74 94 91 96
19 19 17 30 31 34 36 30 21 21 24 28 27 25 22 23 25 31 31 29 27 26 26 25 24 24 24 21 21 30 64 70 70 68 68 66 83 80 84 89 80 71 72 68 72 79 80 83 85
23 18 20 22 31 36 38 35 27 26 27 30 28 24 25 29 38 38 42 41 41 32 31 29 28 27 26 27 29 40 82 83 73 56 56 60 74 73 76 91 91 81 74 68 79 78 80 83 82
31 31 30 24 34 48 38 37 32 30 34 30 31 31 33 39 39 44 46 44 46 44 36 34 34 30 31 33 35 51 85 92 90 67 57 60 62 60 69 74 71 74 71 70 69 77 84 90 86
44 42 36 37 41 46 44 45 34 37 35 35 36 37 45 49 47 49 49 49 52 55 51 42 35 33 32 37 39 58 79 89 91 91 80 64 63 68 69 69 77 70 82 75 74 84 85 84 91
48 58 52 64 52 41 48 42 41 34 32 33 33 39 54 63 65 60 63 67 65 66 62 58 49 36 35 37 51 69 80 88 92 86 79 76 70 72 72 67 74 79 80 83 83 86 89 92 79
62 46 53 61 71 73 46 64 32 30 32 33 42 47 72 70 63 63 70 78 79 80 76 73 58 49 42 45 51 70 89 89 82 82 79 78 73 72 79 75 73 76 81 87 85 82 86 84 87
58 52 57 64 74 74 56 74 34 34 36 36 52 59 71 72 70 75 76 82 80 84 88 88 73 62 53 53 60 77 81 86 88 87 85 83 79 77 81 82 78 81 84 84 84 86 86 86 87
51 64 69 63 64 91 67 62 37 38 48 59 62 69 73 76 77 75 72 76 84 85 88 87 88 89 81 74 84 95 94 97 98 97 95 93 94 93 87 86 90 86 87 90 86 84 84 86 87
62 73 91 87 93 75 59 84 64 38 55 62 75 78 78 78 81 82 85 83 87 88 86 85 88 90 87 89 92 94 95 95 96 96 92 90 90 90 89 89 90 88 88 90 91 93 90 88 92
52 57 84 87 73 64 68 91 56 48 49 59 66 75 80 82 80 84 86 83 88 87 85 76 82 83 86 91 95 92 91 92 91 83 81 81 84 85 79 81 81 81 80 85 88 93 92 91 96
57 67 57 86 61 79 63 72 47 46 45 60 67 78 90 84 80 84 86 86 83 85 87 69 60 62 57 64 75 82 80 78 75 69 72 78 77 66 73 75 74 72 78 82 85 91 90 90 92
61 53 68 80 78 72 50 50 63 62 88 62 67 81 87 80 85 84 86 87 84 79 78 83 71 53 53 48 43 47 53 56 59 58 63 65 66 63 63 62 63 64 67 74 80 83 83 86 90
72 64 62 48 48 63 43 47 64 74 69 68 68 78 91 84 86 86 84 84 83 81 81 77 76 71 55 51 51 44 49 55 51 48 47 50 53 53 53 50 52 51 55 58 64 66 68 73 77
48 46 41 50 44 47 46 51 49 54 61 65 70 76 81 82 84 85 84 82 80 83 81 77 70 68 57 56 46 47 43 41 37 35 35 32 33 31 32 33 33 36 37 46 52 57 53 58 62

GFSSGP_sfc_rhum_114.txt.gz
RH
53 41 42 48 56 44 37 38 27 30 32 29 26 29 32 33 41 75 41 45 59 65 67 71 86 85 84 84 87 86 85 85 84 83 80 79 78 76 71 68 66 67 67 67 64 74 75 72 77
51 31 47 50 53 39 33 29 30 33 30 28 26 28 27 48 33 37 41 46 61 62 68 66 86 84 85 86 86 87 85 84 82 83 80 79 80 77 73 71 68 72 75 76 75 79 79 76 77
50 33 54 51 37 37 41 31 37 29 27 26 28 24 35 45 33 36 39 58 64 69 69 68 82 84 84 83 82 83 85 84 83 83 82 81 76 78 74 72 74 78 81 80 80 82 82 79 79
44 51 44 46 33 35 31 32 27 28 28 25 24 37 35 33 37 36 37 44 70 68 77 81 83 83 86 85 85 83 82 83 82 81 83 80 77 78 76 79 81 82 83 81 82 82 80 82 82
46 48 48 36 36 32 32 31 28 26 25 22 23 28 40 33 32 33 38 42 74 76 72 72 82 83 84 85 85 85 83 82 81 81 80 78 78 77 81 83 84 84 85 82 82 79 78 80 80
54 45 44 38 32 30 30 29 29 25 26 23 27 27 43 31 34 37 40 43 51 68 72 73 80 84 83 85 85 86 84 83 84 83 82 81 80 80 81 83 85 86 84 80 82 80 78 79 78
59 45 38 29 35 33 30 26 28 26 25 28 28 32 38 32 32 32 35 41 47 53 51 60 76 77 86 85 86 86 85 86 86 87 86 85 84 84 81 85 85 85 85 81 85 83 81 78 79
50 41 35 28 29 40 34 30 27 28 28 25 26 28 32 24 19 28 33 39 44 43 48 46 51 70 72 70 87 88 87 88 88 89 89 90 90 88 87 87 86 85 86 87 87 85 84 84 83
42 49 38 33 27 38 31 31 30 28 29 21 19 20 17 15 20 25 32 36 43 42 45 43 47 45 65 70 73 87 89 91 91 92 95 94 93 80 81 84 84 88 88 88 87 86 86 86 86
46 48 39 31 35 34 30 29 25 25 21 19 18 18 15 16 22 26 28 34 34 35 39 43 46 49 47 66 78 78 69 82 81 81 81 91 82 74 62 76 85 90 89 90 86 86 86 90 90
42 45 33 33 37 31 29 24 23 25 25 17 18 17 17 20 22 27 25 24 26 30 36 38 40 47 50 57 88 98 85 86 74 59 61 66 63 66 68 78 85 96 94 96 89 88 84 91 80
39 33 28 39 36 33 30 25 25 23 23 17 18 20 21 23 27 31 30 28 28 30 32 36 39 41 50 60 88 93 98 89 94 82 76 70 71 73 68 70 80 90 92 96 96 95 85 79 69
35 32 28 31 36 30 24 29 27 25 21 18 20 24 27 28 31 32 36 34 32 33 34 36 36 39 44 52 64 92 96 96 86 88 84 68 74 74 73 73 74 92 94 95 97 96 90 84 67
30 36 30 32 30 29 34 32 30 23 20 21 22 28 31 32 32 31 31 32 28 28 31 31 34 35 41 48 52 68 93 92 87 83 80 74 87 89 89 88 88 89 92 95 96 95 93 94 86
28 38 33 32 34 36 39 41 38 26 22 24 25 25 32 32 28 31 35 35 32 31 31 30 28 28 32 35 42 47 75 89 94 90 86 83 82 83 87 89 92 92 93 93 96 95 94 96 89
30 31 40 35 36 42 43 39 31 22 22 29 28 30 32 31 30 37 44 45 46 44 36 34 30 32 32 33 36 42 47 86 92 89 85 82 79 78 88 89 92 89 94 95 95 96 98 98 98
30 39 28 43 38 42 45 46 32 27 27 32 34 36 31 35 45 48 48 51 51 50 48 41 39 39 39 36 38 36 39 83 92 91 90 89 88 85 91 92 95 94 96 89 90 94 96 99 99
50 30 29 34 44 41 47 46 35 32 31 41 41 40 39 48 54 52 54 54 55 57 57 56 45 44 44 48 48 52 70 87 93 93 96 90 87 89 96 96 93 91 91 92 92 92 93 95 95
42 41 41 33 43 56 52 48 43 38 45 44 47 46 56 58 55 58 58 64 67 65 66 65 65 53 50 54 56 55 62 93 96 96 84 79 82 82 92 96 84 85 89 84 87 89 93 94 95
54 57 60 53 46 54 57 56 46 42 43 46 48 60 70 71 68 62 65 69 74 78 78 79 73 70 62 56 58 59 78 93 94 92 91 85 80 76 83 86 87 91 93 91 85 87 95 93 94
64 79 69 73 59 55 60 67 54 46 40 38 45 66 74 79 75 72 70 74 80 82 84 80 80 84 76 54 62 70 81 92 93 92 89 88 83 87 84 88 90 93 94 97 94 94 95 96 95
81 54 58 67 83 95 60 90 51 47 44 40 57 70 83 84 76 67 75 76 78 80 79 80 82 86 77 70 65 72 85 90 91 88 90 90 80 80 93 91 86 93 95 95 95 94 94 96 95
70 60 65 70 75 82 72 91 59 42 43 62 66 73 81 82 78 74 80 78 80 81 86 85 86 85 87 89 81 89 95 97 91 90 94 96 98 96 94 94 94 94 95 96 95 95 97 96 97
53 72 72 66 74 92 89 84 67 56 63 72 70 77 80 78 80 78 78 77 82 84 88 84 84 85 88 91 90 96 97 96 95 95 96 97 96 95 94 92 94 93 93 94 96 96 96 97 96
70 95 98 95 95 95 74 94 84 52 66 73 77 84 80 80 81 84 85 86 86 86 89 77 79 80 89 91 91 91 95 95 96 96 96 95 96 95 94 89 88 88 88 90 90 94 94 95 97
64 70 94 94 96 91 82 94 83 58 60 66 71 83 81 78 80 85 86 88 89 86 86 81 69 65 71 88 91 94 92 94 90 91 92 94 94 90 81 76 76 78 81 83 88 92 90 90 94
69 77 67 90 82 91 88 81 63 55 59 67 77 75 79 82 82 84 86 87 87 85 86 82 75 57 56 51 62 67 75 79 80 77 79 79 75 62 65 66 67 69 74 76 84 88 86 89 93
76 62 87 86 96 90 79 77 86 77 77 75 74 84 80 80 84 84 86 86 83 82 82 85 75 72 58 55 46 48 56 56 59 60 62 63 65 64 60 58 59 59 63 67 77 77 77 77 85
85 85 75 63 68 91 80 76 82 76 87 77 75 81 82 86 86 86 85 84 83 82 82 78 75 67 65 56 54 46 49 51 47 46 47 50 49 47 47 48 52 52 54 61 66 66 64 66 68
63 64 63 84 64 69 70 74 56 63 68 74 73 77 85 77 85 86 86 84 82 79 79 74 71 64 58 55 46 49 46 42 40 41 41 37 35 35 35 37 39 37 41 46 52 54 56 60 66

GFSSGP_sfc_rhum_117.txt.gz
RH
64 59 62 57 50 52 54 42 40 35 37 36 32 32 46 52 58 86 47 52 70 70 71 73 86 86 85 86 87 84 86 85 83 80 80 76 76 76 71 67 67 70 66 64 65 72 76 75 78
66 55 59 62 59 44 43 43 46 40 39 32 27 29 37 50 38 43 51 48 69 68 74 72 86 86 87 88 88 86 85 83 84 83 81 80 75 78 74 70 67 69 70 73 72 78 79 77 78
53 52 61 62 50 48 49 51 40 33 27 28 30 37 46 50 39 47 44 50 74 71 77 73 82 83 83 84 85 87 86 84 84 84 82 81 78 77 75 74 74 78 81 82 81 83 82 80 80
60 58 50 52 49 42 42 42 36 32 28 25 31 46 40 40 41 45 42 54 82 74 81 81 84 82 83 84 85 83 82 82 83 82 82 82 76 74 77 79 82 82 83 82 83 82 81 84 82
62 61 57 44 42 50 45 35 30 30 29 30 28 42 48 42 37 41 44 47 66 64 76 76 82 84 84 85 83 84 83 82 82 81 81 79 77 76 78 83 84 85 85 83 82 80 80 81 82
63 53 55 54 42 42 38 31 31 30 29 30 32 38 52 42 36 41 46 47 54 52 53 68 79 85 86 86 85 85 84 83 83 84 83 82 80 81 81 85 85 87 84 83 81 82 81 80 80
64 51 49 46 44 41 39 30 38 35 31 35 34 36 47 40 38 35 40 39 50 53 49 46 53 77 86 84 86 86 86 85 85 86 87 86 86 85 82 86 86 86 87 85 83 86 83 80 80
53 45 42 37 42 51 38 34 35 34 36 25 29 32 47 27 29 29 29 38 42 47 50 44 48 45 53 73 88 88 88 88 88 89 90 91 91 89 88 88 89 87 86 86 86 86 85 84 84
44 47 47 47 45 45 36 37 30 30 34 28 24 24 22 23 26 27 32 32 38 40 47 44 46 43 44 50 77 89 91 91 91 92 94 94 96 92 88 89 91 89 89 88 88 87 85 88 89
52 58 50 44 44 41 34 30 28 27 26 26 22 17 18 20 25 28 31 35 33 32 36 44 49 50 49 38 71 91 82 83 91 94 95 95 96 92 78 85 90 90 90 90 90 88 87 90 96
42 46 40 48 38 34 32 29 25 30 28 23 24 21 21 23 27 32 31 31 30 30 36 36 36 41 46 52 62 97 98 97 80 79 85 88 84 87 82 85 86 91 93 97 94 93 88 95 95
43 35 36 43 38 36 38 28 28 28 25 24 26 28 27 25 29 34 35 38 37 39 38 39 40 42 45 64 63 85 97 97 97 86 81 80 74 79 77 80 92 94 93 97 98 97 93 95 91
37 37 31 36 37 35 29 33 31 29 25 23 24 27 29 32 36 36 38 36 37 35 38 39 41 42 41 46 62 68 92 96 95 92 91 93 90 79 72 80 88 97 96 97 98 98 95 93 86
38 34 35 34 34 33 39 38 37 28 25 24 26 28 33 37 35 36 43 47 46 44 45 40 40 38 41 46 48 57 75 93 96 95 91 88 95 93 96 91 93 94 97 97 97 97 96 95 94
31 37 39 39 37 41 47 42 43 29 25 26 26 27 33 35 36 53 56 55 57 56 53 45 39 38 41 41 44 44 56 69 95 95 94 95 92 97 94 96 96 95 96 96 99 99 97 98 98
35 33 46 40 41 46 38 22 33 31 28 26 28 33 38 47 54 58 57 59 59 61 64 60 52 50 46 45 46 43 44 57 83 92 95 94 91 92 97 97 95 95 96 97 98 98 99 98 98
38 47 42 47 40 46 47 40 37 35 33 35 41 45 47 61 62 63 62 68 68 68 66 67 66 66 60 47 49 51 48 49 80 94 94 94 91 92 94 96 96 94 96 96 96 97 98 99 99
60 52 34 44 47 49 53 53 41 39 40 43 56 58 68 66 68 64 69 66 71 74 76 75 74 74 70 70 57 60 71 74 84 92 91 95 93 95 98 97 97 97 97 97 96 95 97 95 96
52 54 55 52 48 60 59 58 50 47 48 48 54 76 81 77 70 69 68 73 78 79 81 81 83 80 81 82 77 64 62 74 82 95 92 94 96 95 96 96 98 97 96 95 95 95 93 96 94
59 69 78 60 54 61 67 64 52 52 53 47 65 86 87 84 80 72 74 78 84 84 84 84 82 83 86 87 84 71 71 84 95 95 91 86 85 88 91 93 94 94 92 95 86 92 97 96 97
74 78 81 81 70 66 69 74 62 53 46 47 75 79 85 88 89 81 76 85 87 86 86 84 84 85 85 87 90 81 81 88 94 93 90 81 80 78 84 88 89 92 97 94 95 94 94 97 97
80 64 67 76 86 90 68 83 72 56 50 52 74 89 90 89 88 78 81 87 87 86 84 85 83 79 80 89 94 94 86 90 96 97 98 96 93 93 92 87 91 94 96 98 98 98 98 98 99
76 66 74 78 86 89 82 93 74 58 58 71 86 88 90 89 90 88 89 85 82 88 90 86 84 80 88 89 87 94 93 98 98 96 95 94 92 89 87 92 95 97 99 99 99 98 98 98 98
61 78 81 68 72 96 86 89 74 62 55 75 79 88 88 88 89 85 85 84 84 86 86 87 82 74 83 89 91 91 96 95 94 95 96 95 93 94 89 88 96 97 96 96 97 98 96 96 97
77 95 98 95 99 93 83 90 80 63 76 70 78 87 90 90 90 85 87 89 88 86 86 80 73 66 64 77 87 91 92 94 93 92 95 92 92 91 92 91 95 96 96 94 93 92 92 94 95
82 78 92 70 97 93 85 92 71 64 71 75 74 85 87 85 89 90 87 91 89 86 86 82 76 64 62 66 72 78 82 88 88 88 84 85 87 86 85 89 89 88 85 84 86 86 88 90 94
79 86 73 91 90 95 91 77 67 67 79 79 80 83 88 89 75 79 90 91 87 91 86 83 73 68 59 56 55 58 60 67 79 75 71 74 73 57 71 66 65 66 67 72 76 82 80 85 90
80 76 87 92 93 92 87 78 81 82 78 76 80 85 87 84 88 81 90 88 88 83 84 82 74 64 61 54 48 46 52 52 54 50 52 55 52 52 53 53 53 53 58 64 69 79 77 78 83
89 91 85 78 84 92 92 81 71 76 74 71 79 81 89 86 88 90 87 86 87 82 81 75 72 66 60 54 50 45 48 50 47 44 44 48 49 45 44 45 47 48 46 59 59 59 58 66 70
76 78 75 88 73 80 84 83 58 70 69 78 76 81 88 87 86 90 92 90 89 87 81 78 72 68 57 57 54 52 51 45 43 40 36 34 34 34 34 35 40 41 46 56 61 64 62 64 66